[[{"header":{"parameterUnit":"m.s-1","parameterCategory":1,"la1":30.6,"la2":29.2853,"lo1":-89.7004,"lo2":-87.6739,"dy":0.0162,"dx":0.0183,"nx":112,"ny":82,"refTime":"2023-04-08T12:00:00:Z","depth":0,"parameterNumber":2,"parameterNumberName":"U-component_of_WINDS"},"data":[0.0,0.0,0.0,0.0,0.0,0.0,0.0,0.0,0.0,0.0,0.0,0.0,0.0,0.0,0.0,0.0,0.0,0.0,0.0,0.0,0.0,0.0,0.0,0.0,0.0,0.0,0.0,0.0,0.0,0.0,0.0,0.0,0.0,0.0,0.0,0.0,0.0,0.0,0.0,0.0,0.0,0.0,0.0,0.0,0.0,0.0,0.0,0.0,0.0,0.0,0.0,0.0,0.0,0.0,0.0,0.0,0.0,0.0,0.0,0.0,0.0,0.0,0.0,0.0,0.0,0.0,0.0,0.0,0.0,0.0,0.0,0.0,0.0,0.0,0.0,0.0,0.0,0.0,0.0,0.0,0.0,0.0,0.0,0.0,0.0,0.0,0.0,0.0,0.0,0.0,0.0,0.0,0.0,0.0,0.0,0.0,0.0,0.0,0.0,0.0,0.0,0.0,0.0,0.0,0.0,0.0,0.0,0.0,0.0,0.0,0.0,0.0,0.0,0.0,0.0,0.0,0.0,0.0,0.0,0.0,0.0,0.0,0.0,0.0,0.0,0.0,0.0,0.0,0.0,0.0,0.0,0.0,0.0,0.0,0.0,0.0,0.0,0.0,0.0,0.0,0.0,0.0,0.0,0.0,0.0,0.0,0.0,0.0,0.0,0.0,0.0,0.0,0.0,0.0,0.0,0.0,0.0,0.0,0.0,0.0,0.0,0.0,0.0,0.0,0.0,0.0,0.0,0.0,0.0,0.0,0.0,0.0,0.0,0.0,0.0,0.0,0.0,0.0,0.0,0.0,0.0,0.0,0.0,0.0,0.0,0.0,0.0,0.0,0.0,0.0,0.0,0.0,0.0,0.0,0.0,0.0,0.0,0.0,0.0,0.0,0.0,0.0,0.0,0.0,0.0,0.0,0.0,0.0,0.0,0.0,0.0,0.0,0.0,0.0,0.0,0.0,0.0,0.0,0.0,0.0,0.0,0.0,0.0,0.0,0.0,0.0,0.0,0.0,0.0,0.0,0.0,0.0,0.0,0.0,0.0,0.0,0.0,0.0,0.0,0.0,0.0,0.0,0.0,0.0,0.0,0.0,0.0,0.0,0.0,0.0,0.0,0.0,0.0,0.0,0.0,0.0,0.0,0.0,0.0,0.0,0.0,0.0,0.0,0.0,0.0,0.0,0.0,0.0,0.0,0.0,0.0,0.0,0.0,0.0,0.0,0.0,0.0,0.0,0.0,0.0,0.0,0.0,0.0,0.0,0.0,0.0,0.0,0.0,0.0,0.0,0.0,0.0,0.0,0.0,0.0,0.0,0.0,0.0,0.0,0.0,0.0,0.0,0.0,0.0,0.0,0.0,0.0,0.0,0.0,0.0,0.0,0.0,0.0,0.0,0.0,0.0,0.0,0.0,0.0,0.0,0.0,0.0,0.0,0.0,0.0,0.0,0.0,0.0,0.0,0.0,0.0,0.0,0.0,0.0,0.0,0.0,0.0,0.0,0.0,0.0,0.0,0.0,0.0,0.0,0.0,0.0,0.0,0.0,0.0,0.0,0.0,0.0,0.0,0.0,0.0,0.0,0.0,0.0,0.0,0.0,0.0,0.0,0.0,0.0,0.0,0.0,0.0,0.0,0.0,0.0,0.0,0.0,0.0,0.0,0.0,0.0,0.0,0.0,0.0,0.0,0.0,0.0,0.0,0.0,0.0,0.0,0.0,0.0,0.0,0.0,0.0,0.0,0.0,0.0,0.0,0.0,0.0,0.0,0.0,0.0,0.0,0.0,0.0,0.0,0.0,0.0,0.0,0.0,0.0,0.0,0.0,0.0,0.0,0.0,0.0,0.0,0.0,0.0,0.0,0.0,0.0,0.0,0.0,0.0,0.0,0.0,0.0,0.0,0.0,0.0,0.0,0.0,0.0,0.0,0.0,0.0,0.0,0.0,0.0,0.0,0.0,0.0,0.0,0.0,0.0,0.0,0.0,0.0,0.0,0.0,0.0,0.0,0.0,0.0,0.0,0.0,0.0,0.0,0.0,0.0,0.0,0.0,0.0,0.0,0.0,0.0,0.0,0.0,0.0,0.0,0.0,0.0,0.0,0.0,0.0,0.0,0.0,0.0,0.0,0.0,0.0,0.0,0.0,0.0,0.0,0.0,0.0,0.0,0.0,0.0,0.0,0.0,0.0,0.0,0.0,0.0,0.0,0.0,0.0,0.0,0.0,0.0,0.0,0.0,0.0,0.0,0.0,0.0,0.0,0.0,0.0,0.0,0.0,0.0,0.0,0.0,0.0,0.0,0.0,0.0,0.0,0.0,0.0,0.0,0.0,0.0,0.0,0.0,0.0,0.0,0.0,0.0,0.0,0.0,0.0,0.0,0.0,0.0,0.0,0.0,0.0,0.0,0.0,0.0,0.0,0.0,0.0,0.0,0.0,0.0,0.0,0.0,0.0,0.0,0.0,0.0,0.0,0.0,0.0,0.0,0.0,0.0,0.0,0.0,0.0,0.0,0.0,0.0,0.0,0.0,0.0,0.0,0.0,0.0,0.0,0.0,0.0,0.0,0.0,0.0,0.0,0.0,0.0,0.0,0.0,0.0,0.0,0.0,0.0,0.0,0.0,0.0,0.0,0.0,0.0,0.0,0.0,0.0,0.0,0.0,0.0,0.0,0.0,0.0,0.0,0.0,0.0,0.0,0.0,0.0,0.0,0.0,0.0,0.0,0.0,0.0,0.0,0.0,0.0,0.0,0.0,0.0,0.0,0.0,0.0,0.0,0.0,0.0,0.0,0.0,0.0,0.0,0.0,0.0,0.0,0.0,0.0,0.0,0.0,0.0,0.0,0.0,0.0,0.0,0.0,0.0,0.0,0.0,0.0,0.0,0.0,0.0,0.0,0.0,0.0,0.0,0.0,0.0,0.0,0.0,0.0,0.0,0.0,0.0,0.0,0.0,0.0,0.0,0.0,0.0,0.0,0.0,0.0,0.0,0.0,0.0,0.0,0.0,0.0,0.0,0.0,0.0,0.0,0.0,0.0,0.0,0.0,0.0,0.0,0.0,0.0,0.0,0.0,0.0,0.0,0.0,0.0,0.0,0.0,0.0,0.0,0.0,0.0,0.0,0.0,0.0,0.0,0.0,0.0,0.0,0.0,0.0,0.0,0.0,0.0,0.0,0.0,0.0,0.0,0.0,0.0,0.0,0.0,0.0,0.0,0.0,0.0,0.0,0.0,0.0,0.0,0.0,0.0,0.0,0.0,0.0,0.0,0.0,0.0,0.0,0.0,0.0,0.0,0.0,0.0,0.0,0.0,0.0,0.0,0.0,0.0,0.0,0.0,0.0,0.0,0.0,0.0,0.0,0.0,0.0,0.0,0.0,0.0,0.0,0.0,0.0,0.0,0.0,0.0,0.0,0.0,0.0,0.0,0.0,0.0,0.0,0.0,0.0,0.0,0.0,0.0,0.0,0.0,0.0,0.0,0.0,0.0,0.0,0.0,0.0,0.0,0.0,0.0,0.0,0.0,0.0,0.0,0.0,0.0,0.0,0.0,0.0,0.0,0.0,0.0,0.0,0.0,0.0,0.0,0.0,0.0,0.0,0.0,0.0,0.0,0.0,0.0,0.0,0.0,0.0,0.0,0.0,0.0,0.0,0.0,0.0,0.0,0.0,0.0,0.0,0.0,0.0,0.0,0.0,0.0,0.0,0.0,0.0,0.0,0.0,0.0,0.0,0.0,0.0,0.0,0.0,0.0,0.0,0.0,0.0,0.0,0.0,0.0,0.0,0.0,0.0,0.0,0.0,0.0,0.0,0.0,0.0,0.0,0.0,0.0,0.0,0.0,0.0,0.0,0.0,0.0,0.0,0.0,0.0038,0.0038,0.0,0.0,0.0,0.0,0.0,0.0,0.0,0.0,0.0,0.0,0.0,0.0,0.0,0.0,0.0,0.0,0.0,0.0,0.0,0.0,0.0,0.0,0.0,0.0,0.0,0.0,0.0,0.0,0.0,0.0,0.0,0.0,0.0,0.0,0.0,0.0,0.0,0.0,0.0,0.0,0.0,0.0,0.0,0.0,0.0,0.0,0.0,0.0,0.0,0.0,0.0,0.0,0.0,0.0,0.0,0.0,0.0,0.0,0.0,0.0,0.0,0.0,0.0,0.0,0.0,0.0,0.0,0.0,0.0,0.0,0.0,0.0,0.0,0.0,0.0,0.0,0.0,0.0,0.0,0.0,0.0,0.0,0.0,0.0,0.0,0.0,0.0,0.0,0.0,0.0,0.0,0.0,0.0,0.0,0.0,0.0,0.0,0.0,0.0,0.0,0.0,0.0,0.0,0.0,0.0,0.0,0.0,0.0,0.0,0.0192,0.1273,0.1628,0.0155,0.0,0.0,0.0,0.0,0.0,0.0,0.0,0.0,0.0,0.0,0.0,0.0,0.0,0.0,0.0,0.0,0.0,0.0,0.0,0.0,0.0,0.0,0.0,0.0,0.0,0.0,0.0,0.0,0.0,0.0,0.0,0.0,0.0,0.0,0.0,0.0,0.0,0.0,0.0,0.0,0.0,0.0,0.0,0.0,0.0,0.0,0.0,0.0,0.0,0.0,0.0,0.0,0.0,0.0,0.0,0.0,0.0,0.0,0.0,0.0,0.0,0.0,0.0,0.0,0.0,0.0,0.0,0.0,0.0,0.0,0.0,0.0,0.0,0.0,0.0,0.0,0.0,0.0,0.0,0.0,0.0,0.0,0.0,0.0,0.0,0.0,0.0,0.0,0.0,0.0,0.0,0.0,0.0,0.0,0.0,0.0,0.0,0.0,0.0,0.0,0.0,0.0,0.0,0.0,0.0,0.0,0.0,0.0,0.0274,0.1105,0.1392,0.0119,0.0,0.0,0.0,0.0,0.0,0.0,0.0,0.0,0.0,0.0,0.0,0.0,0.0,0.0,0.0,0.0,0.0,0.0,0.0,0.0,0.0,0.0,0.0,0.0,0.0,0.0,0.0,0.0,0.0,0.0,0.0,0.0,0.0,0.0,0.0,0.0,0.0,0.0,0.0,0.0,0.0,0.0,0.0,0.0,0.0,0.0,0.0,0.0,0.0,0.0,0.0,0.0,0.0,0.0,0.0,0.0,0.0,0.0,0.0,0.0,0.0,0.0,0.0,0.0,0.0,0.0,0.0,0.0,0.0,0.0,0.0,0.0,0.0,0.0,0.0,0.0,0.0,0.0,0.0,0.0,0.0,0.0,0.0,0.0,0.0,0.0,0.0,0.0,0.0,0.0,0.0,0.0,0.0,0.0,0.0,0.0,0.0,0.0,0.0,0.0,0.0,0.0,0.0,0.0,0.0,0.0,0.0,0.0,0.056,0.0283,0.0203,0.0041,0.0,0.0,0.0,0.0,0.0,0.0,0.0,0.0,0.0,0.0,0.0,0.0,0.0,0.0,0.0,0.0,0.0,0.0,0.0,0.0,0.0,0.0,0.0,0.0,0.0,0.0,0.0,0.0,0.0,0.0,0.0,0.0,0.0,0.0,0.0,0.0,0.0,0.0,0.0,0.0,0.0,0.0,0.0,0.0,0.0,0.0,0.0,0.0,0.0,0.0,0.0,0.0,0.0,0.0,0.0,0.0,0.0,0.0,0.0,0.0,0.0,0.0,0.0,0.0,0.0,0.0,1.1679,1.1346,0.0,0.0,0.0,0.0,0.0,0.0,0.0,0.0,0.0,0.0,0.0,0.0,0.0,0.0,0.0,0.0,0.0,0.0,0.0,0.0,0.0,0.0,0.0,0.0,0.0,0.0,0.0,0.0,0.0,0.0,0.0,0.0,0.0,0.0,0.0,0.0,0.0,0.0,0.0,0.0,0.2869,0.2512,0.1827,0.0163,0.0,0.0,0.0,0.0,0.0,0.0,0.0,0.0,0.0,0.0,0.0,0.0,0.0,0.0,0.0,0.0,0.0,0.0,0.0,0.0,0.0,0.0,0.0,0.0,0.0,0.0,0.0,0.0,0.0,0.0,0.0,0.0,0.0,0.0,0.0,0.0,0.0,0.0,0.0,0.0,0.0,0.0,0.0,0.0,0.0,0.0,0.0,0.0,0.0,0.0,0.0,0.0,0.0,0.0,0.0,0.0,0.0,0.0,0.0,0.0,0.0,0.0,0.0,0.0,0.0,0.0,1.2453,1.1822,0.0,0.0,0.0,0.0,0.0,0.0,0.0,0.0,0.0,0.0,0.0,0.0,0.0,0.0,0.0,0.0,0.0,0.0,0.0,0.0,0.0,0.0,0.0,0.0,0.0,0.0,0.0,0.0,0.0,0.0,0.0,0.0,0.0,0.0,0.0,0.0,0.0,0.0,0.0,0.0,0.3721,0.4188,0.4409,0.334,0.2271,0.1652,0.1652,0.062,0.0455,0.157,0.1652,0.0,0.0,0.0,0.0,0.0,0.0,0.0,0.0,0.0,0.0,0.0,0.0,0.0,0.0,0.0,0.0,0.0,0.0,0.0,0.0,0.0,0.0,0.0,0.0,0.0,0.0,0.0,0.0,0.0,0.0,0.0,0.0,0.0,0.0,0.0,0.0,0.0,0.0,0.0,0.0,0.0,0.0,0.0,0.0,0.0,0.0,0.0,0.0,0.0,0.0,0.0,0.0,0.0,1.2446,1.2938,1.2028,1.3353,1.3822,1.3578,1.2334,1.1623,1.1276,1.1388,0.0,0.0,0.0,0.0,0.0,0.0,0.0,0.0,0.0,0.0,0.0,0.0,0.0,0.0,0.0,0.0,0.0,0.0,0.0,0.0,0.0,0.0,1.3132,1.3349,1.3403,1.3336,1.3132,0.0,0.0,0.0,0.0,0.0,0.0,0.0,0.0,0.0,0.0,0.0,0.4961,0.579,0.67,0.67,0.5072,0.3985,0.3985,0.2268,0.1974,0.386,0.3985,0.4779,0.0,0.0,0.0,0.0,0.0,0.0,0.0,0.0,0.0,0.0,0.0,0.0,0.0,0.0,0.0,0.0,0.0,0.0,0.0,0.0,0.0,0.0,0.0,0.0,0.0,0.0,0.0,0.0,0.0,0.0,0.0,0.0,1.2126,1.1637,0.0,0.0,0.0,0.0,0.0,0.0,0.0,0.0,0.0,0.0,0.0,0.0,0.0,1.1908,1.303,1.3624,1.3817,1.3685,1.4222,1.4401,1.426,1.45,1.4552,1.4518,1.4343,0.0,1.3254,1.3684,0.0,0.0,0.0,0.0,0.0,0.0,0.0,0.0,0.0,0.0,0.0,0.0,0.0,0.0,0.0,0.0,0.0,0.0,0.0,0.0,0.0,0.0,1.3519,1.3424,1.3403,1.339,1.3349,1.3342,1.3342,1.3342,1.3342,1.3342,0.0,0.0,0.0,0.0,0.0,0.0,0.9271,0.774,0.67,0.67,0.6449,0.6285,0.6285,0.599,0.5951,0.6241,0.6285,0.6411,0.67,0.6411,0.0,0.0,0.0,0.0,0.0,0.0,0.0,0.0,0.0,0.0,0.0,0.0,0.0,0.0,0.0,0.0,0.0,0.0,0.0,0.0,0.0,0.0,0.0,0.0,0.0,0.0,0.0,0.0,0.0,1.2372,1.2467,1.2139,1.2325,1.2393,0.0,0.0,0.0,0.0,0.0,0.0,0.0,0.0,0.0,1.3118,1.3167,1.3493,1.4207,1.4403,1.4505,1.455,1.4633,1.4694,1.4694,1.4694,1.4741,1.4869,1.4869,1.4733,1.4496,1.436,1.4082,1.3707,0.0,0.0,0.0,0.0,1.3458,1.3492,1.3722,1.3804,1.3838,1.4034,0.0,0.0,0.0,0.0,0.0,0.0,0.0,1.341,1.3444,1.3497,1.3593,1.3437,1.3403,1.3403,1.3403,1.3403,1.3403,1.3403,1.3403,1.3403,1.3403,1.3403,0.0,0.0,0.0,1.1469,1.0211,1.0294,1.0466,1.0466,0.9332,0.8582,0.8624,0.7455,0.7243,0.8457,0.8582,0.9165,1.0424,0.9249,0.9207,0.0,0.0,0.0,0.0,0.0,0.0,0.0,0.0,0.0,0.0,0.0,0.0,0.0,0.0,0.0,0.0,0.0,0.0,0.0,0.0,0.0,0.0,0.0,0.0,0.0,0.0,0.0,0.0,1.2528,1.2664,1.237,1.2549,1.2691,0.0,0.0,0.0,0.0,0.0,0.0,1.3964,1.4004,1.4146,1.4462,1.4468,1.4577,1.4748,1.4789,1.4809,1.4809,1.4809,1.4829,1.4863,1.4863,1.4997,1.514,1.514,1.5201,1.5262,1.474,1.4367,1.4129,1.4129,1.4058,1.4018,1.3944,1.3916,1.395,1.4265,1.4353,1.4373,1.4489,1.4475,1.4401,1.4326,0.0,0.0,0.0,0.0,1.3878,1.3944,1.3916,1.3822,1.3675,1.3573,1.3512,1.3512,1.3512,1.3492,1.3417,1.3403,1.3403,1.3403,1.3403,0.0,1.1178,1.2353,1.2768,1.1089,1.2347,1.3403,1.3403,1.189,1.0882,1.0923,0.9378,0.9124,1.0757,1.0923,1.1677,1.3321,1.1807,1.1718,1.3355,0.0,0.0,0.0,0.0,0.0,0.0,0.0,0.0,0.0,0.0,0.0,0.0,0.0,0.0,0.0,0.0,0.0,0.0,0.0,0.0,0.0,0.0,0.0,0.0,0.0,0.0,0.0,0.0,0.0,1.3009,1.3173,0.0,0.0,0.0,0.0,1.3734,1.4089,1.4326,1.4468,1.4572,1.4767,1.4976,1.4936,1.4989,1.4957,1.5092,1.516,1.516,1.516,1.5235,1.5377,1.5377,1.5459,1.556,1.556,1.556,1.5546,1.5269,1.5052,1.4962,1.4962,1.4821,1.4613,1.438,1.4278,1.4299,1.4448,1.4502,1.457,1.4997,1.495,1.4701,1.4882,1.4713,0.0,0.0,1.4767,1.4997,1.4584,1.4532,1.4566,1.4326,1.4034,1.3774,1.3774,1.3774,1.3693,1.3458,1.3403,1.3403,1.3403,0.0,1.3355,1.3231,1.3321,1.3355,1.3231,1.3321,1.3403,1.3403,1.3314,1.3231,1.3231,1.3148,1.3106,1.3231,1.3231,1.3272,1.3403,1.3272,1.3272,1.3403,1.3272,0.0,0.0,0.0,0.0,0.0,0.0,0.0,0.0,0.0,0.0,0.0,0.0,0.0,0.0,0.0,0.0,0.0,0.0,0.0,0.0,0.0,0.0,0.0,0.0,0.0,0.0,0.0,0.0,1.3275,1.3682,0.0,1.366,1.381,1.4,1.4207,1.4557,1.4794,1.4936,1.4997,1.5092,1.5248,1.5255,1.5303,1.5398,1.5452,1.5479,1.5479,1.5479,1.5458,1.5512,1.5512,1.5539,1.5593,1.5593,1.5593,1.558,1.552,1.5445,1.5404,1.5404,1.5323,1.5255,1.5154,1.516,1.512,1.5174,1.5188,1.5215,1.5377,1.5357,1.5228,1.5038,1.4942,1.4808,1.4808,1.4923,1.5031,1.4964,1.4841,1.462,1.4373,1.4025,1.3795,1.3795,1.3795,1.3768,1.366,1.3639,1.3639,1.3639,1.3607,1.3546,1.3546,1.3464,1.3403,1.3403,1.3403,1.3403,1.3403,1.3403,1.3403,1.3403,1.3403,1.3403,1.3403,1.3403,1.3403,1.3403,1.3403,1.3403,1.3403,1.3403,1.3403,0.0,0.0,0.0,0.0,0.0,0.0,0.0,0.0,0.0,0.0,0.0,0.0,0.0,0.0,0.0,0.0,0.0,0.0,0.0,0.0,0.0,0.0,0.0,0.0,0.0,1.3463,1.3817,1.3715,1.4055,1.4278,1.4224,1.4312,1.4496,1.4794,1.5004,1.5181,1.533,1.5337,1.5384,1.5438,1.5486,1.5492,1.5587,1.5593,1.5593,1.5593,1.5593,1.5662,1.571,1.571,1.5744,1.5791,1.5791,1.5791,1.5791,1.5791,1.5791,1.5778,1.5627,1.5593,1.5593,1.5593,1.5593,1.5593,1.5593,1.5593,1.5593,1.5593,1.5593,1.5546,1.5343,1.5316,1.533,1.5377,1.5343,1.5371,1.5459,1.5187,1.4841,1.4645,1.4292,1.395,1.395,1.395,1.395,1.395,1.3869,1.3795,1.3795,1.372,1.366,1.366,1.3572,1.3546,1.3546,1.3546,1.3546,1.3546,1.3546,1.3546,1.3546,1.3546,1.3546,1.3546,1.3546,1.3546,1.3546,1.3546,1.3526,1.3478,1.3478,1.3498,1.3546,0.0,0.0,0.0,0.0,0.0,0.0,0.0,0.0,0.0,0.0,0.0,0.0,0.0,0.0,0.0,0.0,0.0,0.0,0.0,0.0,0.0,0.0,0.0,1.3619,1.4027,1.4312,1.4319,1.4326,1.4509,1.495,1.4719,1.4787,1.5371,1.5418,1.5486,1.558,1.5593,1.5593,1.56,1.56,1.56,1.5607,1.5607,1.5607,1.5607,1.5607,1.573,1.5915,1.5922,1.6003,1.6096,1.6096,1.6096,1.6096,1.6096,1.6096,1.6062,1.5771,1.5607,1.5607,1.5607,1.5607,1.5607,1.5607,1.5607,1.5607,1.5607,1.5614,1.5641,1.5881,1.5922,1.5956,1.6105,1.6096,1.6096,1.6096,1.5642,1.5187,1.5187,1.4733,1.4299,1.4299,1.4299,1.4299,1.4299,1.4061,1.3815,1.3815,1.3808,1.3802,1.3802,1.3802,0.0,1.3795,1.3795,1.3795,1.3795,1.3795,1.3795,1.3795,1.3795,1.3795,1.3795,1.3795,1.3795,1.3795,1.3795,1.3734,1.3599,1.3592,1.366,1.3795,0.0,0.0,0.0,0.0,0.0,0.0,0.0,0.0,0.0,0.0,0.0,0.0,0.0,0.0,0.0,0.0,0.0,0.0,0.0,0.0,0.0,1.4086,1.4322,1.4,1.4238,1.4536,1.476,1.4977,1.5194,1.5432,1.533,1.535,1.5512,1.5526,1.5546,1.5587,1.5593,1.5689,1.5791,1.584,1.5845,1.5961,1.5961,1.5961,1.5961,1.6069,1.6144,1.6185,1.6293,1.6361,1.6402,1.6402,1.6402,1.6402,1.6402,1.6402,1.6374,1.6076,1.5961,1.5961,1.5961,1.5961,1.5961,1.5961,1.5961,1.5981,1.609,1.6123,1.6151,1.6293,1.6341,1.6347,1.6388,1.6402,1.6402,1.6402,1.5879,1.535,1.535,1.4814,1.4299,1.4299,1.4299,1.4299,1.4299,1.4231,1.4177,1.4177,1.4082,1.4007,1.4007,1.3869,1.3795,1.3795,1.3795,1.3795,1.3795,1.3795,1.3795,1.3795,1.3795,1.3795,1.3795,1.3795,1.3795,1.3795,1.3795,1.3781,1.3741,1.3741,1.3761,0.0,0.0,0.0,0.0,0.0,0.0,0.0,0.0,0.0,0.0,0.0,0.0,0.0,0.0,0.0,0.0,0.0,0.0,0.0,0.0,0.0,0.0,1.4681,1.4978,1.4767,1.4875,1.5052,1.5228,1.5404,1.5492,1.558,1.5593,1.5614,1.5723,1.573,1.5757,1.5818,1.5825,1.5893,1.6042,1.6092,1.6117,1.6266,1.6266,1.6266,1.6266,1.6354,1.6395,1.6402,1.6483,1.6524,1.6524,1.6524,1.6524,1.6524,1.6524,1.6524,1.6503,0.0,0.0,0.0,0.0,1.6266,1.6266,1.6266,1.6266,1.6279,1.6368,1.6395,1.6415,1.6497,1.6524,1.6524,1.6524,1.6524,1.6524,1.6524,1.5965,1.5458,1.5458,1.4938,1.4482,1.4482,1.4482,1.4482,1.4482,1.4482,0.0,1.4482,1.4306,1.4163,1.4163,1.4089,1.3991,1.3991,1.3991,1.3991,1.3991,1.3991,1.3991,1.3991,1.3991,0.0,0.0,0.0,1.3991,1.3991,1.3973,0.0,0.0,0.0,1.3966,1.3991,1.3991,0.0,0.0,1.3856,1.3795,0.0,0.0,0.0,0.0,0.0,0.0,0.0,0.0,0.0,0.0,0.0,0.0,0.0,0.0,0.0,0.0,1.5235,1.5621,1.5641,1.5641,1.5634,1.5621,1.5614,1.5621,1.5641,1.5641,1.575,1.5942,1.5956,1.6017,1.6123,1.613,0.0,0.0,0.0,1.6395,1.6517,1.6524,1.6524,1.6524,1.6537,1.6493,1.6493,1.6564,1.6571,1.6571,1.6571,1.6571,1.6571,1.6571,1.6571,1.6571,1.6537,1.6524,1.6524,1.6524,1.6524,1.6524,1.6524,0.0,0.0,1.6537,1.6493,1.6551,1.6564,1.6571,1.6571,1.6571,1.6571,1.6571,1.6571,1.6094,1.5668,1.5668,1.5195,1.4741,1.4741,1.4714,1.4694,1.4694,1.4694,1.4694,1.4694,1.4478,1.4346,1.4346,1.4346,1.4346,1.4346,1.4346,1.4346,1.4346,1.4346,0.0,1.4346,1.4346,1.4346,1.4346,1.4346,1.4346,1.4346,1.4217,1.4211,1.4346,1.4217,1.4217,1.4346,1.4346,1.4346,1.434,1.3991,1.3849,0.0,0.0,0.0,0.0,0.0,0.0,0.0,0.0,0.0,0.0,0.0,0.0,0.0,0.0,0.0,1.5072,1.5499,1.5901,1.5981,1.5995,1.5954,1.5825,1.586,1.5859,1.5981,1.5995,1.6056,1.6212,1.6225,1.6286,1.6429,1.6435,1.6449,1.6476,1.6483,1.649,1.6524,1.6524,1.6524,1.6524,1.6594,0.0,1.6655,1.6836,1.689,1.689,1.689,1.689,1.689,1.689,1.689,1.687,1.6619,1.6524,1.6524,1.6524,1.6524,1.6524,1.6524,1.6524,1.6544,1.6615,1.6655,1.6675,1.6856,1.689,0.0,1.689,1.689,1.689,1.689,1.6537,1.6178,1.6178,1.5628,1.5099,1.5099,1.4909,1.4694,1.4694,1.4694,1.4694,1.4694,1.4647,1.4613,1.4613,1.4613,1.4613,1.4613,1.4613,1.4613,1.4613,1.4613,1.4613,1.4613,1.4613,1.4613,1.4613,1.4613,1.4613,1.4613,1.4579,1.4579,1.4606,1.4579,1.4579,1.4613,1.4613,1.4613,1.4606,1.4346,1.4211,0.0,0.0,0.0,0.0,0.0,0.0,0.0,0.0,0.0,0.0,0.0,1.4543,1.4618,0.0,1.5262,1.5527,1.5881,1.611,1.6185,1.6259,1.6246,1.6096,1.6083,1.6137,1.6286,1.63,1.6334,1.6408,1.6415,1.6449,1.6517,1.6524,1.6506,1.6581,1.6581,1.6673,1.6754,1.6754,1.6754,1.6754,1.6829,1.6863,1.687,1.6944,1.7019,1.7087,1.7087,1.7127,1.7202,1.7202,1.7202,1.7182,1.7032,1.6883,1.6754,1.6754,1.6754,1.6754,1.6754,1.6754,1.6761,1.6842,1.6863,1.6876,1.6958,1.6978,1.6978,1.6978,1.6978,1.6978,1.6978,1.67,1.6415,1.6415,1.59,1.5411,1.5411,1.5174,1.4984,1.5059,1.5025,1.5053,1.5127,1.514,1.5039,1.4741,1.4694,1.4694,1.4694,1.4694,1.4694,1.4694,1.4694,1.4694,1.4694,1.4694,1.4694,1.4694,1.4694,1.4694,1.4694,1.4694,1.4694,1.4694,1.4694,1.4694,1.4694,1.4694,1.4694,1.4687,1.4545,1.4523,0.0,0.0,0.0,0.0,0.0,0.0,0.0,1.4211,1.4455,1.4394,1.4599,1.495,1.5221,1.5398,1.5594,1.5942,1.6171,1.6347,1.6347,1.6449,1.649,1.6402,1.6368,1.6395,1.651,1.6524,1.653,1.6564,1.6564,1.6578,1.6612,1.6612,1.6666,1.6736,1.6743,1.687,1.7019,1.7019,1.7039,1.7066,1.7066,1.7066,1.7066,1.7066,1.7127,1.7236,1.7236,1.7304,1.7419,1.7419,1.7419,1.7419,1.7419,1.7277,1.7066,1.7066,1.7066,1.7066,1.7066,1.7066,1.7066,1.7066,1.7066,1.7066,1.7066,1.7066,1.7066,1.7066,1.7066,1.7066,1.7066,1.6883,1.668,1.6625,1.6198,1.5742,1.5688,1.5486,1.5309,1.5432,1.5452,1.5445,1.5566,1.5593,1.5424,1.4944,1.487,1.487,1.487,1.487,1.487,1.487,1.487,1.487,1.487,1.487,1.487,1.487,1.487,1.487,1.487,1.487,1.487,1.487,1.487,1.487,1.487,1.487,1.487,1.487,1.487,1.4802,1.2821,1.3024,1.339,1.3559,1.3905,1.4211,0.0,1.4679,1.5011,1.4701,1.4985,1.5384,1.5506,1.5703,1.5956,1.6212,1.6395,1.6497,1.6497,1.651,1.6564,1.6635,1.6527,1.6503,1.6517,1.6524,1.6527,1.6662,1.6669,1.6781,1.6924,1.6931,1.6937,1.6951,1.6951,1.7026,1.7168,1.7168,1.7236,1.7372,1.7372,1.7372,1.7372,1.7372,1.7378,1.7392,1.7392,1.7405,1.7419,1.7419,1.7419,1.7419,1.7419,1.7399,1.7372,1.7372,1.7372,1.7372,1.7372,1.7372,1.7372,1.7372,1.7372,1.7372,1.7372,1.7372,1.7372,1.7372,1.7372,1.7372,1.7372,1.7344,1.7256,1.6992,1.6673,1.6347,1.609,1.5798,1.5546,1.556,1.5566,1.5573,1.5587,1.5593,1.5566,1.5499,1.5492,1.5492,1.5492,1.5492,1.5492,1.5492,1.5492,1.5492,1.5492,1.5492,1.5492,1.5492,1.5492,1.5492,1.5492,1.5492,1.5492,1.5492,1.5492,1.5492,1.5492,1.5492,1.5492,1.5492,1.5492,1.5201,1.3532,1.358,1.3797,1.4387,1.4611,1.4733,1.4909,1.514,1.5303,1.5222,1.5479,1.5744,1.5988,1.6076,1.6185,1.6395,1.6506,1.6601,1.6601,1.6734,1.6815,1.6876,1.6829,1.6788,1.6788,1.6788,1.6815,1.6876,1.6883,1.6951,1.7093,1.7107,1.7148,1.7236,1.7236,1.7263,1.7324,1.7324,1.7358,1.7419,1.7419,1.7419,1.7419,1.7419,1.7412,1.75,1.765,1.7684,1.7684,1.7684,1.7684,1.7684,1.7684,1.7684,1.765,1.7487,1.7419,1.7419,1.7419,1.7419,1.7419,1.7419,1.7419,1.7419,1.7419,1.7419,1.7419,1.7419,1.7419,1.7419,1.7419,1.7419,1.7344,1.7053,1.6748,1.6442,1.6144,1.5845,1.5614,1.575,1.5764,1.5791,1.5879,1.5893,1.5893,1.5893,1.5702,1.5593,1.5593,1.5593,1.5593,1.5593,1.5593,1.5593,1.5593,1.5593,1.5593,1.5593,1.5593,1.5593,1.5593,1.5593,1.5593,1.5593,1.5593,1.5593,1.5593,1.5593,1.5593,1.5593,1.5593,1.5458,1.3994,1.4109,1.4326,1.5065,1.5201,1.5235,1.5527,1.556,1.5567,1.5676,1.5778,1.5969,1.6144,1.6252,1.6354,1.6497,1.6686,1.6763,1.6763,1.691,1.6978,1.6978,1.7019,1.7039,1.7039,1.7039,1.706,1.71,1.71,1.7148,1.7249,1.7256,1.7304,1.7419,1.7419,1.7439,1.7433,1.7487,1.75,1.7541,1.7541,1.7541,1.7541,1.7541,1.7602,1.7663,1.7868,1.7915,1.7915,1.7915,1.7915,1.7915,1.7915,1.7915,1.7846,1.7623,1.7541,1.7541,1.7541,1.7541,1.7541,1.7541,1.7541,1.7541,1.7541,1.7541,1.7541,1.7541,1.7541,1.7541,1.7541,1.7541,1.7446,1.7073,1.6809,1.6544,1.6164,1.5913,1.5791,1.5949,1.5969,1.6003,1.6062,1.6083,1.6083,1.6083,1.59,1.5764,1.5764,1.5764,1.5764,1.5764,1.5764,1.5764,1.5764,1.5764,1.5764,1.5764,1.5764,1.5764,1.5764,1.5764,1.5764,1.5764,1.5764,1.5764,1.5764,1.5764,1.5764,1.5764,1.5764,1.5764,1.3994,1.454,1.5011,1.5323,1.5513,1.5648,1.5995,1.5996,1.5888,1.5894,1.5901,1.5908,1.5915,1.611,1.6354,1.6497,1.6775,1.6971,1.6971,1.6978,1.6978,1.6978,1.71,1.7182,1.7182,1.7182,1.7249,1.7399,1.7405,1.7405,1.7412,1.7412,1.7412,1.7419,1.7419,1.744,1.7595,1.7595,1.7663,1.7902,1.7902,1.7902,1.7902,1.7902,1.7902,1.786,1.7915,1.7915,1.7915,1.7915,1.7915,1.7915,1.7915,1.7915,1.7915,1.7902,1.7902,1.7902,1.7902,1.7902,1.7902,1.7902,1.7902,1.7902,1.7902,1.7902,1.7902,1.7902,1.7902,1.7902,1.7902,1.7902,1.7759,1.7121,1.6971,1.6802,1.6212,1.6076,1.6069,1.6076,1.6076,1.6076,1.6083,1.6083,1.6083,1.6083,1.6076,1.6069,1.6069,1.6069,1.6069,1.6069,1.6069,1.6069,1.6069,1.6069,1.6069,1.6069,1.6069,1.6069,1.6069,1.6069,1.6069,1.6069,1.6069,1.6069,1.6069,1.6069,1.6069,1.6069,1.6069,1.6069,1.4645,1.5031,1.5357,1.5757,1.5818,1.5805,1.5956,1.5818,1.5737,1.5881,1.5696,1.5622,1.5867,1.6071,1.6205,1.6361,1.672,1.6978,1.6978,1.706,1.7121,1.7121,1.7256,1.7385,1.7487,1.7405,1.7365,1.7419,1.7419,1.7467,1.7514,1.7514,1.7616,1.7704,1.7724,1.7738,1.7792,1.7792,1.7812,1.7915,1.7915,1.7915,1.7915,1.7915,1.7915,1.7915,1.7915,1.7915,1.7915,1.7915,1.7915,1.7915,1.7915,1.7915,1.7915,1.7915,1.7915,1.7915,1.7915,1.7915,1.7915,1.7915,1.7915,1.7915,1.7915,1.7915,1.7915,1.7915,1.7915,1.7915,1.7915,1.7915,1.7813,1.7365,1.7121,1.687,1.6463,1.6218,1.6083,1.6083,1.6083,1.6083,1.6083,1.6083,1.6083,1.6083,1.6083,1.6083,1.6083,1.6083,1.6083,1.6083,1.6083,1.6083,1.6083,1.6083,1.6083,1.6083,1.6083,1.6083,1.6083,1.6083,1.6083,1.6083,1.6083,1.6083,1.6083,1.6083,1.6083,1.6083,1.6083,1.6083,1.5106,1.5411,1.5649,1.5995,1.6017,1.5915,1.5969,1.5818,1.5757,1.5956,1.5696,1.5567,1.586,1.5893,1.6008,1.6266,1.6598,1.687,1.7032,1.7134,1.7216,1.727,1.7405,1.7487,1.7575,1.7609,1.7575,1.7575,1.7575,1.7623,1.7717,1.7717,1.7772,1.7915,1.7915,1.7915,1.7915,1.7915,1.7915,1.7915,1.7915,1.7915,1.7915,1.7915,1.7915,1.7915,1.7915,1.7915,1.7915,1.7915,1.7915,1.7915,1.7915,1.7915,1.7915,1.7915,1.7915,1.7915,1.7915,1.7915,1.7915,1.7915,1.7915,1.7915,1.7915,1.7915,1.7915,1.7915,1.7915,1.7915,1.7915,1.7915,1.7847,1.7494,1.7195,1.6897,1.6592,1.6286,1.6083,1.6083,1.6083,1.6083,1.6083,1.6083,1.6083,1.6083,1.6083,1.6083,1.6083,1.6083,1.6083,1.6083,1.6083,1.6083,1.6083,1.6083,1.6083,1.6083,1.6083,1.6083,1.6083,1.6083,1.6083,1.6083,1.6083,1.6083,1.6083,1.6083,1.6083,1.6083,1.6083,1.6083,1.5398,1.569,1.5949,1.6092,1.603,1.5962,1.6062,1.6037,1.5976,1.6076,1.5859,1.5634,1.5888,1.575,1.5749,1.6246,1.6456,1.6707,1.7141,1.7209,1.727,1.7412,1.7514,1.7609,1.7609,1.7792,1.7915,1.7915,1.7915,1.7915,1.7915,1.7915,1.7915,1.7915,1.7915,1.7915,1.7915,1.7915,1.7915,1.7915,1.7915,1.7915,1.7915,1.7915,1.7915,1.7915,1.7915,1.7915,1.7915,1.7915,1.7915,1.7915,1.7915,1.7915,1.7915,1.7915,1.7915,1.7915,1.7936,1.7915,1.7915,1.7915,1.7915,1.7915,1.7915,1.7915,1.7915,1.7915,1.7915,1.7915,1.7915,1.7915,1.7847,1.7514,1.7209,1.6904,1.6605,1.63,1.6083,1.6083,1.609,1.6096,1.6103,1.6103,1.6103,1.6103,1.6103,1.6096,1.6083,1.6083,1.6083,1.6083,1.609,1.6096,1.6096,1.6096,1.6103,1.6103,1.6096,1.6096,1.6096,1.6083,1.6083,1.6083,1.6083,1.6083,1.6083,1.6083,1.6083,1.6083,1.6083,1.6083,1.672,1.6468,1.6128,1.6616,1.6436,1.6205,1.6246,1.63,1.6361,1.6402,1.5952,1.5668,1.5974,1.5949,1.5947,1.6395,1.6781,1.71,1.7331,1.746,1.7494,1.7534,1.7717,1.7812,1.7812,1.7846,1.7915,1.7915,1.7915,1.7915,1.7915,1.7915,1.7915,1.7915,1.7915,1.7915,1.7915,1.7915,1.7915,1.7915,1.7915,1.7915,1.7915,1.7915,1.7915,1.7915,1.7915,1.7915,1.7915,1.7915,1.7915,1.7915,1.7915,1.7915,1.7915,1.7915,1.7915,1.7936,1.7989,1.8004,1.7915,1.7915,1.7915,1.7915,1.7915,1.7915,1.7915,1.7915,1.7915,1.7915,1.7915,1.7915,1.7902,1.7772,1.7358,1.6958,1.6883,1.6449,1.6083,1.6083,1.6171,1.6286,1.6388,1.6408,1.6408,1.6408,1.6408,1.6327,1.611,1.6083,1.6083,1.6083,1.6185,1.6252,1.6252,1.6347,1.6408,1.6408,1.6307,1.6252,1.6252,1.6144,1.6083,1.6083,1.6083,1.6083,1.6083,1.6083,1.6083,1.6083,1.6083,1.6083,1.76,1.7214,1.6732,1.7027,1.6745,1.6368,1.6239,1.6273,1.6343,1.6457,1.591,1.5602,1.6208,1.6006,1.5947,1.6479,1.689,1.7195,1.7426,1.7541,1.7615,1.7738,1.7812,1.7915,1.7915,1.7915,1.7915,1.7915,1.7915,1.7915,1.7915,1.7915,1.7915,1.7915,1.7915,1.7915,1.7915,1.7915,1.7915,1.7915,1.7915,1.7915,1.7915,1.7915,1.7915,1.7915,1.7915,1.7956,1.7968,1.7968,1.8002,1.8057,1.8057,1.8057,1.8057,1.8057,1.8057,1.8077,1.8158,1.8145,1.8057,1.8057,1.8057,1.8057,1.8057,1.8057,1.8057,1.8057,1.8057,1.8057,1.8057,1.8057,1.8057,1.8057,1.7609,1.7209,1.7338,1.6795,1.6273,1.6273,1.6341,1.6429,1.651,1.6524,1.6524,1.6524,1.6524,1.6463,1.6293,1.6273,1.6273,1.6273,1.6347,1.6402,1.6402,1.6476,1.6524,1.6524,1.6449,1.6402,1.6402,1.632,1.6273,1.6273,1.6273,1.6273,1.6273,1.6273,1.6273,1.6273,1.6273,1.6273,1.8336,1.7953,1.7501,1.7603,1.7188,1.6653,1.6321,1.6259,1.6326,1.6425,1.5882,1.5622,1.6545,1.6154,1.5898,1.6662,1.6951,1.7188,1.7561,1.7629,1.7717,1.7902,1.7915,1.7915,1.7915,1.7915,1.7915,1.7915,1.7915,1.7915,1.7915,1.7915,1.7915,1.7915,1.7915,1.7915,1.7915,1.7915,1.7915,1.7915,1.7915,1.7915,1.7915,1.7915,1.7936,1.7956,1.7956,1.7989,1.8124,1.8124,1.8199,1.8321,1.8321,1.8321,1.8321,1.8321,1.8321,1.8321,1.8335,1.8355,1.8335,1.8321,1.8321,1.8321,1.8321,1.8321,1.8321,1.8321,1.8321,1.8321,1.8321,1.8321,1.8321,1.8321,1.7894,1.7548,1.7868,1.7188,1.6578,1.6558,1.6551,1.6558,1.6578,1.6585,1.6585,1.6585,1.6585,1.6585,1.6585,1.6544,1.6524,1.6524,1.6537,1.6551,1.6551,1.6571,1.6585,1.6585,1.6564,1.6551,1.6551,1.653,1.6524,1.6524,1.6524,1.6524,1.6524,1.6524,1.6524,1.6524,1.6524,1.6524,1.9413,1.8818,1.8157,1.8615,1.8309,1.7749,1.7056,1.7221,1.7364,1.6821,1.6439,1.6411,1.7063,1.6542,1.6286,1.7161,1.7324,1.7453,1.7772,1.7826,1.7881,1.7915,1.7915,1.7915,1.7915,1.7915,1.7915,1.7915,1.7915,1.7915,1.7915,1.7915,1.7915,1.7915,1.7915,1.7915,1.7915,1.7915,1.7915,1.7915,1.7915,1.7915,1.7915,1.7915,1.7935,1.8057,1.8057,1.8145,1.8287,1.8287,1.8301,1.8321,1.8321,1.8321,1.8321,1.8321,1.8321,1.8335,1.8407,1.8498,1.8477,1.8355,1.8321,1.8321,1.8321,1.8321,1.8321,1.8321,1.8321,1.8321,1.8321,1.8321,1.8321,1.8321,1.8036,1.7847,1.7902,1.7358,1.6863,1.6682,1.6655,1.6696,1.6876,1.6904,1.6904,1.6904,1.6904,1.6904,1.6904,1.668,1.6524,1.6524,1.6581,1.6655,1.6655,1.6829,1.6904,1.6904,1.6781,1.6655,1.6655,1.6533,1.6524,1.6524,1.6524,1.6524,1.6524,1.6524,1.6524,1.6524,1.6524,1.6524,1.996,1.9502,1.8911,1.9076,1.8549,1.777,1.7028,1.6878,1.6821,1.6417,1.6027,1.6014,1.6722,1.6355,1.6157,1.6748,1.6919,1.7175,1.7473,1.7582,1.7684,1.7902,1.7915,1.7915,1.7915,1.7915,1.7915,1.7915,1.7915,1.7915,1.7915,1.7915,1.7915,1.7915,1.7915,1.7915,1.7915,1.7915,1.7915,1.7915,1.7915,1.7956,1.7989,1.7989,1.8077,1.8213,1.8213,1.8301,1.8423,1.8423,1.8477,1.8552,1.8552,1.8552,1.8552,1.8552,1.8552,1.8565,1.862,1.8654,1.864,1.8565,1.8552,1.8552,1.8552,1.8552,1.8552,1.8552,1.8552,1.8552,1.8552,1.8552,1.8552,1.8552,1.8443,1.8255,1.7738,1.7534,1.7324,1.6944,1.687,1.6897,1.6971,1.6978,1.6978,1.6978,1.6978,1.6978,1.6978,1.6849,1.6761,1.6761,1.6829,1.687,1.687,1.6937,1.6978,1.6978,1.691,1.687,1.687,1.6802,1.6761,1.6761,1.6761,1.6761,1.6761,1.6761,1.6761,1.6761,1.6761,1.6761,2.0158,1.9927,1.9516,1.9453,1.8759,1.7894,1.7189,1.6757,1.6461,1.6248,1.596,1.5925,1.6592,1.6432,1.6299,1.6561,1.6837,1.7075,1.7307,1.7485,1.7636,1.7881,1.7915,1.7915,1.7915,1.7915,1.7915,1.7915,1.7915,1.7915,1.7915,1.7915,1.7915,1.7915,1.7915,1.7915,1.7915,1.7915,1.7936,1.7914,1.7914,1.7989,1.8145,1.8145,1.8213,1.8319,1.8319,1.8443,1.8586,1.8586,1.8654,1.882,1.882,1.882,1.882,1.882,1.882,1.882,1.882,1.882,1.882,1.882,1.882,1.882,1.882,1.882,1.882,1.882,1.882,1.882,1.882,1.882,1.882,1.882,1.882,1.8531,1.7704,1.7704,1.7738,1.7093,1.6978,1.6978,1.6978,1.6978,1.6978,1.6978,1.6978,1.6978,1.6978,1.6978,1.6978,1.6978,1.6978,1.6978,1.6978,1.6978,1.6978,1.6978,1.6978,1.6978,1.6978,1.6978,1.6978,1.6978,1.6978,1.6978,1.6978,1.6978,1.6978,1.6978,1.6978,1.6978,1.9998,1.9963,1.9863,2.0119,1.9553,1.8772,1.8428,1.8128,1.7785,1.7358,1.7365,1.7527,1.7712,1.7501,1.7326,1.7608,1.7857,1.7931,1.7876,1.802,1.8069,1.7943,1.7915,1.7915,1.7915,1.7915,1.7915,1.7915,1.7915,1.7915,1.7915,1.7915,1.7915,1.7915,1.7915,1.7915,1.7915,1.7915,1.7935,1.8077,1.8077,1.8145,1.8301,1.8301,1.8375,1.8454,1.8454,1.8599,1.8742,1.8742,1.88,1.882,1.882,1.882,1.882,1.882,1.882,1.882,1.882,1.882,1.882,1.882,1.882,1.882,1.882,1.882,1.882,1.882,1.882,1.882,1.882,1.882,1.882,1.882,1.882,1.8643,1.8004,1.7902,1.7738,1.7093,1.6978,1.6978,1.6978,1.6978,1.6978,1.6978,1.6978,1.6978,1.6978,1.6978,1.6978,1.6978,1.6978,1.6978,1.6978,1.6978,1.6978,1.6978,1.6978,1.6978,1.6978,1.6978,1.6978,1.6978,1.6978,1.6978,1.6978,1.6978,1.6978,1.6978,1.6978,1.6978,1.9835,1.9973,2.0006,1.9995,1.9383,1.8701,1.8408,1.7792,1.725,1.7036,1.7145,1.7282,1.735,1.7275,1.7203,1.7385,1.7531,1.7564,1.7668,1.7843,1.7913,1.7923,1.7915,1.7915,1.7915,1.7915,1.7915,1.7915,1.7915,1.7915,1.7915,1.7915,1.7915,1.7915,1.7915,1.7915,1.7915,1.8004,1.8036,1.8091,1.8179,1.8301,1.8443,1.8443,1.8531,1.8674,1.8674,1.8708,1.882,1.882,1.882,1.882,1.882,1.882,1.882,1.882,1.882,1.882,1.882,1.882,1.882,1.882,1.882,1.882,1.882,1.882,1.882,1.882,1.882,1.882,1.882,1.882,1.882,1.882,1.882,1.8606,1.8044,1.7915,1.7738,1.7093,1.6978,1.6978,1.6978,1.6978,1.6978,1.6978,1.6978,1.7012,1.71,1.7107,1.7141,1.7236,1.7087,1.6978,1.6978,1.6978,1.6978,1.6978,1.6978,1.6978,1.6978,1.6978,1.6978,1.6978,1.6978,1.6978,1.6978,1.6978,1.6978,1.6978,1.6978,1.6978,2.0326,2.0291,1.9941,1.9873,1.9253,1.862,1.8533,1.7803,1.7123,1.7238,1.7363,1.7486,1.7486,1.7572,1.7578,1.7654,1.7601,1.7644,1.7807,1.7922,1.7977,1.8083,1.8059,1.8005,1.8005,1.7923,1.7915,1.7915,1.7915,1.7936,1.7935,1.7935,1.7914,1.7915,1.7914,1.7935,1.7935,1.8077,1.8179,1.8213,1.8335,1.8464,1.8599,1.8599,1.8654,1.882,1.882,1.882,1.882,1.882,1.882,1.882,1.882,1.882,1.882,1.882,1.882,1.882,1.882,1.882,1.882,1.882,1.8854,1.883,1.883,1.8854,1.882,1.882,1.882,1.882,1.882,1.882,1.882,1.882,1.8854,1.8711,1.8113,1.7968,1.7826,1.7229,1.7114,1.7114,1.7114,1.7114,1.7114,1.7114,1.7114,1.7148,1.7249,1.7256,1.7304,1.7405,1.7236,1.7114,1.7114,1.7114,1.7114,1.7114,1.7114,1.7114,1.7114,1.7114,1.7114,1.7114,1.7114,1.7114,1.7114,1.7114,1.7114,1.7107,1.7066,1.7019,2.1805,2.1089,1.9605,2.0022,1.9386,1.8783,1.9198,1.8534,1.7992,1.839,1.859,1.8672,1.8672,1.8858,1.8923,1.8704,1.8524,1.8412,1.859,1.8406,1.8366,1.8581,1.8354,1.8227,1.8227,1.8005,1.7915,1.7915,1.7915,1.7935,1.8077,1.8091,1.8023,1.7915,1.8002,1.8091,1.8091,1.8247,1.8332,1.8474,1.8474,1.8599,1.882,1.882,1.882,1.882,1.882,1.882,1.882,1.882,1.882,1.882,1.882,1.882,1.882,1.882,1.882,1.882,1.882,1.882,1.882,1.882,1.8871,1.8993,1.8993,1.8884,1.882,1.882,1.882,1.882,1.882,1.882,1.882,1.882,1.8884,1.8816,1.8213,1.8213,1.8145,1.7534,1.7412,1.7412,1.7412,1.7412,1.7412,1.7412,1.7412,1.7419,1.7419,1.7419,1.7419,1.7419,1.7419,1.7412,1.7412,1.7412,1.7412,1.7412,1.7412,1.7412,1.7412,1.7412,1.7412,1.7412,1.7412,1.7412,1.7412,1.7412,1.7412,1.7412,1.7263,1.7114,2.0982,2.1035,2.0925,2.003,1.9172,1.8564,1.8818,1.8462,1.8133,1.8422,1.8736,1.8899,1.8899,1.8948,1.8947,1.8746,1.8514,1.8398,1.8398,1.8027,1.7833,1.8051,1.7822,1.7717,1.7971,1.7923,1.7956,1.8002,1.8023,1.8091,1.8233,1.8247,1.8233,1.8179,1.8213,1.8247,1.8247,1.8389,1.8477,1.8474,1.864,1.8766,1.882,1.882,1.882,1.882,1.882,1.882,1.882,1.882,1.882,1.882,1.882,1.882,1.882,1.882,1.883,1.8918,1.8918,1.8972,1.9061,1.9061,1.9094,1.9128,1.9128,1.9094,1.9061,1.9061,1.9061,1.9061,1.9061,1.9061,1.9061,1.9061,1.9094,1.8972,1.8375,1.8287,1.8145,1.7534,1.7419,1.7419,1.7419,1.7419,1.7419,1.7419,1.7419,1.7406,1.7507,1.7521,1.7616,1.7704,1.7724,1.7636,1.7439,1.7419,1.7419,1.7419,1.7419,1.7419,1.7419,1.7419,1.7419,1.7419,1.7419,1.7419,1.7419,1.7419,1.7419,1.7419,1.7372,1.7324,2.2449,2.2067,2.1694,1.9958,1.9012,1.8565,1.8761,1.8512,1.8327,1.8623,1.8826,1.9004,1.9126,1.9086,1.906,1.8938,1.859,1.8389,1.8358,1.7873,1.7574,1.7789,1.7664,1.7648,1.7956,1.8004,1.8023,1.8165,1.8179,1.8247,1.8389,1.8409,1.8423,1.8477,1.8423,1.8409,1.8409,1.8552,1.862,1.862,1.8766,1.882,1.882,1.882,1.882,1.882,1.882,1.882,0.0,1.882,1.882,1.882,1.882,1.8854,1.8909,1.8909,1.8938,1.9081,1.9081,1.9128,1.9203,1.9203,1.9237,1.9305,1.9359,1.9291,1.9203,1.9203,1.9203,1.9203,1.9203,1.9203,1.9203,1.9203,1.9257,1.9128,1.8531,1.8443,1.8301,1.7704,1.7589,1.7589,1.7589,1.7589,1.7589,1.7589,1.7589,1.7623,1.7717,1.7683,1.7758,1.7902,1.7915,1.7847,1.7602,1.7589,1.7589,1.7589,1.7589,1.7589,1.7589,1.7589,1.7589,1.7589,1.7589,1.7589,1.7589,1.7589,1.7561,1.7507,1.7507,1.7473,0.0,2.3949,2.2126,1.9995,1.9118,1.8817,1.8923,1.8768,0.0,1.8964,1.8996,1.9102,1.9273,1.9306,1.9314,1.9272,1.8698,1.8333,1.8443,1.7879,1.7574,1.7787,1.7808,1.7892,1.8099,1.8111,1.8179,1.8321,1.8335,1.8389,1.8531,1.8494,1.862,1.8762,1.862,1.8494,1.8494,1.8694,1.882,1.882,1.882,1.882,1.882,1.882,1.882,1.882,1.882,1.882,1.882,1.882,1.882,1.8841,1.8841,1.8929,1.9006,1.9006,1.9094,1.9217,1.9217,1.9217,1.9237,1.9237,1.9325,1.9468,1.9624,1.9468,1.9237,1.9237,1.9237,1.9237,1.9237,1.9237,1.9237,1.9237,1.9345,1.9291,1.8708,1.8694,1.8677,1.8058,1.7956,1.7936,1.7915,1.7915,1.7915,1.7915,1.7915,1.7915,1.7915,1.7915,1.7915,1.7915,1.7915,1.7915,1.7915,1.7915,1.7915,1.7915,1.7915,1.7915,1.7915,1.7915,1.7915,1.7915,1.7915,1.7915,1.7915,1.7915,1.7792,1.7609,1.7609,1.7534,2.7649,0.0,2.4214,2.1809,2.0268,1.9209,0.0,1.8826,1.8883,1.8964,1.9143,1.9257,1.9297,1.9306,1.9206,1.8886,1.8521,1.8225,1.8061,1.7661,1.7425,1.7635,1.7649,1.78,1.8213,1.8267,1.8321,1.842,1.8477,1.8552,1.8694,1.8708,1.8728,1.882,1.8728,1.8708,1.8708,1.88,1.882,1.882,1.882,1.882,1.882,1.882,1.882,1.882,1.882,1.882,1.882,1.882,1.883,1.8938,1.8938,1.9027,1.9149,1.9149,1.9257,1.9379,1.9379,1.9447,1.9556,1.9556,1.9576,1.9671,1.9705,1.9671,1.9556,1.9556,1.9556,1.9556,1.9556,1.9556,1.9556,1.9556,1.9637,1.9501,1.9128,1.9081,1.8918,1.8321,1.8213,1.8145,1.7956,1.7915,1.7915,1.7915,1.7915,1.7915,1.7915,1.7915,1.7915,1.7915,1.7915,1.7915,1.7915,1.7915,1.7915,1.7915,1.7915,1.7915,1.7915,1.7915,1.7915,1.7915,1.7915,1.7915,1.7915,1.7915,1.7902,1.7812,1.7812,1.7792,2.9301,2.7909,2.6192,2.3653,2.2297,2.1344,2.0159,1.9973,1.9873,1.9241,1.924,1.9306,1.9306,1.924,1.9142,1.9022,1.847,1.7946,1.7536,1.744,1.7457,1.7568,1.7704,1.7935,1.8375,1.8366,1.8477,1.862,1.864,1.8674,1.8762,1.882,1.882,1.882,1.882,1.882,1.882,1.882,1.882,1.882,1.882,1.882,1.882,1.882,1.882,1.882,1.882,1.8854,1.8871,1.8871,1.8959,1.9094,1.9094,1.9183,1.9305,1.9305,1.9393,1.9535,1.9535,1.959,1.9725,1.9725,1.9725,1.9725,1.9725,1.9725,1.9725,1.9725,1.9725,1.9725,1.9725,1.9725,1.9725,1.9725,1.9725,1.9637,1.9271,1.9203,1.9027,1.8443,1.8321,1.8213,1.797,1.7915,1.7915,1.7915,1.7915,1.7915,1.7915,1.7915,1.7915,1.7915,1.7915,1.7915,1.7915,1.7915,1.7915,1.7915,1.7915,1.7915,1.7915,1.7915,1.7915,1.7915,1.7915,1.7915,1.7915,1.7915,1.7915,1.7915,1.7915,1.7915,3.0642,2.9733,2.8174,2.5556,2.4451,2.3595,2.1873,2.1241,2.0672,1.952,1.9306,1.9306,1.9306,1.9183,1.9094,1.9206,1.8405,1.7646,1.7204,1.7346,1.7569,1.7684,1.788,1.8124,1.8531,1.8565,1.862,1.88,1.882,1.882,1.882,1.882,1.882,1.882,1.882,1.882,1.882,1.882,1.882,1.882,1.882,1.882,1.882,1.882,1.8841,1.8854,1.8854,1.8884,1.9027,1.9027,1.9115,1.9237,1.9237,1.9325,1.9468,1.9468,1.9556,1.9725,1.9725,1.9725,1.9725,1.9725,1.9725,1.9725,1.9739,1.9759,1.9759,1.9773,1.9759,1.9725,1.9725,1.9725,1.9725,1.9759,1.9759,1.9684,1.9393,1.9345,1.9169,1.8565,1.8464,1.8335,1.8044,1.7935,1.7935,1.7935,1.7935,1.7935,1.7935,1.7935,1.7935,1.7935,1.7935,1.7935,1.7935,1.7935,1.7935,1.7935,1.7936,1.7915,1.7915,1.7915,1.7915,1.7915,1.7915,1.7915,1.7915,1.7915,1.7915,1.7915,1.7915,1.7915,3.1049,3.1127,3.054,2.7937,2.5244,2.3101,2.2409,2.0871,1.9569,1.9355,1.9306,1.9306,1.9306,1.9281,1.918,1.8998,1.8291,1.7812,1.7766,1.7657,1.7745,1.8158,1.8335,1.8511,1.8708,1.8728,1.8742,1.882,1.882,1.882,1.882,1.882,1.882,1.882,1.882,1.882,1.882,1.882,1.882,1.882,1.882,1.882,1.882,1.882,1.883,1.8959,1.8959,1.904,1.9169,1.9169,1.9257,1.9393,1.9393,1.9481,1.9624,1.9624,1.9644,1.9725,1.9725,1.9725,1.9725,1.9725,1.9725,1.9739,1.98,1.9902,1.9875,1.9997,1.9854,1.9725,1.9725,1.9725,1.9759,1.982,1.9902,1.9916,1.9942,1.9963,1.9786,1.9183,1.9061,1.8884,1.8335,1.8247,1.8247,1.8247,1.8247,1.8247,1.8247,1.8247,1.8247,1.8247,1.8247,1.8247,1.8247,1.8247,1.8247,1.8247,1.8002,1.7915,1.7915,1.7915,1.7915,1.7915,1.7915,1.7915,1.7915,1.7915,1.7915,1.7915,1.7915,1.7915,3.1383,3.145,3.0923,2.8861,2.6774,2.4494,2.1722,2.0365,1.9544,1.9001,1.8853,1.896,1.9256,1.9089,1.8764,1.8231,1.8181,1.8109,1.7779,1.7985,1.8274,1.8375,1.8565,1.8694,1.8762,1.882,1.882,1.882,1.882,1.882,1.882,1.882,1.882,1.882,1.882,1.882,1.882,1.882,1.882,1.882,1.882,1.882,1.882,1.8909,1.8918,1.8993,1.9081,1.9183,1.9325,1.9325,1.9413,1.9556,1.9556,1.959,1.9725,1.9725,1.9725,1.9725,1.9725,1.9725,1.9739,1.9752,1.9827,1.98,1.9942,1.9997,2.001,2.0085,1.9997,1.9908,1.9908,1.9908,1.9908,1.9976,1.9997,2.001,2.0085,2.0098,1.9922,1.9325,1.9203,1.9006,1.8423,1.8321,1.8321,1.8321,1.8321,1.8321,1.8321,1.8321,1.8321,1.8321,1.8321,1.8321,1.8321,1.8321,1.8321,1.8321,1.8179,1.8111,1.8111,1.8111,1.8111,1.8111,1.8111,1.8111,1.8111,1.8111,1.8111,1.8111,1.8111,1.8111,3.1503,3.145,3.0857,2.9006,2.7981,2.6201,2.1694,2.0585,2.0147,1.8873,1.8493,1.8519,1.9073,1.8981,1.8623,1.8048,1.8363,1.8484,1.8026,1.8357,1.8608,1.8498,1.8674,1.882,1.882,1.882,1.882,1.882,1.882,1.882,1.882,1.882,1.882,1.882,1.882,1.882,1.882,1.882,1.882,1.882,1.8854,1.8875,1.8875,1.8972,1.9061,1.9094,1.9203,1.9345,1.9481,1.9481,1.9556,1.9725,1.9725,1.9725,1.9725,1.9725,1.9725,1.9725,1.9759,1.9773,1.9793,1.9875,1.9929,1.9963,2.0098,2.0153,2.0153,2.0187,2.0207,2.0187,2.0119,2.0098,2.0119,2.0153,2.0153,2.0173,2.0187,2.0207,2.0051,1.9522,1.9359,1.9149,1.862,1.8464,1.8423,1.8423,1.8423,1.8423,1.8423,1.8423,1.8423,1.8423,1.8423,1.8423,1.8423,1.8423,1.8423,1.8423,1.8355,1.8321,1.8321,1.8321,1.8321,1.8321,1.8321,1.8321,1.8321,1.8321,1.8321,1.8321,1.8321,1.8321,3.1249,3.145,3.1067,2.8524,2.8188,2.7474,2.3589,2.2324,2.1477,1.9389,1.8412,1.8104,1.8648,1.9052,1.9334,1.9253,1.912,1.8963,1.8887,1.869,1.8498,1.8474,1.8674,1.882,1.882,1.882,1.882,1.882,1.882,1.882,1.882,1.882,1.882,1.882,1.882,1.882,1.882,1.882,1.882,1.882,1.8905,1.8972,1.8972,1.9115,1.9271,1.9393,1.9353,1.9501,1.9705,1.9705,1.9705,1.9725,1.9725,1.9725,1.9725,1.9725,1.9725,1.9739,1.982,1.9916,1.9888,2.0031,2.0085,2.0119,2.0261,2.0315,2.0286,2.0471,2.0442,2.0388,2.0173,2.0098,2.0139,2.0275,2.0315,2.0349,2.0422,2.0442,2.0354,2.0098,1.982,1.9522,1.9203,1.8918,1.8786,1.8786,1.8786,1.8786,1.8786,1.8786,1.8786,1.8786,1.8786,1.8786,1.8786,1.8786,1.8786,1.8786,1.8477,1.8321,1.8321,1.8321,1.8321,1.8321,1.8321,1.8321,1.8321,1.8321,1.8321,1.8321,1.8321,1.8321,3.1276,3.1303,3.0897,2.8922,2.9586,2.914,2.2888,2.1605,2.1168,1.8963,1.8347,1.8305,1.8564,1.8529,1.8453,1.8651,1.8532,1.8454,1.8564,1.8523,1.8565,1.8654,1.8728,1.882,1.882,1.882,1.882,1.882,1.882,1.882,1.882,1.882,1.882,1.882,1.882,1.882,1.882,1.8909,1.8905,1.8905,1.8959,1.904,1.9128,1.9271,1.9379,1.9434,1.9535,1.961,1.9725,1.9725,1.9725,1.9725,1.9725,1.9725,1.9725,1.9725,1.9773,1.98,1.9854,1.9942,2.0051,2.0187,2.0241,2.0275,2.0354,2.0388,2.0408,2.0462,2.0476,2.0462,2.0404,2.032,2.0383,2.0388,2.0388,2.0471,2.0462,2.0476,2.0388,2.0153,1.9854,1.9616,1.9257,1.8959,1.882,1.882,1.882,1.882,1.882,1.882,1.882,1.882,1.882,1.882,1.882,1.882,1.882,1.882,1.8654,1.8599,1.8599,1.8599,1.8599,1.8599,1.8599,1.8599,1.8599,1.8599,1.8599,1.8599,1.8599,1.8599,3.1276,3.1176,3.0967,2.9944,3.0501,2.9714,2.3642,2.254,2.2,1.9326,1.8678,1.8529,1.838,1.8265,1.8258,1.8517,1.8474,1.8508,1.8646,1.8632,1.864,1.88,1.882,1.882,1.882,1.882,1.882,1.882,1.882,1.882,1.882,1.882,1.882,1.882,1.882,1.8841,1.883,1.8938,1.904,1.9128,1.9128,1.9183,1.9271,1.9434,1.9501,1.9501,1.9671,1.9725,1.9725,1.9725,1.9725,1.9725,1.9725,1.9759,1.9732,1.9732,1.982,1.9942,1.9997,2.0085,2.0207,2.0349,2.0334,2.0354,2.0442,2.0476,2.0476,2.0476,2.0476,2.0476,2.0476,2.0476,2.0476,2.0476,2.0476,2.0476,2.0476,2.0476,2.0422,2.0275,1.9997,1.9759,1.94,1.9094,1.8929,1.8841,1.882,1.882,1.882,1.882,1.882,1.882,1.882,1.882,1.882,1.882,1.882,1.882,1.882,1.882,1.882,1.882,1.882,1.882,1.882,1.882,1.882,1.882,1.882,1.882,1.882,1.882,3.1176,3.1176,3.1256,3.1597,3.0605,2.8851,2.6453,2.5635,2.4408,2.0754,1.944,1.8684,1.7951,1.8499,1.9146,1.9295,1.9248,1.922,1.9384,1.9071,1.882,1.882,1.882,1.882,1.882,1.882,1.882,1.882,1.882,1.882,1.882,1.882,1.882,1.882,1.882,1.8888,1.8993,1.8993,1.9149,1.9374,1.9374,1.9374,1.9434,1.959,1.9725,1.9725,1.9725,1.9725,1.9725,1.9725,1.9725,1.9725,1.9725,1.9752,1.9875,1.9875,1.9976,2.0119,2.0275,2.0329,2.0349,2.0485,2.0476,2.0476,2.0476,2.0476,2.0476,2.0476,2.0476,2.0476,2.0476,2.0476,2.0476,2.0476,2.0476,2.0476,2.0476,2.0476,2.0476,2.0476,2.0295,2.001,1.9773,1.9413,1.9094,1.8816,1.882,1.882,1.882,1.882,1.882,1.882,1.882,1.882,1.882,1.882,1.882,1.882,1.882,1.882,1.882,1.882,1.882,1.882,1.882,1.882,1.882,1.882,1.882,1.882,1.882,1.882,3.1176,3.153,3.1521,3.0187,3.0018,2.9179,2.5631,2.5967,2.6009,2.2671,2.0348,1.875,1.8177,1.8002,1.8061,1.8596,1.8636,1.8589,1.8754,1.8776,1.882,1.882,1.882,1.882,1.882,1.882,1.882,1.882,1.882,1.882,1.882,1.882,1.882,1.882,1.8871,1.8938,1.8993,1.9203,1.9345,1.9374,1.9535,1.959,1.959,1.9644,1.9725,1.9725,1.9725,1.9725,1.9725,1.9725,1.9725,1.9739,1.9827,1.9841,1.9888,1.9997,2.0139,2.0275,2.0315,2.0334,2.0422,2.0462,2.0476,2.0476,2.0476,2.0476,2.0476,2.0476,2.0476,2.0476,2.0476,2.0476,2.0476,2.0476,2.0476,2.0476,2.0476,2.0476,2.0476,2.0476,2.0295,2.001,1.9773,1.9413,1.9094,1.8816,1.882,1.882,1.882,1.882,1.882,1.882,1.882,1.882,1.882,1.882,1.882,1.882,1.882,1.882,1.882,1.882,1.882,1.882,1.882,1.882,1.882,1.882,1.882,1.882,1.882,1.882,3.1543,3.1917,3.1824,2.9921,2.9315,2.8376,2.5249,2.4873,2.4441,2.2033,2.0495,1.9377,1.8824,1.8352,1.8177,1.8661,1.853,1.8464,1.8599,1.8708,1.882,1.882,1.882,1.882,1.882,1.882,1.882,1.882,1.882,1.882,1.882,1.882,1.8796,1.8909,1.8938,1.904,1.9169,1.9345,1.9468,1.9522,1.9671,1.9725,1.9725,1.9725,1.9725,1.9725,1.9725,1.9725,1.9725,1.9773,1.9752,1.9766,1.9908,1.9997,2.0064,2.0153,2.0232,2.0354,2.0354,2.0408,2.0476,2.0476,2.0476,2.0476,2.0476,2.0476,2.0476,2.0476,2.0476,2.0476,2.0476,2.0476,2.0476,2.0476,2.0476,2.0476,2.0476,2.0476,2.0476,2.0476,2.0397,2.0187,1.9888,1.9678,1.9413,1.8993,1.8888,1.882,1.882,1.882,1.882,1.882,1.882,1.882,1.882,1.882,1.882,1.882,1.882,1.882,1.882,1.882,1.882,1.882,1.882,1.882,1.882,1.882,1.882,1.882,1.882,1.882,3.2064,3.2447,3.2294,3.0446,2.8538,2.67,2.5084,2.3018,2.1118,2.0183,2.0278,2.0333,1.9687,1.933,1.9147,1.9241,1.89,1.8643,1.8865,1.882,1.882,1.882,1.882,1.882,1.882,1.882,1.882,1.882,1.882,1.882,1.882,1.882,1.883,1.8993,1.9006,1.9149,1.9374,1.9447,1.9522,1.9725,1.9725,1.9725,1.9725,1.9725,1.9725,1.9725,1.9725,1.9725,1.9759,1.982,1.9936,1.9908,2.0064,2.0207,2.0329,2.0286,2.0374,2.0476,2.0476,2.0476,2.0476,2.0476,2.0476,2.0476,2.0476,2.0476,2.0476,2.0476,2.0476,2.0476,2.0476,2.0476,2.0476,2.0476,2.0476,2.0476,2.0476,2.0476,2.0476,2.0476,2.0476,2.0388,2.0153,2.0098,1.9888,1.9291,1.8959,1.882,1.882,1.882,1.882,1.882,1.882,1.882,1.882,1.882,1.882,1.882,1.882,1.882,1.882,1.882,1.882,1.882,1.882,1.882,1.882,1.882,1.882,1.882,1.882,1.882,3.242,3.3062,3.3061,3.0581,2.7367,2.4632,2.4237,2.2728,2.1705,2.282,2.1705,2.0333,1.9687,1.9656,1.9748,1.9869,1.9569,1.9319,1.9488,1.9103,1.882,1.882,1.882,1.882,1.882,1.882,1.882,1.882,1.882,1.882,1.882,1.882,1.883,1.8993,1.9094,1.9237,1.9374,1.9556,1.9684,1.9725,1.9725,1.9725,1.9725,1.9725,1.9725,1.9725,1.9725,1.9732,1.9841,1.9916,1.9942,2.0064,2.0227,2.0295,2.0286,2.0388,2.0462,2.0476,2.0476,2.0476,2.0476,2.0476,2.0476,2.0476,2.0476,2.0476,2.0476,2.0476,2.0476,2.0476,2.0476,2.0476,2.0476,2.0476,2.0476,2.0476,2.0476,2.0476,2.0476,2.0476,2.0476,2.0388,2.0153,2.0098,1.9888,1.9291,1.8959,1.882,1.882,1.882,1.882,1.882,1.882,1.882,1.882,1.882,1.882,1.882,1.882,1.882,1.882,1.882,1.882,1.882,1.882,1.882,1.882,1.882,1.882,1.882,1.882,1.882,3.2283,3.3107,3.3351,3.0994,2.7792,2.5017,2.4201,2.3283,2.2673,2.2728,2.1768,2.0827,2.0505,2.0445,2.0469,2.0545,2.0254,1.9929,1.9726,1.94,1.9103,1.882,1.9045,1.9219,1.9219,1.9502,1.956,1.9226,1.9219,1.9103,1.882,1.883,1.8938,1.9081,1.9237,1.9379,1.9535,1.9624,1.9725,1.9725,1.9725,1.9725,1.9725,1.9725,1.9759,1.9827,1.9827,1.9902,1.9997,2.0064,2.0139,2.0227,2.0363,2.0374,2.0374,2.0442,2.0476,2.0476,2.0476,2.0476,2.0476,2.0476,2.0476,2.0476,2.0476,2.0476,2.0476,2.0476,2.0476,2.0476,2.0476,2.0476,2.0476,2.0476,2.0476,2.0476,2.0476,2.0476,2.0476,2.0476,2.0476,2.0485,2.0329,2.0187,1.9942,1.9488,1.9169,1.8918,1.8841,1.882,1.882,1.882,1.882,1.882,1.882,1.882,1.882,1.882,1.882,1.882,1.882,1.882,1.882,1.882,1.882,1.882,1.882,1.882,1.882,1.882,1.882,1.882,3.2235,3.2991,3.3342,3.1643,2.9124,2.6579,2.4854,2.4201,2.3492,2.176,2.1384,2.1384,2.1384,2.1295,2.1132,2.1132,2.0907,2.0601,2.0081,1.9922,1.9683,1.9161,1.956,1.9864,1.9864,2.032,2.0363,1.9864,1.9864,1.9567,1.9001,1.908,1.9165,1.9203,1.9345,1.9501,1.9725,1.9725,1.9725,1.9725,1.9725,1.9725,1.9725,1.9739,1.9827,1.9875,1.9908,1.9997,2.0153,2.0275,2.0286,2.032,2.0485,2.0476,2.0476,2.0476,2.0476,2.0476,2.0476,2.0476,2.0476,2.0476,2.0476,2.0476,2.0476,2.0476,2.0476,2.0476,2.0476,2.0476,2.0476,2.0476,2.0476,2.0476,2.0476,2.0476,2.0476,2.0476,2.0476,2.0476,2.0476,2.0476,2.0476,2.0295,1.9997,1.9712,1.94,1.9094,1.8854,1.882,1.882,1.882,1.882,1.882,1.882,1.882,1.882,1.882,1.882,1.882,1.882,1.882,1.882,1.882,1.882,1.882,1.882,1.882,1.882,1.882,1.882,1.882,3.2843,3.3027,3.3065,3.2508,3.0584,2.8425,2.6634,2.5071,2.3492,2.176,2.1384,2.1384,2.1384,2.1621,2.1759,2.1759,2.1544,2.1368,2.1245,2.0782,2.0428,2.0385,2.0428,2.0486,2.0486,2.0544,2.0544,2.0486,2.0486,2.0204,1.9625,1.973,1.957,1.9203,1.9345,1.9501,1.9725,1.9725,1.9725,1.9725,1.9725,1.9725,1.9725,1.9848,1.9854,1.9936,2.001,2.0153,2.0295,2.0266,2.0397,2.0462,2.0476,2.0476,2.0476,2.0476,2.0476,2.0476,2.0476,2.0476,2.0476,2.0476,2.0476,2.0476,2.0476,2.0476,2.0476,2.0476,2.0476,2.0476,2.0476,2.0476,2.0476,2.0476,2.0476,2.0476,2.0476,2.0476,2.0476,2.0476,2.0476,2.0476,2.0476,2.0295,1.9997,1.9712,1.94,1.9094,1.8854,1.882,1.882,1.882,1.882,1.882,1.882,1.882,1.882,1.882,1.882,1.882,1.882,1.882,1.882,1.882,1.882,1.882,1.882,1.882,1.882,1.882,1.882,1.882,3.2666,3.2699,3.2576,3.2586,3.1623,3.022,2.8425,2.6688,2.4962,2.3228,2.2088,2.1384,2.1384,2.1676,2.188,2.188,2.2017,2.1945,2.1549,2.1245,2.0963,2.0667,2.0905,2.1121,2.1121,2.1426,2.1483,2.1121,2.1121,2.0885,2.0401,2.0144,1.9946,1.9863,1.9655,1.959,1.9725,1.9725,1.9725,1.9725,1.9752,1.9793,1.9739,1.9976,2.0085,2.001,2.0153,2.0315,2.0388,2.0388,2.0422,2.0476,2.0476,2.0476,2.0476,2.0476,2.0476,2.0476,2.0476,2.0476,2.0476,2.0476,2.0476,2.0476,2.0476,2.0476,2.0476,2.0476,2.0476,2.0476,2.0476,2.0476,2.0476,2.0476,2.0476,2.0476,2.0476,2.0476,2.0476,2.0476,2.0476,2.0476,2.0476,2.0374,2.0187,1.9732,1.9596,1.9291,1.8875,1.882,1.882,1.882,1.882,1.882,1.882,1.882,1.882,1.882,1.882,1.882,1.882,1.882,1.882,1.882,1.882,1.882,1.882,1.882,1.882,1.882,1.882,1.882,3.229,3.2264,3.2203,3.2321,3.2074,3.1324,2.9587,2.8178,2.6752,2.5017,2.3283,2.2088,2.2088,2.1954,2.188,2.188,2.2237,2.2349,2.1822,2.1764,2.1607,2.1129,2.1483,2.1764,2.1764,2.2068,2.2068,2.1549,2.1368,2.1082,2.0672,2.0296,2.0098,2.014,1.9886,1.9725,1.9725,1.9725,1.9725,1.9725,1.9827,1.9786,1.9732,2.0064,2.0187,2.0173,2.0315,2.0438,2.0476,2.0476,2.0476,2.0476,2.0476,2.0476,2.0476,2.0476,2.0476,2.0476,2.0476,2.0476,2.0476,2.0476,2.0476,2.0476,2.0476,2.0476,2.0476,2.0476,2.0476,2.0476,2.0476,2.0476,2.0476,2.0476,2.0476,2.0476,2.0476,2.0476,2.0476,2.0476,2.0476,2.0476,2.0476,2.0476,2.0363,1.9854,1.9793,1.9582,1.8993,1.8871,1.8875,1.8875,1.8841,1.882,1.882,1.882,1.8841,1.8875,1.8875,1.8888,1.8929,1.8929,1.8929,1.8929,1.8929,1.8888,1.882,1.882,1.882,1.882,1.882,1.882,3.1809,3.1926,3.2038,3.1819,3.1778,3.1335,2.959,2.9122,2.8554,2.6796,2.5071,2.3874,2.3874,2.2779,2.188,2.188,2.2237,2.2464,2.2464,2.2464,2.2464,2.2407,2.2407,2.2464,2.2464,2.1887,2.1549,2.1483,2.0963,2.0444,1.9969,2.0074,1.9874,1.9494,1.9637,1.9725,1.9725,1.9725,1.9725,1.9725,1.9725,1.9793,1.9916,1.9888,2.0051,2.0329,2.0408,2.0476,2.0476,2.0476,2.0476,2.0476,2.0476,2.0476,2.0476,2.0476,2.0476,2.0476,2.0476,2.0476,2.0476,2.0476,2.0476,2.0476,2.0476,2.0476,2.0476,2.0476,2.0476,2.0476,2.0476,2.0476,2.0476,2.0476,2.0476,2.0476,2.0476,2.0476,2.0476,2.0476,2.0476,2.0476,2.0476,2.0476,2.0374,2.0119,1.9963,1.9746,1.9434,1.9149,1.8972,1.8972,1.8909,1.882,1.882,1.882,1.883,1.8972,1.8972,1.904,1.9169,1.9183,1.9183,1.9183,1.9183,1.904,1.882,1.882,1.882,1.882,1.882,1.882,3.1783,3.1677,3.1613,3.134,3.1262,3.114,3.0486,2.9758,2.9024,2.8371,2.686,2.5659,2.5659,2.355,2.179,2.1912,2.2131,2.222,2.1921,2.1887,2.1706,2.1302,2.1302,2.1302,2.1302,2.1064,2.0905,2.0905,2.0724,2.0604,2.0643,2.0295,2.0095,2.0181,1.9873,1.9725,1.9725,1.9725,1.9712,1.98,1.98,1.982,1.9936,2.0085,2.0119,2.0051,2.0397,2.0476,2.0476,2.0476,2.0476,2.0476,2.0476,2.0476,2.0476,2.0476,2.0476,2.0476,2.0476,2.0476,2.0476,2.0476,2.0476,2.0476,2.0476,2.0476,2.0476,2.0476,2.0476,2.0476,2.0476,2.0476,2.0476,2.0476,2.0476,2.0476,2.0476,2.0476,2.0476,2.0476,2.0476,2.0476,2.0476,2.0476,2.0404,2.001,1.9908,1.9732,1.9345,1.9183,1.9128,1.9128,1.9081,1.9047,1.9047,1.9047,1.9061,1.9128,1.9128,1.9149,1.9203,1.9203,1.9203,1.9203,1.9203,1.9149,1.9047,1.9047,1.9047,1.9047,1.9047,1.9047,3.1763,3.162,3.1424,3.106,3.0951,3.0988,3.0971,3.0387,2.9863,3.0021,2.8705,2.7444,2.7444,2.5195,2.3234,2.285,2.2301,2.1796,2.1525,2.1302,2.1029,2.0667,2.0601,2.0601,2.0601,2.0421,2.032,2.032,2.0088,2.0117,2.0435,2.0027,1.9944,2.0312,1.9914,1.9725,1.9725,1.9725,1.9712,1.98,1.98,1.9882,1.9875,2.0031,2.0085,2.0051,2.0295,2.0417,2.0471,2.0462,2.0476,2.0476,2.0476,2.0476,2.0476,2.0476,2.0476,2.0476,2.0476,2.0476,2.0476,2.0476,2.0476,2.0476,2.0476,2.0476,2.0476,2.0476,2.0476,2.0476,2.0476,2.0476,2.0476,2.0476,2.0476,2.0476,2.0476,2.0476,2.0476,2.0476,2.0476,2.0476,2.0476,2.0476,2.0438,2.0139,2.001,1.9834,1.9535,1.9379,1.9271,1.9271,1.9237,1.9203,1.9203,1.9203,1.9217,1.9271,1.9271,1.9305,1.9359,1.9359,1.9359,1.9359,1.9359,1.9359,1.9359,1.9257,1.9203,1.9203,1.9203,1.9203,0.0,0.0,0.0,3.1011,3.085,3.086,3.0913,3.0998,3.1131,3.1674,3.0423,2.9286,2.9286,2.7822,2.6241,2.4864,2.285,2.1502,2.1525,2.1064,2.0667,2.0544,2.0544,2.0544,2.0544,2.0023,1.9683,1.9683,1.9103,1.8943,1.9183,1.9203,1.9359,1.9705,1.9725,1.9725,1.9725,1.9725,1.9725,1.9739,1.9725,1.9752,1.9888,1.9752,1.9908,2.0315,2.0173,2.0187,2.0286,2.0422,2.0476,2.0476,2.0476,2.0476,2.0476,2.0476,2.0476,2.0476,2.0476,2.0476,2.0476,2.0476,2.0476,2.0476,2.0476,2.0476,2.0476,2.0476,2.0476,2.0476,2.0476,2.0476,2.0476,2.0476,2.0476,2.0476,2.0476,2.0476,2.0476,2.0476,2.0476,2.0476,2.0476,2.0476,2.0476,2.0476,2.0295,2.0098,2.0098,1.9712,1.9434,1.9434,1.9305,1.9217,1.9217,1.9217,1.9271,1.9374,1.9434,1.9501,1.9664,1.9725,1.9725,1.9725,1.9725,1.9725,1.9725,1.9359,1.9217,1.9217,1.9217,1.9217,3.1107,0.0,0.0,0.0,0.0,0.0,2.9848,3.0448,3.1037,3.1159,3.1159,3.11,3.11,2.9673,2.8414,2.8169,2.6743,2.4954,2.308,2.2662,2.1748,1.956,1.9284,1.9284,1.9284,1.9161,1.9045,1.9045,1.8878,1.8943,1.9183,1.9413,1.9576,1.9725,1.9725,1.9725,1.9725,1.9725,1.9827,1.9976,1.9875,1.9942,2.0207,2.0173,2.0153,2.0173,2.0349,2.0383,2.0286,2.0422,2.0476,2.0476,2.0476,2.0476,2.0476,2.0476,2.0476,2.0476,2.0476,2.0476,2.0476,2.0476,2.0476,2.0476,2.0476,2.0476,2.0476,2.0476,2.0476,2.0476,2.0476,2.0476,2.0476,2.0476,2.0476,2.0476,2.0476,2.0476,2.0476,2.0476,2.0476,2.0476,2.0476,2.0476,2.0442,2.0397,2.0227,2.0064,1.9942,1.9732,1.959,1.959,1.9556,1.9535,1.9535,1.9535,1.9556,1.959,1.959,1.9671,1.9725,1.9725,1.9725,1.9725,1.9725,1.9725,1.9725,1.9637,1.9535,1.9535,1.9535,1.9535,3.0916,3.0331,2.9663,2.9423,0.0,0.0,2.9689,3.0228,3.0766,3.1252,3.1554,3.1806,3.1824,3.0965,3.0368,3.0573,2.9896,2.8265,2.5109,2.456,2.3507,2.1006,2.0486,2.0023,1.9226,1.8943,1.882,1.882,1.882,1.8943,1.9183,1.9501,1.9725,1.9725,1.9725,1.9725,1.9725,1.9725,1.9786,2.001,1.997,1.9997,2.0241,2.0241,2.0227,2.0207,2.032,2.0374,2.0417,2.0442,2.0476,2.0476,2.0476,2.0476,2.0476,2.0476,2.0476,2.0476,2.0476,2.0476,2.0476,2.0476,2.0476,2.0476,2.0476,2.0476,2.0476,2.0476,2.0476,2.0476,2.0476,2.0476,2.0476,2.0476,2.0476,2.0476,2.0476,2.0476,2.0476,2.0476,2.0476,2.0476,2.0476,2.0476,2.0442,2.0374,2.0295,2.0173,2.0085,1.9942,1.982,1.9814,1.9752,1.9732,1.9725,1.9725,1.9725,1.9725,1.9725,1.9725,1.9725,1.9725,1.9725,1.9725,1.9725,1.9725,1.9725,1.9725,1.9725,1.9725,1.9725,1.9725,0.0,0.0,0.0,2.9423,2.9328,0.0,2.991,3.0092,3.0363,3.1339,3.159,3.1619,3.1594,3.1594,3.1718,3.1921,3.2048,3.0877,2.7398,2.6658,2.5778,2.386,2.3163,2.2086,2.0262,1.9625,1.9219,1.9001,1.8957,1.9021,1.9183,1.9488,1.9705,1.9725,1.9725,1.9725,1.9786,1.9786,1.9854,2.0018,2.0018,2.0045,2.0153,2.0153,2.0227,2.0349,2.0349,2.0417,2.0476,2.0476,2.0476,2.0476,2.0476,2.0476,2.0476,2.0476,2.0476,2.0476,2.0476,2.0476,2.0476,2.0476,2.0476,2.0476,2.0476,2.0476,2.0476,2.0476,2.0476,2.0539,2.056,2.056,2.051,2.053,2.053,2.053,2.053,2.053,2.053,2.053,2.056,2.0476,2.0476,2.0496,2.056,2.056,2.0451,2.0383,2.0383,2.0227,2.0064,1.997,1.9888,1.982,1.9739,1.9725,1.9725,1.9725,1.9725,1.9725,1.9725,1.9725,1.9725,1.9725,1.9725,1.9725,1.9725,1.9725,1.9725,1.9725,1.9725,1.9725,3.0271,2.9567,2.886,2.8764,2.8764,0.0,2.8898,2.9237,2.9648,2.9844,3.0208,3.0497,3.0503,3.0494,3.0521,3.0576,3.1131,3.0903,2.9066,2.8723,2.7917,2.5778,2.5463,2.4662,2.2769,2.2481,2.1806,2.0363,1.9913,1.9556,1.9242,1.9379,1.9535,1.9664,1.9725,1.9955,2.044,2.044,2.0589,2.0864,2.0864,2.0686,2.0388,2.0388,2.0471,2.0442,2.0442,2.0462,2.0476,2.0476,2.0476,2.0476,2.0476,2.0476,2.0476,2.0476,2.0476,2.0476,2.0476,2.0476,2.0476,2.0476,2.0476,2.0476,2.0476,2.0476,2.0476,2.0476,2.0476,2.051,2.0702,2.0716,2.0756,2.0878,2.0912,2.0912,2.0912,2.0912,2.0912,2.0912,2.0652,2.0476,2.0476,2.0648,2.0716,2.0716,2.0702,2.0682,2.0682,2.0451,2.0227,2.0064,1.9942,1.982,1.9739,1.9725,1.9725,1.9725,1.9725,1.9725,1.9725,1.9725,1.9725,1.9725,1.9725,1.9725,1.9725,1.9725,1.9725,1.9725,1.9725,1.9725,3.008,2.9375,2.862,2.862,2.862,0.0,0.0,2.9225,2.9454,2.9762,3.0032,3.0201,3.0216,3.0198,3.0213,3.0228,3.0769,3.0998,3.0442,3.0792,3.0421,2.8409,2.8023,2.7155,2.534,2.4023,2.2547,2.0724,2.0416,2.0283,2.0146,2.0295,2.0459,2.063,2.063,2.0819,2.1115,2.1115,2.1261,2.1589,2.1286,2.1061,2.1047,2.0673,2.0476,2.0476,2.0476,2.0476,2.0476,2.0476,2.0476,2.0476,2.0476,2.0476,2.0476,2.0476,2.0476,2.0476,2.0476,2.0476,2.0476,2.0476,2.0476,2.0476,2.0476,2.0594,2.0668,2.075,2.077,2.079,2.0858,2.0878,2.0912,2.098,2.1001,2.1001,2.1001,2.1001,2.1001,2.1001,2.0878,2.077,2.077,2.0845,2.0878,2.0878,2.0878,2.0878,2.0878,2.0756,2.0614,2.0451,2.0241,2.0051,1.9888,1.9752,1.9725,1.9725,1.9725,1.9725,1.9725,1.9725,1.9725,1.9725,1.9725,1.9725,1.9725,1.9725,1.9725,1.9725,1.9725,1.9725,3.008,2.9375,2.862,2.862,2.862,2.8716,0.0,0.0,0.0,2.9812,2.991,2.9898,2.9877,2.9909,2.9898,2.9889,3.0346,3.0769,3.0974,3.1879,3.208,3.0945,3.0577,2.9671,2.7914,2.5283,2.3007,2.1402,2.1085,2.0958,2.1093,2.1227,2.1384,2.1593,2.1593,2.1661,2.1782,2.1782,2.194,2.2278,2.1589,2.1388,2.1555,2.085,2.0476,2.0476,2.0476,2.0476,2.0476,2.0476,2.0476,2.0476,2.0476,2.0476,2.0476,2.0476,2.0476,2.0476,2.0476,2.0476,2.0476,2.0476,2.056,2.053,2.053,2.0702,2.0845,2.0967,2.1001,2.1001,2.1034,2.1034,2.1055,2.1068,2.1089,2.1089,2.1089,2.1089,2.1089,2.1089,2.1089,2.1068,2.1021,2.1021,2.1034,2.1034,2.1068,2.1089,2.1089,2.1055,2.098,2.0824,2.0526,2.0261,2.0119,1.9834,1.9725,1.9725,1.9725,1.9725,1.9725,1.9725,1.9725,1.9725,1.9725,1.9725,1.9725,1.9725,1.9725,1.9725,1.9725,1.9725,3.008,2.9375,2.862,2.862,2.862,2.862,2.8668,0.0,2.8717,2.8765,0.0,2.8777,2.8789,0.0,0.0,2.8789,2.9248,2.9598,2.9622,3.0346,3.1344,3.2545,3.2873,3.2287,3.0439,2.7061,2.4662,2.3926,2.2349,2.1305,2.1093,2.1131,2.1287,2.1578,2.1593,2.1888,2.2501,2.2501,2.2618,2.3006,2.227,2.1819,2.1555,2.085,2.0476,2.0476,2.0476,2.0476,2.0476,2.0476,2.0476,2.0476,2.0476,2.0476,2.0476,2.0476,2.0476,2.0476,2.0476,2.0476,2.0476,2.0476,2.0627,2.0756,2.0756,2.0858,2.098,2.1001,2.1001,2.1034,2.1157,2.1197,2.1231,2.1353,2.1321,2.1321,2.1321,2.1321,2.1321,2.1321,2.1321,2.1299,2.1055,2.1109,2.1197,2.1197,2.1299,2.1321,2.1321,2.1265,2.1143,2.098,2.0594,2.0261,2.0119,1.9834,1.9725,1.9725,1.9725,1.9725,1.9725,1.9725,1.9725,1.9725,1.9725,1.9725,1.9725,1.9725,1.9725,1.9725,1.9725,1.9725,3.008,2.9615,2.9004,2.8668,2.8812,2.9004,2.8668,2.862,2.862,2.862,0.0,0.0,0.0,0.0,0.0,0.0,2.9067,2.9405,2.9405,3.0105,3.0914,3.1735,3.206,3.1735,3.0391,2.8112,2.6239,2.4944,2.3136,2.2096,2.2217,2.2181,2.2382,2.2667,2.269,2.2856,2.3113,2.3113,2.3342,2.3693,2.2511,2.2061,2.2126,2.0984,2.0476,2.0539,2.092,2.1118,2.1181,2.1555,2.1752,2.1752,2.1752,2.1245,2.0476,2.0476,2.0476,2.0476,2.0476,2.0476,2.0476,2.0476,2.0648,2.079,2.0878,2.1001,2.1143,2.1231,2.1199,2.1265,2.1267,2.1353,2.1353,2.1421,2.1375,2.1375,2.1375,2.1375,2.1375,2.1375,2.1375,2.1341,2.1279,2.1299,2.1353,2.1353,2.1341,2.1375,2.1375,2.1321,2.1319,2.1265,2.0933,2.0614,2.032,2.0085,1.9902,1.9739,1.9725,1.9725,1.9725,1.9725,1.9725,1.9725,1.9725,1.9725,1.9725,1.9725,1.9725,1.9725,1.9725,1.9725,3.0392,2.9855,2.9321,2.8934,2.9018,2.91,2.8668,2.862,2.862,2.862,2.862,0.0,0.0,0.0,2.862,2.862,0.0,2.9188,2.9188,2.9695,3.0298,3.0926,3.13,3.1194,3.0465,2.9065,2.7501,2.5848,2.4028,2.3008,2.2895,2.2976,2.3146,2.3447,2.3504,2.3528,2.3528,2.3528,2.3699,2.4064,2.2882,2.2428,2.2569,2.1555,2.0984,2.085,2.1555,2.1865,2.1928,2.2372,2.2569,2.2569,2.2569,2.1992,2.1047,2.1047,2.0984,2.0786,2.0786,2.0673,2.0539,2.053,2.0702,2.0858,2.1021,2.1157,2.1299,2.1341,2.1375,2.1375,2.1375,2.1375,2.1375,2.1375,2.1375,2.1375,2.1375,2.1375,2.1375,2.1375,2.1375,2.1375,2.1375,2.1375,2.1375,2.1375,2.1375,2.1375,2.1375,2.1375,2.1375,2.1375,2.1177,2.0878,2.056,2.0275,1.9976,1.9739,1.9725,1.9725,1.9725,1.9725,1.9725,1.9725,1.9725,1.9725,1.9725,1.9725,1.9725,1.9725,1.9725,1.9725,3.1113,3.0229,2.9381,2.9381,2.8994,2.862,2.862,2.862,2.862,2.862,2.862,2.862,2.862,2.862,2.862,0.0,2.8584,0.0,0.0,2.8669,2.926,3.0817,3.1469,3.1742,3.1754,3.0136,2.8489,2.7136,2.5385,2.3867,2.2766,2.2895,2.3081,2.3312,2.3447,2.3528,2.3528,2.3528,2.3699,2.4064,2.3377,2.2888,2.2569,2.2569,2.2189,2.1618,2.226,2.2569,2.2569,2.2569,2.2569,2.2569,2.2569,2.2569,2.2506,2.2506,2.2126,2.1555,2.1555,2.1111,2.056,2.0716,2.0858,2.1021,2.1157,2.1319,2.1375,2.1375,2.1375,2.1375,2.1375,2.1375,2.1375,2.1375,2.1375,2.1375,2.1375,2.1375,2.1375,2.1375,2.1375,2.1375,2.1375,2.1375,2.1375,2.1375,2.1375,2.1375,2.1375,2.1375,2.1375,2.1375,2.1177,2.0878,2.056,2.0275,1.9976,1.9739,1.9725,1.9725,1.9725,1.9725,1.9725,1.9725,1.9725,1.9725,1.9725,1.9725,1.9725,1.9725,1.9725,1.9725,3.1163,3.0715,3.0243,2.9553,2.9481,2.9423,2.8764,2.862,2.8717,2.9067,2.8862,2.8729,2.9079,2.8862,0.0,0.0,0.0,2.862,0.0,2.8777,2.9151,2.9864,3.0566,3.1064,3.1248,3.0252,2.8704,2.6401,2.4846,2.3391,2.1941,2.1967,2.2419,2.3295,2.3422,2.3528,2.3528,2.3528,2.3699,2.4064,2.3438,2.3192,2.3273,2.283,2.2498,2.2323,2.2941,2.3273,2.3273,2.3716,2.389,2.389,2.389,2.389,2.3842,2.2941,2.2435,2.2196,2.1752,2.1111,2.056,2.0716,2.0878,2.1034,2.1177,2.1319,2.1375,2.1375,2.1375,2.1375,2.1375,2.1375,2.1375,2.1375,2.1375,2.1375,2.1375,2.1375,2.1375,2.1375,2.1375,2.1375,2.1375,2.1375,2.1375,2.1375,2.1375,2.1375,2.1375,2.1375,2.1375,2.1375,2.1353,2.1089,2.051,2.0085,1.9827,1.9725,1.9725,1.9725,1.9725,1.9725,1.9725,1.9725,1.9725,1.9725,1.9725,1.9725,1.9725,1.9725,1.9725,1.9725,3.144,3.1096,3.0776,3.0123,3.0058,2.9958,2.9334,2.9188,2.9284,2.9622,2.9272,2.9006,2.9344,2.897,0.0,0.0,0.0,0.0,0.0,2.8765,2.9006,2.9369,2.9945,3.0514,3.0936,3.0401,2.9152,2.7113,2.5268,2.3574,2.2048,2.1739,2.1914,2.2673,2.3213,2.3528,2.3528,2.3528,2.3699,2.4064,2.3632,2.3496,2.3581,2.3384,2.3202,2.3005,2.3645,2.3953,2.4016,2.4395,2.4592,2.4592,2.4592,2.4592,2.4529,2.3645,2.3005,2.2498,2.1816,2.1111,2.051,2.079,2.0912,2.1034,2.1231,2.1301,2.1375,2.1375,2.1375,2.1375,2.1375,2.1375,2.1375,2.1375,2.1375,2.1375,2.1375,2.1375,2.1375,2.1375,2.1375,2.1375,2.1375,2.1375,2.1375,2.1375,2.1375,2.1375,2.1375,2.1375,2.1375,2.1375,2.1375,2.1125,2.053,1.9997,1.9725,1.9725,1.9725,1.9725,1.9725,1.9725,1.9739,1.9793,1.9739,1.9739,1.9793,1.9739,1.9725,1.9725,1.9725,1.9725]},{"header":{"parameterUnit":"m.s-1","parameterCategory":1,"la1":30.6,"la2":29.2853,"lo1":-89.7004,"lo2":-87.6739,"dy":0.0162,"dx":0.0183,"nx":112,"ny":82,"refTime":"2023-04-08T12:00:00:Z","depth":0,"parameterNumber":3,"parameterNumberName":"V-component_of_WINDS"},"data":[0.0,0.0,0.0,0.0,0.0,0.0,0.0,0.0,0.0,0.0,0.0,0.0,0.0,0.0,0.0,0.0,0.0,0.0,0.0,0.0,0.0,0.0,0.0,0.0,0.0,0.0,0.0,0.0,0.0,0.0,0.0,0.0,0.0,0.0,0.0,0.0,0.0,0.0,0.0,0.0,0.0,0.0,0.0,0.0,0.0,0.0,0.0,0.0,0.0,0.0,0.0,0.0,0.0,0.0,0.0,0.0,0.0,0.0,0.0,0.0,0.0,0.0,0.0,0.0,0.0,0.0,0.0,0.0,0.0,0.0,0.0,0.0,0.0,0.0,0.0,0.0,0.0,0.0,0.0,0.0,0.0,0.0,0.0,0.0,0.0,0.0,0.0,0.0,0.0,0.0,6.4297,6.4297,6.4297,6.4297,6.4297,6.4297,6.4297,6.4297,0.0,0.0,0.0,0.0,0.0,0.0,0.0,0.0,0.0,0.0,0.0,0.0,0.0,0.0,0.0,0.0,0.0,0.0,0.0,0.0,0.0,0.0,0.0,0.0,0.0,0.0,0.0,0.0,0.0,0.0,0.0,0.0,0.0,0.0,0.0,0.0,0.0,0.0,0.0,0.0,0.0,0.0,0.0,0.0,0.0,0.0,0.0,0.0,0.0,0.0,0.0,0.0,0.0,0.0,0.0,0.0,0.0,0.0,0.0,0.0,0.0,0.0,0.0,0.0,0.0,0.0,0.0,0.0,0.0,0.0,0.0,0.0,0.0,0.0,0.0,0.0,0.0,0.0,0.0,0.0,0.0,0.0,0.0,0.0,0.0,0.0,0.0,0.0,0.0,0.0,0.0,0.0,0.0,0.0,0.0,0.0,0.0,0.0,0.0,0.0,0.0,0.0,0.0,0.0,6.4297,6.4297,6.4297,6.4297,6.4297,6.4297,6.4297,6.4297,0.0,0.0,0.0,0.0,0.0,0.0,0.0,0.0,0.0,0.0,0.0,0.0,0.0,0.0,0.0,0.0,0.0,0.0,0.0,0.0,0.0,0.0,0.0,0.0,0.0,0.0,0.0,0.0,0.0,0.0,0.0,0.0,0.0,0.0,0.0,0.0,0.0,0.0,0.0,0.0,0.0,0.0,0.0,0.0,0.0,0.0,0.0,0.0,0.0,0.0,0.0,0.0,0.0,0.0,0.0,0.0,0.0,0.0,0.0,0.0,0.0,0.0,0.0,0.0,0.0,0.0,0.0,0.0,0.0,0.0,0.0,0.0,0.0,0.0,0.0,0.0,0.0,0.0,0.0,0.0,0.0,0.0,0.0,0.0,0.0,0.0,0.0,0.0,0.0,0.0,0.0,0.0,0.0,0.0,0.0,0.0,0.0,0.0,0.0,0.0,0.0,0.0,0.0,6.5703,6.5703,6.5703,6.5703,6.5703,6.5703,6.5703,6.5703,6.5703,6.5703,0.0,0.0,0.0,0.0,0.0,0.0,0.0,0.0,0.0,0.0,0.0,0.0,0.0,0.0,0.0,0.0,0.0,0.0,0.0,0.0,0.0,0.0,0.0,0.0,0.0,0.0,0.0,0.0,0.0,0.0,0.0,0.0,0.0,0.0,0.0,0.0,0.0,0.0,0.0,0.0,0.0,0.0,0.0,0.0,0.0,0.0,0.0,0.0,0.0,0.0,0.0,0.0,0.0,0.0,0.0,0.0,0.0,0.0,0.0,0.0,0.0,0.0,0.0,0.0,0.0,0.0,0.0,0.0,0.0,0.0,0.0,0.0,0.0,0.0,0.0,0.0,0.0,0.0,0.0,0.0,0.0,0.0,0.0,0.0,0.0,0.0,0.0,0.0,0.0,0.0,0.0,0.0,0.0,0.0,0.0,0.0,0.0,0.0,0.0,0.0,0.0,0.0,6.6914,6.6914,6.6914,6.6914,6.6914,6.6914,6.6914,6.6914,6.6914,6.6914,0.0,0.0,0.0,0.0,0.0,0.0,0.0,0.0,0.0,0.0,0.0,0.0,0.0,0.0,0.0,0.0,0.0,0.0,0.0,0.0,0.0,0.0,0.0,0.0,0.0,0.0,0.0,0.0,0.0,0.0,0.0,0.0,0.0,0.0,0.0,0.0,0.0,0.0,0.0,0.0,0.0,0.0,0.0,0.0,0.0,0.0,0.0,0.0,0.0,0.0,0.0,0.0,0.0,0.0,0.0,0.0,0.0,0.0,0.0,0.0,0.0,0.0,0.0,0.0,0.0,0.0,0.0,0.0,0.0,0.0,0.0,0.0,0.0,0.0,0.0,0.0,0.0,0.0,0.0,0.0,0.0,0.0,0.0,0.0,0.0,0.0,0.0,0.0,0.0,0.0,0.0,0.0,0.0,0.0,0.0,0.0,0.0,0.0,0.0,0.0,0.0,0.0,6.6914,6.6914,6.6914,6.6914,6.6914,6.6914,6.6914,6.6914,6.6914,6.6914,0.0,0.0,0.0,0.0,0.0,0.0,0.0,0.0,0.0,0.0,0.0,0.0,0.0,0.0,0.0,0.0,0.0,0.0,0.0,0.0,0.0,0.0,0.0,0.0,0.0,0.0,0.0,0.0,0.0,0.0,0.0,0.0,0.0,0.0,0.0,0.0,0.0,0.0,0.0,0.0,0.0,0.0,0.0,0.0,0.0,0.0,0.0,0.0,0.0,0.0,0.0,0.0,0.0,0.0,0.0,0.0,0.0,0.0,0.0,0.0,0.0,0.0,0.0,0.0,0.0,0.0,0.0,0.0,0.0,0.0,0.0,0.0,0.0,0.0,0.0,0.0,0.0,0.0,0.0,0.0,0.0,0.0,0.0,0.0,0.0,0.0,0.0,0.0,0.0,0.0,0.0,0.0,0.0,0.0,0.0,0.0,0.0,0.0,0.0,0.0,0.0,0.0,6.8203,6.8515,6.8476,6.8476,6.8476,6.8476,6.8515,6.8515,6.8476,0.0,0.0,0.0,0.0,0.0,0.0,0.0,0.0,0.0,0.0,0.0,0.0,0.0,0.0,0.0,0.0,0.0,0.0,0.0,0.0,0.0,0.0,0.0,0.0,0.0,0.0,0.0,0.0,0.0,0.0,0.0,0.0,0.0,0.0,0.0,0.0,0.0,0.0,0.0,0.0,0.0,0.0,0.0,0.0,0.0,0.0,0.0,0.0,0.0,0.0,0.0,0.0,0.0,0.0,0.0,0.0,0.0,0.0,0.0,0.0,0.0,0.0,0.0,0.0,0.0,0.0,0.0,0.0,0.0,0.0,0.0,0.0,0.0,0.0,0.0,0.0,0.0,0.0,0.0,0.0,0.0,0.0,0.0,0.0,0.0,0.0,0.0,0.0,0.0,0.0,0.0,0.0,0.0,0.0,0.0,0.0,0.0,0.0,0.0,0.0,0.0,0.0,6.8594,6.9101,6.9453,6.9414,6.9414,6.9414,6.9414,6.9453,6.9453,6.9414,0.0,0.0,0.0,0.0,0.0,0.0,0.0,0.0,0.0,0.0,0.0,0.0,0.0,0.0,0.0,0.0,0.0,0.0,0.0,0.0,0.0,0.0,0.0,0.0,0.0,0.0,0.0,0.0,0.0,0.0,0.0,0.0,0.0,0.0,0.0,0.0,0.0,0.0,0.0,0.0,0.0,0.0,0.0,0.0,0.0,0.0,0.0,0.0,0.0,0.0,0.0,0.0,0.0,0.0,0.0,0.0,0.0,0.0,0.0,0.0,0.0,0.0,0.0,0.0,0.0,0.0,0.0,0.0,0.0,0.0,0.0,0.0,0.0,0.0,0.0,0.0,0.0,0.0,0.0,0.0,0.0,0.0,0.0,0.0,0.0,0.0,0.0,0.0,0.0,0.0,0.0,0.0,0.0,0.0,0.0,0.0,0.0,0.0,0.0,0.0,0.0,0.0,6.9414,6.9414,6.9414,6.9414,6.9414,6.9414,6.9414,6.9414,6.9453,0.0,0.0,0.0,0.0,0.0,0.0,0.0,0.0,0.0,0.0,0.0,0.0,0.0,0.0,0.0,0.0,0.0,0.0,0.0,0.0,0.0,0.0,0.0,0.0,0.0,0.0,0.0,0.0,0.0,0.0,0.0,0.0,0.0,0.0,0.0,0.0,0.0,0.0,0.0,0.0,0.0,0.0,0.0,0.0,0.0,0.0,0.0,0.0,0.0,0.0,0.0,0.0,0.0,0.0,0.0,0.0,0.0,0.0,0.0,0.0,0.0,0.0,0.0,0.0,0.0,0.0,0.0,0.0,0.0,0.0,0.0,0.0,0.0,0.0,0.0,0.0,0.0,0.0,0.0,0.0,0.0,0.0,0.0,0.0,0.0,0.0,0.0,0.0,0.0,0.0,0.0,0.0,0.0,0.0,0.0,0.0,0.0,0.0,0.0,0.0,0.0,0.0,0.0,7.0312,7.0731,7.1075,7.1211,7.1211,7.1211,7.1211,7.1211,7.125,7.125,0.0,0.0,0.0,0.0,0.0,0.0,0.0,0.0,0.0,0.0,0.0,0.0,0.0,0.0,0.0,0.0,0.0,0.0,0.0,0.0,0.0,0.0,0.0,0.0,0.0,0.0,0.0,0.0,0.0,0.0,0.0,0.0,0.0,0.0,0.0,0.0,0.0,0.0,0.0,0.0,0.0,0.0,0.0,0.0,0.0,0.0,0.0,0.0,0.0,0.0,0.0,0.0,0.0,0.0,0.0,0.0,0.0,0.0,0.0,0.0,0.0,0.0,0.0,0.0,0.0,0.0,0.0,0.0,0.0,0.0,0.0,0.0,0.0,0.0,0.0,0.0,0.0,0.0,0.0,0.0,0.0,0.0,0.0,0.0,0.0,0.0,0.0,0.0,0.0,0.0,0.0,0.0,0.0,0.0,0.0,0.0,0.0,0.0,0.0,0.0,0.0,0.0,7.1718,7.2374,7.2916,7.3008,7.3047,7.3047,7.3047,7.3047,7.3047,7.3047,0.0,0.0,0.0,0.0,0.0,0.0,0.0,0.0,0.0,0.0,0.0,0.0,0.0,0.0,0.0,0.0,0.0,0.0,0.0,0.0,0.0,0.0,0.0,0.0,0.0,0.0,0.0,0.0,0.0,0.0,0.0,0.0,0.0,0.0,0.0,0.0,0.0,0.0,0.0,0.0,0.0,0.0,0.0,0.0,0.0,0.0,0.0,0.0,0.0,0.0,0.0,0.0,0.0,0.0,0.0,0.0,0.0,0.0,0.0,0.0,0.0,0.0,0.0,0.0,0.0,0.0,0.0,0.0,0.0,0.0,0.0,0.0,0.0,0.0,0.0,0.0,0.0,0.0,0.0,0.0,0.0,0.0,0.0,0.0,0.0,0.0,0.0,0.0,0.0,0.0,0.0,0.0,0.0,0.0,0.0,0.0,0.0,0.0,0.0,0.0,0.0,0.0,7.3357,7.4062,7.457,7.4609,7.4609,7.4609,7.4609,7.4609,7.4609,7.4609,0.0,0.0,0.0,0.0,0.0,0.0,0.0,0.0,0.0,0.0,0.0,0.0,0.0,0.0,0.0,0.0,0.0,0.0,0.0,0.0,0.0,0.0,0.0,0.0,0.0,0.0,0.0,0.0,0.0,0.0,0.0,0.0,0.0,0.0,0.0,0.0,0.0,0.0,0.0,0.0,0.0,0.0,0.0,0.0,0.0,0.0,0.0,0.0,0.0,0.0,0.0,0.0,0.0,0.0,0.0,0.0,0.0,0.0,0.0,0.0,7.1711,6.9905,0.0,0.0,0.0,0.0,0.0,0.0,0.0,0.0,0.0,0.0,0.0,0.0,0.0,0.0,0.0,0.0,0.0,0.0,0.0,0.0,0.0,0.0,0.0,0.0,0.0,0.0,0.0,0.0,0.0,0.0,0.0,0.0,0.0,0.0,0.0,0.0,0.0,0.0,0.0,0.0,7.4046,7.4254,7.4431,7.457,7.4609,7.4609,7.4609,7.4609,7.4609,7.4609,7.4609,0.0,0.0,0.0,0.0,0.0,0.0,0.0,0.0,0.0,0.0,0.0,0.0,0.0,0.0,0.0,0.0,0.0,0.0,0.0,0.0,0.0,0.0,0.0,0.0,0.0,0.0,0.0,0.0,0.0,0.0,0.0,0.0,0.0,0.0,0.0,0.0,0.0,0.0,0.0,0.0,0.0,0.0,0.0,0.0,0.0,0.0,0.0,0.0,0.0,0.0,0.0,0.0,0.0,0.0,0.0,0.0,0.0,0.0,0.0,7.3919,7.1846,0.0,0.0,0.0,0.0,0.0,0.0,0.0,0.0,0.0,0.0,0.0,0.0,0.0,0.0,0.0,0.0,0.0,0.0,0.0,0.0,0.0,0.0,0.0,0.0,0.0,0.0,0.0,0.0,0.0,0.0,0.0,0.0,0.0,0.0,0.0,0.0,0.0,0.0,0.0,0.0,7.4907,7.5196,7.5457,7.5551,7.5669,7.5724,7.5724,7.5779,7.5819,7.5726,7.5724,0.0,0.0,0.0,0.0,0.0,0.0,0.0,0.0,0.0,0.0,0.0,0.0,0.0,0.0,0.0,0.0,0.0,0.0,0.0,0.0,0.0,0.0,0.0,0.0,0.0,0.0,0.0,0.0,0.0,0.0,0.0,0.0,0.0,0.0,0.0,0.0,0.0,0.0,0.0,0.0,0.0,0.0,0.0,0.0,0.0,0.0,0.0,0.0,0.0,0.0,0.0,0.0,0.0,7.59,7.6293,7.6482,7.8481,7.8638,7.7253,7.5998,7.4173,7.2211,7.2668,0.0,0.0,0.0,0.0,0.0,0.0,0.0,0.0,0.0,0.0,0.0,0.0,0.0,0.0,0.0,0.0,0.0,0.0,0.0,0.0,0.0,0.0,7.4476,7.5707,7.6015,7.563,7.4238,0.0,0.0,0.0,0.0,0.0,0.0,0.0,0.0,0.0,0.0,0.0,7.5697,7.6226,7.6582,7.6582,7.6746,7.685,7.685,7.6998,7.7006,7.6856,7.685,7.6765,0.0,0.0,0.0,0.0,0.0,0.0,0.0,0.0,0.0,0.0,0.0,0.0,0.0,0.0,0.0,0.0,0.0,0.0,0.0,0.0,0.0,0.0,0.0,0.0,0.0,0.0,0.0,0.0,0.0,0.0,0.0,0.0,7.0567,6.8392,0.0,0.0,0.0,0.0,0.0,0.0,0.0,0.0,0.0,0.0,0.0,0.0,0.0,7.5987,7.6833,7.9029,8.0146,8.0168,8.1701,8.2463,8.2448,8.2763,8.2793,8.2601,8.2394,0.0,7.6635,7.8861,0.0,0.0,0.0,0.0,0.0,0.0,0.0,0.0,0.0,0.0,0.0,0.0,0.0,0.0,0.0,0.0,0.0,0.0,0.0,0.0,0.0,0.0,7.6669,7.613,7.6015,7.5938,7.5707,7.5668,7.5668,7.5668,7.5668,7.5668,0.0,0.0,0.0,0.0,0.0,0.0,7.6196,7.6445,7.6582,7.6582,7.6604,7.6657,7.6657,7.6641,7.6683,7.6621,7.6657,7.6646,7.6582,7.6646,0.0,0.0,0.0,0.0,0.0,0.0,0.0,0.0,0.0,0.0,0.0,0.0,0.0,0.0,0.0,0.0,0.0,0.0,0.0,0.0,0.0,0.0,0.0,0.0,0.0,0.0,0.0,0.0,0.0,7.0167,7.0706,6.8622,6.9898,7.0283,0.0,0.0,0.0,0.0,0.0,0.0,0.0,0.0,0.0,7.8917,7.8948,7.9567,8.0831,8.1947,8.2524,8.2516,8.3255,8.3601,8.3601,8.3601,8.387,8.4324,8.4324,8.3555,8.2208,8.1439,7.9862,7.7984,0.0,0.0,0.0,0.0,7.6322,7.6515,7.7823,7.8284,7.8477,7.9592,0.0,0.0,0.0,0.0,0.0,0.0,0.0,7.6053,7.6245,7.6791,7.7092,7.6207,7.6015,7.6015,7.6015,7.6015,7.6015,7.6015,7.6015,7.6015,7.6015,7.6015,0.0,0.0,0.0,7.6172,7.6273,7.6261,7.6277,7.6277,7.6346,7.6434,7.6429,7.6552,7.6533,7.6448,7.6434,7.6366,7.6283,7.6356,7.6361,0.0,0.0,0.0,0.0,0.0,0.0,0.0,0.0,0.0,0.0,0.0,0.0,0.0,0.0,0.0,0.0,0.0,0.0,0.0,0.0,0.0,0.0,0.0,0.0,0.0,0.0,0.0,0.0,7.1052,7.1822,6.993,7.1168,7.1975,0.0,0.0,0.0,0.0,0.0,0.0,7.9446,7.9677,8.0485,8.2016,8.2054,8.267,8.3909,8.414,8.4255,8.4255,8.4255,8.4371,8.4563,8.4563,8.5055,8.5863,8.5863,8.6209,8.6555,8.3593,8.1477,8.0131,8.0131,7.9985,7.9754,7.9331,7.9177,7.9369,8.09,8.14,8.1516,8.217,8.2093,8.167,8.1246,0.0,0.0,0.0,0.0,7.8707,7.9331,7.9177,7.8638,7.7553,7.6976,7.663,7.663,7.663,7.6515,7.6092,7.6015,7.6015,7.6015,7.6015,0.0,7.6216,7.6113,7.6045,7.6189,7.6075,7.6015,7.6015,7.6147,7.6219,7.6213,7.6379,7.6371,7.6237,7.6213,7.6141,7.6029,7.616,7.6135,7.5984,0.0,0.0,0.0,0.0,0.0,0.0,0.0,0.0,0.0,0.0,0.0,0.0,0.0,0.0,0.0,0.0,0.0,0.0,0.0,0.0,0.0,0.0,0.0,0.0,0.0,0.0,0.0,0.0,0.0,7.3546,7.4707,0.0,0.0,0.0,0.0,7.8138,7.99,8.1246,8.2054,8.2909,8.3747,8.4662,8.4709,8.4739,8.4824,8.5593,8.5978,8.5978,8.5978,8.6401,8.7209,8.7209,8.7671,8.8526,8.8526,8.8526,8.8449,8.6594,8.5363,8.4585,8.4585,8.4055,8.3139,8.1554,8.0977,8.1093,8.1939,8.2247,8.2631,8.5055,8.4786,8.364,8.4401,8.3439,0.0,0.0,8.3747,8.5055,8.2708,8.2678,8.287,8.1246,7.9592,7.8369,7.8369,7.8369,7.7907,7.6322,7.6015,7.6015,7.6015,0.0,7.5984,7.6005,7.6029,7.5984,7.6005,7.6029,7.6015,7.6015,7.5991,7.6005,7.6005,7.602,7.6027,7.6005,7.6005,7.5998,7.6015,7.5998,7.5998,7.6015,7.5998,0.0,0.0,0.0,0.0,0.0,0.0,0.0,0.0,0.0,0.0,0.0,0.0,0.0,0.0,0.0,0.0,0.0,0.0,0.0,0.0,0.0,0.0,0.0,0.0,0.0,0.0,0.0,0.0,7.5284,7.7592,0.0,7.7715,7.8323,7.94,8.0831,8.2554,8.3901,8.4709,8.5055,8.5593,8.6478,8.6517,8.6786,8.7325,8.7632,8.7786,8.7786,8.7786,8.7948,8.8256,8.8256,8.841,8.8718,8.8718,8.8718,8.8641,8.8017,8.7594,8.7363,8.7363,8.7179,8.6794,8.6217,8.5978,8.6025,8.6333,8.641,8.6563,8.7487,8.7371,8.664,8.5286,8.447,8.3978,8.3978,8.4632,8.5247,8.4863,8.417,8.3178,8.1516,7.9792,7.8484,7.8484,7.8484,7.833,7.7715,7.7599,7.7599,7.7599,7.7169,7.6823,7.6823,7.6361,7.6015,7.6015,7.6015,7.6015,7.6015,7.6015,7.6015,7.6015,7.6015,7.6015,7.6015,7.6015,7.6015,7.6015,7.6015,7.6015,7.6015,7.6015,7.6015,0.0,0.0,0.0,0.0,0.0,0.0,0.0,0.0,0.0,0.0,0.0,0.0,0.0,0.0,0.0,0.0,0.0,0.0,0.0,0.0,0.0,0.0,0.0,0.0,0.0,7.6599,7.8361,7.7784,7.9708,8.0977,8.0669,8.117,8.2208,8.3901,8.5093,8.6094,8.694,8.6978,8.7248,8.7833,8.7825,8.8141,8.8679,8.8718,8.8718,8.8718,8.8718,8.8825,8.9094,8.9094,8.9286,8.9556,8.9556,8.9556,8.9556,8.9556,8.9556,8.9479,8.891,8.8718,8.8718,8.8718,8.8718,8.8718,8.8718,8.8718,8.8718,8.8718,8.8718,8.8449,8.7017,8.6585,8.6662,8.6931,8.7017,8.7171,8.7671,8.6132,8.417,8.3054,8.1054,7.9369,7.9369,7.9369,7.9369,7.9369,7.8907,7.8484,7.8484,7.8061,7.7715,7.7715,7.7215,7.6823,7.6823,7.6823,7.6823,7.6823,7.6823,7.6823,7.6823,7.6823,7.6823,7.6823,7.6823,7.6823,7.6823,7.6823,7.6707,7.6438,7.6438,7.6553,7.6823,0.0,0.0,0.0,0.0,0.0,0.0,0.0,0.0,0.0,0.0,0.0,0.0,0.0,0.0,0.0,0.0,0.0,0.0,0.0,0.0,0.0,0.0,0.0,7.7484,7.9554,8.117,8.1208,8.1246,8.2285,8.4786,8.3478,8.3862,8.7171,8.744,8.7825,8.8641,8.8718,8.8718,8.8756,8.8756,8.8756,8.8795,8.8795,8.8795,8.8795,8.8795,8.921,8.997,9.0009,9.047,9.1287,9.1287,9.1287,9.1287,9.1287,9.1287,9.1095,8.944,8.8795,8.8795,8.8795,8.8795,8.8795,8.8795,8.8795,8.8795,8.8795,8.8833,8.8987,8.9778,9.0009,9.0201,9.1047,9.1287,9.1287,9.1287,8.8709,8.6132,8.6132,8.3555,8.1093,8.1093,8.1093,8.1093,8.1093,7.9746,7.86,7.86,7.8561,7.8523,7.8523,7.8523,0.0,7.8484,7.8484,7.8484,7.8484,7.8484,7.8484,7.8484,7.8484,7.8484,7.8484,7.8484,7.8484,7.8484,7.8484,7.8138,7.7369,7.733,7.7715,7.8484,0.0,0.0,0.0,0.0,0.0,0.0,0.0,0.0,0.0,0.0,0.0,0.0,0.0,0.0,0.0,0.0,0.0,0.0,0.0,0.0,0.0,8.0139,8.1485,7.94,8.0746,8.2439,8.3708,8.4939,8.617,8.7517,8.7218,8.7333,8.8256,8.8333,8.8449,8.8679,8.8718,8.8979,8.9556,8.9547,8.9863,9.0517,9.0517,9.0517,9.0517,9.1133,9.1556,9.1787,9.2402,9.2787,9.3018,9.3018,9.3018,9.3018,9.3018,9.3018,9.2864,9.1171,9.0517,9.0517,9.0517,9.0517,9.0517,9.0517,9.0517,9.0633,9.1248,9.1441,9.1595,9.2402,9.2672,9.271,9.2941,9.3018,9.3018,9.3018,9.0056,8.7055,8.7055,8.4016,8.1093,8.1093,8.1093,8.1093,8.1093,8.0708,8.04,8.04,7.9862,7.9438,7.9438,7.8907,7.8484,7.8484,7.8484,7.8484,7.8484,7.8484,7.8484,7.8484,7.8484,7.8484,7.8484,7.8484,7.8484,7.8484,7.8484,7.8407,7.8176,7.8176,7.8292,0.0,0.0,0.0,0.0,0.0,0.0,0.0,0.0,0.0,0.0,0.0,0.0,0.0,0.0,0.0,0.0,0.0,0.0,0.0,0.0,0.0,0.0,8.3524,8.5217,8.3747,8.4362,8.5363,8.6363,8.7363,8.8141,8.8641,8.8718,8.8833,8.9171,8.921,8.9363,8.971,8.9748,9.0133,9.0979,9.097,9.1402,9.2249,9.2249,9.2249,9.2249,9.2749,9.2979,9.3018,9.348,9.371,9.371,9.371,9.371,9.371,9.371,9.371,9.3595,0.0,0.0,0.0,0.0,9.2249,9.2249,9.2249,9.2249,9.2326,9.2826,9.2979,9.3095,9.3557,9.371,9.371,9.371,9.371,9.371,9.371,9.0834,8.7948,8.7948,8.4986,8.2131,8.2131,8.2131,8.2131,8.2131,8.2131,0.0,8.2131,8.1131,8.0323,8.0323,7.99,7.96,7.96,7.96,7.96,7.96,7.96,7.96,7.96,7.96,0.0,0.0,0.0,7.96,7.96,7.9246,0.0,0.0,0.0,7.9208,7.96,7.96,0.0,0.0,7.883,7.8484,0.0,0.0,0.0,0.0,0.0,0.0,0.0,0.0,0.0,0.0,0.0,0.0,0.0,0.0,0.0,0.0,8.6679,8.8872,8.8987,8.8987,8.8949,8.8872,8.8833,8.8872,8.8987,8.8987,8.9325,9.0124,9.0201,9.0547,9.1441,9.1479,0.0,0.0,0.0,9.2979,9.3672,9.371,9.371,9.371,9.3787,9.3835,9.3835,9.3941,9.398,9.398,9.398,9.398,9.398,9.398,9.398,9.398,9.3787,9.371,9.371,9.371,9.371,9.371,9.371,0.0,0.0,9.3787,9.3835,9.3864,9.3941,9.398,9.398,9.398,9.398,9.398,9.398,9.1565,8.9141,8.9141,8.6448,8.387,8.387,8.3717,8.3601,8.3601,8.3601,8.3601,8.3601,8.237,8.1362,8.1362,8.1362,8.1362,8.1362,8.1362,8.1362,8.1362,8.1362,0.0,8.1362,8.1362,8.1362,8.1362,8.1362,8.1362,8.1362,8.0631,8.0592,8.1362,8.0631,8.0631,8.1362,8.1362,8.1362,8.1323,7.96,7.8792,0.0,0.0,0.0,0.0,0.0,0.0,0.0,0.0,0.0,0.0,0.0,0.0,0.0,0.0,0.0,8.5478,8.7902,8.9893,9.0633,9.071,9.0479,8.9748,8.9663,8.994,9.0633,9.071,9.1056,9.1941,9.2018,9.2364,9.3172,9.321,9.3287,9.3441,9.348,9.3518,9.371,9.371,9.371,9.371,9.4412,0.0,9.4758,9.548,9.5788,9.5788,9.5788,9.5788,9.5788,9.5788,9.5788,9.5672,9.4249,9.371,9.371,9.371,9.371,9.371,9.371,9.371,9.3826,9.4527,9.4758,9.4874,9.5595,9.5788,0.0,9.5788,9.5788,9.5788,9.5788,9.3787,9.1748,9.1748,8.8632,8.5632,8.5632,8.4555,8.3601,8.3601,8.3601,8.3601,8.3601,8.3332,8.3139,8.3139,8.3139,8.3139,8.3139,8.3139,8.3139,8.3139,8.3139,8.3139,8.3139,8.3139,8.3139,8.3139,8.3139,8.3139,8.3139,8.2947,8.2947,8.3101,8.2947,8.2947,8.3139,8.3139,8.3139,8.3101,8.1362,8.0592,0.0,0.0,0.0,0.0,0.0,0.0,0.0,0.0,0.0,0.0,0.0,8.2477,8.2901,0.0,8.6555,8.7778,8.9778,9.1364,9.1787,9.221,9.2133,9.1287,9.121,9.1518,9.2364,9.2441,9.2633,9.3056,9.3095,9.3287,9.3672,9.371,9.3912,9.4335,9.4335,9.4557,9.5018,9.5018,9.5018,9.5018,9.5441,9.5634,9.5672,9.6095,9.6519,9.6903,9.6903,9.7134,9.7557,9.7557,9.7557,9.7442,9.6596,9.5749,9.5018,9.5018,9.5018,9.5018,9.5018,9.5018,9.5057,9.5518,9.5634,9.5711,9.6172,9.6288,9.6288,9.6288,9.6288,9.6288,9.6288,9.4711,9.3095,9.3095,9.0171,8.7401,8.7401,8.6055,8.4978,8.5401,8.5486,8.564,8.6063,8.614,8.5563,8.387,8.3601,8.3601,8.3601,8.3601,8.3601,8.3601,8.3601,8.3601,8.3601,8.3601,8.3601,8.3601,8.3601,8.3601,8.3601,8.3601,8.3601,8.3601,8.3601,8.3601,8.3601,8.3601,8.3601,8.3563,8.2755,8.2362,0.0,0.0,0.0,0.0,0.0,0.0,0.0,8.0592,8.1977,8.1631,8.3062,8.4786,8.6324,8.7325,8.844,9.0124,9.171,9.271,9.271,9.3287,9.3518,9.3018,9.2826,9.2979,9.3633,9.371,9.3749,9.3941,9.3941,9.4018,9.421,9.421,9.4518,9.522,9.5258,9.5672,9.6519,9.6519,9.6634,9.6788,9.6788,9.6788,9.6788,9.6788,9.7134,9.775,9.775,9.8134,9.8788,9.8788,9.8788,9.8788,9.8788,9.798,9.6788,9.6788,9.6788,9.6788,9.6788,9.6788,9.6788,9.6788,9.6788,9.6788,9.6788,9.6788,9.6788,9.6788,9.6788,9.6788,9.6788,9.5749,9.4595,9.4287,9.1864,8.9564,8.9257,8.7825,8.6824,8.7517,8.7632,8.7872,8.8564,8.8718,8.7756,8.5025,8.4601,8.4601,8.4601,8.4601,8.4601,8.4601,8.4601,8.4601,8.4601,8.4601,8.4601,8.4601,8.4601,8.4601,8.4601,8.4601,8.4601,8.4601,8.4601,8.4601,8.4601,8.4601,8.4601,8.4601,8.4601,8.4217,7.2944,7.386,7.5938,7.6899,7.8861,8.0592,0.0,8.3247,8.5132,8.364,8.5255,8.7248,8.8218,8.9056,9.0201,9.1941,9.2979,9.3557,9.3557,9.3633,9.3941,9.4643,9.4027,9.3595,9.3672,9.371,9.4027,9.4797,9.4835,9.5172,9.598,9.6019,9.6057,9.6134,9.6134,9.6557,9.7365,9.7365,9.775,9.8519,9.8519,9.8519,9.8519,9.8519,9.8557,9.8634,9.8634,9.8711,9.8788,9.8788,9.8788,9.8788,9.8788,9.8673,9.8519,9.8519,9.8519,9.8519,9.8519,9.8519,9.8519,9.8519,9.8519,9.8519,9.8519,9.8519,9.8519,9.8519,9.8519,9.8519,9.8519,9.8365,9.7865,9.6365,9.4557,9.271,9.1248,8.9594,8.8449,8.8526,8.8564,8.8603,8.8679,8.8718,8.8564,8.8179,8.8141,8.8141,8.8141,8.8141,8.8141,8.8141,8.8141,8.8141,8.8141,8.8141,8.8141,8.8141,8.8141,8.8141,8.8141,8.8141,8.8141,8.8141,8.8141,8.8141,8.8141,8.8141,8.8141,8.8141,8.8141,8.6487,7.6746,7.7015,7.8246,8.1593,8.2862,8.3555,8.4555,8.5863,8.6786,8.6602,8.7786,8.9286,9.0671,9.1171,9.1787,9.2979,9.3912,9.445,9.445,9.4903,9.5365,9.5711,9.5441,9.5211,9.5211,9.5211,9.5365,9.5711,9.5749,9.6134,9.6942,9.7019,9.725,9.775,9.775,9.7904,9.825,9.825,9.8442,9.8788,9.8788,9.8788,9.8788,9.8788,9.9067,9.9567,10.0096,10.0289,10.0289,10.0289,10.0289,10.0289,10.0289,10.0289,10.0096,9.9173,9.8788,9.8788,9.8788,9.8788,9.8788,9.8788,9.8788,9.8788,9.8788,9.8788,9.8788,9.8788,9.8788,9.8788,9.8788,9.8788,9.8365,9.6711,9.498,9.3249,9.1556,8.9863,8.8833,8.9325,8.9402,8.9556,9.0056,9.0133,9.0133,9.0133,8.9334,8.8718,8.8718,8.8718,8.8718,8.8718,8.8718,8.8718,8.8718,8.8718,8.8718,8.8718,8.8718,8.8718,8.8718,8.8718,8.8718,8.8718,8.8718,8.8718,8.8718,8.8718,8.8718,8.8718,8.8718,8.7948,7.9361,8.0015,8.1246,8.544,8.6209,8.6401,8.8055,8.8248,8.8286,8.8902,8.9479,9.0278,9.1556,9.2172,9.2749,9.3557,9.4634,9.5374,9.5374,9.5903,9.6288,9.6288,9.6519,9.6634,9.6634,9.6634,9.6749,9.698,9.698,9.725,9.7827,9.7865,9.8134,9.8788,9.8788,9.8904,9.9183,9.9173,9.925,9.9481,9.9481,9.9481,9.9481,9.9481,9.9827,10.0491,10.101,10.1279,10.1279,10.1279,10.1279,10.1279,10.1279,10.1279,10.1212,9.9942,9.9481,9.9481,9.9481,9.9481,9.9481,9.9481,9.9481,9.9481,9.9481,9.9481,9.9481,9.9481,9.9481,9.9481,9.9481,9.9481,9.8942,9.6826,9.5326,9.3826,9.1672,9.0248,8.9556,9.0163,9.0278,9.047,9.1095,9.121,9.121,9.121,9.0171,8.9402,8.9402,8.9402,8.9402,8.9402,8.9402,8.9402,8.9402,8.9402,8.9402,8.9402,8.9402,8.9402,8.9402,8.9402,8.9402,8.9402,8.9402,8.9402,8.9402,8.9402,8.9402,8.9402,8.9402,8.9402,7.9361,8.22,8.5132,8.6901,8.7979,8.9026,9.071,9.0432,8.9816,8.9855,8.9893,8.9932,8.997,9.1364,9.2749,9.3557,9.5134,9.6249,9.6249,9.6288,9.6288,9.6288,9.698,9.7442,9.7442,9.7442,9.7827,9.8673,9.8711,9.8711,9.875,9.875,9.875,9.8788,9.8788,9.9221,10.0106,10.0106,10.0491,10.1202,10.1202,10.1202,10.1202,10.1202,10.1202,10.1289,10.1279,10.1279,10.1279,10.1279,10.1279,10.1279,10.1279,10.1279,10.1279,10.1202,10.1202,10.1202,10.1202,10.1202,10.1202,10.1202,10.1202,10.1202,10.1202,10.1202,10.1202,10.1202,10.1202,10.1202,10.1202,10.1202,10.0394,9.7096,9.6249,9.5288,9.1941,9.1171,9.1133,9.1171,9.1171,9.1171,9.121,9.121,9.121,9.121,9.1171,9.1133,9.1133,9.1133,9.1133,9.1133,9.1133,9.1133,9.1133,9.1133,9.1133,9.1133,9.1133,9.1133,9.1133,9.1133,9.1133,9.1133,9.1133,9.1133,9.1133,9.1133,9.1133,9.1133,9.1133,9.1133,8.3054,8.5247,8.7094,8.9363,8.971,8.9633,9.0201,8.971,8.9248,8.9778,8.9017,8.8594,8.9701,9.0855,9.1902,9.2787,9.4826,9.6288,9.6288,9.6749,9.7096,9.7096,9.7865,9.8596,9.9173,9.8711,9.8481,9.8788,9.8788,9.9058,9.9644,9.9644,9.9904,10.0404,10.0519,10.0596,10.0904,10.0904,10.1019,10.1279,10.1279,10.1279,10.1279,10.1279,10.1279,10.1279,10.1279,10.1279,10.1279,10.1279,10.1279,10.1279,10.1279,10.1279,10.1279,10.1279,10.1279,10.1279,10.1279,10.1279,10.1279,10.1279,10.1279,10.1279,10.1279,10.1279,10.1279,10.1279,10.1279,10.1279,10.1279,10.1279,10.0702,9.8481,9.7096,9.5672,9.3364,9.1979,9.121,9.121,9.121,9.121,9.121,9.121,9.121,9.121,9.121,9.121,9.121,9.121,9.121,9.121,9.121,9.121,9.121,9.121,9.121,9.121,9.121,9.121,9.121,9.121,9.121,9.121,9.121,9.121,9.121,9.121,9.121,9.121,9.121,9.121,8.567,8.7401,8.8748,9.071,9.0547,8.997,9.0278,8.971,8.9363,9.0201,8.9017,8.8286,8.9663,9.0133,9.0787,9.2249,9.4134,9.5672,9.6596,9.7173,9.7634,9.7942,9.8711,9.949,9.999,9.9865,9.9673,9.9673,9.9673,9.9942,10.0481,10.0481,10.0789,10.1279,10.1279,10.1279,10.1279,10.1279,10.1279,10.1279,10.1279,10.1279,10.1279,10.1279,10.1279,10.1279,10.1279,10.1279,10.1279,10.1279,10.1279,10.1279,10.1279,10.1279,10.1279,10.1279,10.1279,10.1279,10.1279,10.1279,10.1279,10.1279,10.1279,10.1279,10.1279,10.1279,10.1279,10.1279,10.1279,10.1279,10.1279,10.1279,10.0894,9.9211,9.7519,9.5826,9.4095,9.2364,9.121,9.121,9.121,9.121,9.121,9.121,9.121,9.121,9.121,9.121,9.121,9.121,9.121,9.121,9.121,9.121,9.121,9.121,9.121,9.121,9.121,9.121,9.121,9.121,9.121,9.121,9.121,9.121,9.121,9.121,9.121,9.121,9.121,9.121,8.7047,8.8701,9.0163,9.097,9.0624,9.0239,9.1095,9.0663,9.0316,9.1171,8.994,8.8949,8.9816,8.9325,8.9603,9.2133,9.3326,9.4749,9.7211,9.7596,9.7942,9.875,9.9644,10.0183,10.0183,10.0904,10.1279,10.1279,10.1279,10.1279,10.1279,10.1279,10.1279,10.1279,10.1279,10.1279,10.1279,10.1279,10.1279,10.1279,10.1279,10.1279,10.1279,10.1279,10.1279,10.1279,10.1279,10.1279,10.1279,10.1279,10.1279,10.1279,10.1279,10.1279,10.1279,10.1279,10.1279,10.1279,10.1394,10.1279,10.1279,10.1279,10.1279,10.1279,10.1279,10.1279,10.1279,10.1279,10.1279,10.1279,10.1279,10.1279,10.0894,9.9327,9.7596,9.5865,9.4172,9.2441,9.121,9.121,9.1248,9.1287,9.1325,9.1325,9.1325,9.1325,9.1325,9.1287,9.121,9.121,9.121,9.121,9.1248,9.1287,9.1287,9.1287,9.1325,9.1325,9.1287,9.1287,9.1287,9.121,9.121,9.121,9.121,9.121,9.121,9.121,9.121,9.121,9.121,9.121,8.8592,8.995,9.0885,9.1035,9.1464,9.1902,9.2133,9.2441,9.2787,9.3018,9.0757,8.9141,9.0594,9.0163,9.0441,9.2979,9.5172,9.698,9.8288,9.9019,9.9529,9.976,10.0481,10.1019,10.1019,10.1212,10.1279,10.1279,10.1279,10.1279,10.1279,10.1279,10.1279,10.1279,10.1279,10.1279,10.1279,10.1279,10.1279,10.1279,10.1279,10.1279,10.1279,10.1279,10.1279,10.1279,10.1279,10.1279,10.1279,10.1279,10.1279,10.1279,10.1279,10.1279,10.1279,10.1279,10.1279,10.1394,10.202,10.1779,10.1279,10.1279,10.1279,10.1279,10.1279,10.1279,10.1279,10.1279,10.1279,10.1279,10.1279,10.1279,10.1202,10.0789,9.8442,9.6172,9.5749,9.3287,9.121,9.121,9.171,9.2364,9.2941,9.3056,9.3056,9.3056,9.3056,9.2595,9.1364,9.121,9.121,9.121,9.1787,9.2172,9.2172,9.271,9.3056,9.3056,9.2479,9.2172,9.2172,9.1556,9.121,9.121,9.121,9.121,9.121,9.121,9.121,9.121,9.121,9.121,9.081,9.1759,9.2244,9.2151,9.26,9.2826,9.2095,9.2287,9.2394,9.158,8.9376,8.8201,9.0196,8.9914,9.0441,9.3758,9.5788,9.7519,9.9144,9.9798,10.0221,10.0596,10.1019,10.1279,10.1279,10.1279,10.1279,10.1279,10.1279,10.1279,10.1279,10.1279,10.1279,10.1279,10.1279,10.1279,10.1279,10.1279,10.1279,10.1279,10.1279,10.1279,10.1279,10.1279,10.1279,10.1279,10.1279,10.151,10.1904,10.1904,10.2097,10.2404,10.2404,10.2404,10.2404,10.2404,10.2404,10.252,10.2981,10.2904,10.2404,10.2404,10.2404,10.2404,10.2404,10.2404,10.2404,10.2404,10.2404,10.2404,10.2404,10.2404,10.2404,10.2404,9.9865,9.7596,9.8327,9.5249,9.2287,9.2287,9.2672,9.3172,9.3633,9.371,9.371,9.371,9.371,9.3364,9.2402,9.2287,9.2287,9.2287,9.271,9.3018,9.3018,9.3441,9.371,9.371,9.3287,9.3018,9.3018,9.2556,9.2287,9.2287,9.2287,9.2287,9.2287,9.2287,9.2287,9.2287,9.2287,9.2287,9.2975,9.3447,9.3573,9.3553,9.3591,9.3251,9.1683,9.1337,9.0849,8.9164,8.7555,8.7205,8.9817,8.961,9.0449,9.4797,9.6134,9.748,9.9913,10.0298,10.0481,10.1202,10.1279,10.1279,10.1279,10.1279,10.1279,10.1279,10.1279,10.1279,10.1279,10.1279,10.1279,10.1279,10.1279,10.1279,10.1279,10.1279,10.1279,10.1279,10.1279,10.1279,10.1279,10.1279,10.1394,10.151,10.151,10.202,10.2789,10.2789,10.3212,10.3905,10.3905,10.3905,10.3905,10.3905,10.3905,10.3905,10.3982,10.4097,10.3982,10.3905,10.3905,10.3905,10.3905,10.3905,10.3905,10.3905,10.3905,10.3905,10.3905,10.3905,10.3905,10.3905,10.1481,9.9519,10.101,9.748,9.4018,9.3903,9.3864,9.3903,9.4018,9.4057,9.4057,9.4057,9.4057,9.4057,9.4057,9.3826,9.371,9.371,9.3787,9.3864,9.3864,9.398,9.4057,9.4057,9.3941,9.3864,9.3864,9.3749,9.371,9.371,9.371,9.371,9.371,9.371,9.371,9.371,9.371,9.371,9.3075,9.3277,9.3408,9.3318,9.3378,9.3208,9.2304,9.2075,9.173,9.0759,8.924,8.9087,9.2343,9.1763,9.2364,9.7326,9.825,9.8981,10.0789,10.1096,10.1087,10.1279,10.1279,10.1279,10.1279,10.1279,10.1279,10.1279,10.1279,10.1279,10.1279,10.1279,10.1279,10.1279,10.1279,10.1279,10.1279,10.1279,10.1279,10.1279,10.1279,10.1279,10.1279,10.1279,10.1712,10.2404,10.2404,10.2904,10.3712,10.3712,10.3789,10.3905,10.3905,10.3905,10.3905,10.3905,10.3905,10.3982,10.4723,10.4905,10.4789,10.4097,10.3905,10.3905,10.3905,10.3905,10.3905,10.3905,10.3905,10.3905,10.3905,10.3905,10.3905,10.3905,10.2289,10.0894,10.1202,9.8442,9.5634,9.4912,9.4758,9.4989,9.5711,9.5865,9.5865,9.5865,9.5865,9.5865,9.5865,9.4595,9.371,9.371,9.4335,9.4758,9.4758,9.5441,9.5865,9.5865,9.5172,9.4758,9.4758,9.4066,9.371,9.371,9.371,9.371,9.371,9.371,9.371,9.371,9.371,9.371,9.4157,9.4533,9.4533,9.4022,9.4326,9.4158,9.1595,9.1344,9.1037,8.8847,8.7807,8.8008,9.0499,9.0725,9.1633,9.498,9.6259,9.7403,9.9096,9.9712,10.0289,10.1202,10.1279,10.1279,10.1279,10.1279,10.1279,10.1279,10.1279,10.1279,10.1279,10.1279,10.1279,10.1279,10.1279,10.1279,10.1279,10.1279,10.1279,10.1279,10.1279,10.151,10.202,10.202,10.252,10.3289,10.3289,10.3789,10.4482,10.4482,10.4789,10.5213,10.5213,10.5213,10.5213,10.5213,10.5213,10.529,10.5597,10.579,10.5713,10.529,10.5213,10.5213,10.5213,10.5213,10.5213,10.5213,10.5213,10.5213,10.5213,10.5213,10.5213,10.5213,10.4597,10.3202,10.0596,9.9442,9.825,9.6095,9.5672,9.5826,9.6249,9.6288,9.6288,9.6288,9.6288,9.6288,9.6288,9.5557,9.5057,9.5057,9.5441,9.5672,9.5672,9.6057,9.6288,9.6288,9.5903,9.5672,9.5672,9.5288,9.5057,9.5057,9.5057,9.5057,9.5057,9.5057,9.5057,9.5057,9.5057,9.5057,9.4834,9.5282,9.5128,9.4822,9.5121,9.4532,9.0809,9.0413,8.9912,8.6614,8.6111,8.6714,8.8179,8.9202,9.0417,9.2156,9.3694,9.5318,9.7221,9.8221,9.9385,10.1087,10.1279,10.1279,10.1279,10.1279,10.1279,10.1279,10.1279,10.1279,10.1279,10.1279,10.1279,10.1279,10.1279,10.1279,10.1279,10.1279,10.1394,10.1597,10.1597,10.202,10.2904,10.2904,10.3289,10.4222,10.4222,10.4597,10.5405,10.5405,10.579,10.6395,10.6395,10.6395,10.6395,10.6395,10.6395,10.6395,10.6395,10.6395,10.6395,10.6395,10.6395,10.6395,10.6395,10.6395,10.6395,10.6395,10.6395,10.6395,10.6395,10.6395,10.6395,10.6395,10.6395,10.5097,10.0404,10.0404,10.0279,9.6942,9.6288,9.6288,9.6288,9.6288,9.6288,9.6288,9.6288,9.6288,9.6288,9.6288,9.6288,9.6288,9.6288,9.6288,9.6288,9.6288,9.6288,9.6288,9.6288,9.6288,9.6288,9.6288,9.6288,9.6288,9.6288,9.6288,9.6288,9.6288,9.6288,9.6288,9.6288,9.6288,9.383,9.3917,9.3699,9.5162,9.4522,9.3047,9.1084,9.0108,8.8902,8.6279,8.6317,8.7121,8.804,8.8998,9.0186,9.1922,9.2948,9.4445,9.7039,9.8124,9.9307,10.1115,10.1279,10.1279,10.1279,10.1279,10.1279,10.1279,10.1279,10.1279,10.1279,10.1279,10.1279,10.1279,10.1279,10.1279,10.1279,10.1279,10.1712,10.252,10.252,10.2904,10.3789,10.3789,10.4212,10.4992,10.4992,10.5482,10.629,10.629,10.628,10.6395,10.6395,10.6395,10.6395,10.6395,10.6395,10.6395,10.6395,10.6395,10.6395,10.6395,10.6395,10.6395,10.6395,10.6395,10.6395,10.6395,10.6395,10.6395,10.6395,10.6395,10.6395,10.6395,10.6395,10.5395,10.1779,10.1202,10.0279,9.6942,9.6288,9.6288,9.6288,9.6288,9.6288,9.6288,9.6288,9.6288,9.6288,9.6288,9.6288,9.6288,9.6288,9.6288,9.6288,9.6288,9.6288,9.6288,9.6288,9.6288,9.6288,9.6288,9.6288,9.6288,9.6288,9.6288,9.6288,9.6288,9.6288,9.6288,9.6288,9.6288,9.3066,9.3715,9.3868,9.407,9.4477,9.4017,9.0729,9.0215,8.9525,8.6383,8.6441,8.7131,8.7475,8.7849,8.85,8.9698,9.0187,9.1692,9.5329,9.6568,9.8144,10.1,10.1279,10.1279,10.1279,10.1279,10.1279,10.1279,10.1279,10.1279,10.1279,10.1279,10.1279,10.1279,10.1279,10.1279,10.1279,10.1779,10.2289,10.2597,10.3097,10.3789,10.4597,10.4597,10.5097,10.5905,10.5905,10.6097,10.6395,10.6395,10.6395,10.6395,10.6395,10.6395,10.6395,10.6395,10.6395,10.6395,10.6395,10.6395,10.6395,10.6395,10.6395,10.6395,10.6395,10.6395,10.6395,10.6395,10.6395,10.6395,10.6395,10.6395,10.6395,10.6395,10.6395,10.552,10.201,10.1279,10.0279,9.6942,9.6288,9.6288,9.6288,9.6288,9.6288,9.6288,9.6288,9.648,9.698,9.7019,9.7211,9.775,9.6903,9.6288,9.6288,9.6288,9.6288,9.6288,9.6288,9.6288,9.6288,9.6288,9.6288,9.6288,9.6288,9.6288,9.6288,9.6288,9.6288,9.6288,9.6288,9.6288,9.192,9.2967,9.3563,9.3497,9.4105,9.3874,9.0584,9.0014,8.939,8.6661,8.6796,8.7409,8.7409,8.7591,8.7868,8.8251,8.874,9.0244,9.3515,9.4964,9.6702,9.9384,10.0182,10.0509,10.0509,10.1,10.1279,10.1279,10.1279,10.1394,10.1712,10.1712,10.1597,10.1279,10.1597,10.1712,10.1712,10.252,10.3097,10.3289,10.3982,10.4713,10.5482,10.5482,10.579,10.6395,10.6395,10.6395,10.6395,10.6395,10.6395,10.6395,10.6395,10.6395,10.6395,10.6395,10.6395,10.6395,10.6395,10.6395,10.6395,10.6395,10.6587,10.679,10.679,10.6587,10.6395,10.6395,10.6395,10.6395,10.6395,10.6395,10.6395,10.6395,10.6587,10.5779,10.2395,10.1904,10.1096,9.7711,9.7057,9.7057,9.7057,9.7057,9.7057,9.7057,9.7057,9.725,9.7827,9.7865,9.8134,9.8711,9.775,9.7057,9.7057,9.7057,9.7057,9.7057,9.7057,9.7057,9.7057,9.7057,9.7057,9.7057,9.7057,9.7057,9.7057,9.7057,9.7057,9.7019,9.6788,9.6519,9.0174,9.1347,9.2236,9.3945,9.32,9.1809,9.0805,8.9348,8.7944,8.6983,8.746,8.8081,8.8081,8.8721,8.9027,8.8234,8.9549,9.1007,9.1888,9.3598,9.5038,9.5872,9.7546,9.8642,9.8642,10.0192,10.1279,10.1279,10.1279,10.1712,10.252,10.2597,10.2212,10.1279,10.2097,10.2597,10.2597,10.3482,10.4299,10.5107,10.5107,10.5482,10.6395,10.6395,10.6395,10.6395,10.6395,10.6395,10.6395,10.6395,10.6395,10.6395,10.6395,10.6395,10.6395,10.6395,10.6395,10.6395,10.6395,10.6395,10.6395,10.6395,10.7021,10.7713,10.7713,10.7098,10.6395,10.6395,10.6395,10.6395,10.6395,10.6395,10.6395,10.6395,10.7098,10.6713,10.3289,10.3289,10.2904,9.9442,9.875,9.875,9.875,9.875,9.875,9.875,9.875,9.8788,9.8788,9.8788,9.8788,9.8788,9.8788,9.875,9.875,9.875,9.875,9.875,9.875,9.875,9.875,9.875,9.875,9.875,9.875,9.875,9.875,9.875,9.875,9.875,9.7904,9.7057,8.8243,8.9113,8.9741,9.0585,9.093,9.0737,8.9248,8.9004,8.8633,8.7136,8.7908,8.8912,8.8912,8.9141,8.962,9.062,9.0748,9.1449,9.356,9.4388,9.506,9.5933,9.7644,9.9212,10.0317,10.1,10.151,10.2097,10.2212,10.2597,10.3405,10.3482,10.3405,10.3097,10.3289,10.3482,10.3482,10.4289,10.4789,10.5107,10.5713,10.6087,10.6395,10.6395,10.6395,10.6395,10.6395,10.6395,10.6395,10.6395,10.6395,10.6395,10.6395,10.6395,10.6395,10.6395,10.679,10.729,10.729,10.7598,10.8098,10.8098,10.829,10.8482,10.8482,10.829,10.8098,10.8098,10.8098,10.8098,10.8098,10.8098,10.8098,10.8098,10.829,10.7598,10.4212,10.3712,10.2904,9.9442,9.8788,9.8788,9.8788,9.8788,9.8788,9.8788,9.8788,9.9029,9.9606,9.9683,9.9904,10.0404,10.0519,10.0019,9.8904,9.8788,9.8788,9.8788,9.8788,9.8788,9.8788,9.8788,9.8788,9.8788,9.8788,9.8788,9.8788,9.8788,9.8788,9.8788,9.8519,9.825,8.7195,8.83,8.9076,8.9561,8.9686,8.9501,8.8741,8.8514,8.8353,8.7852,8.8568,8.9409,8.9742,8.9791,9.0155,9.1298,9.1888,9.2446,9.309,9.4138,9.5109,9.5982,9.7078,9.8827,10.151,10.1779,10.2212,10.302,10.3097,10.3482,10.4289,10.4405,10.4482,10.4789,10.4482,10.4405,10.4405,10.5213,10.5597,10.5597,10.6087,10.6395,10.6395,10.6395,10.6395,10.6395,10.6395,10.6395,0.0,10.6395,10.6395,10.6395,10.6395,10.6587,10.6895,10.6895,10.7405,10.8213,10.8213,10.8482,10.8906,10.8906,10.9098,10.9483,10.979,10.9406,10.8906,10.8906,10.8906,10.8906,10.8906,10.8906,10.8906,10.8906,10.9213,10.8482,10.5097,10.4597,10.3789,10.0404,9.975,9.975,9.975,9.975,9.975,9.975,9.975,9.9942,10.0481,10.0606,10.0712,10.1202,10.1279,10.0894,9.9827,9.975,9.975,9.975,9.975,9.975,9.975,9.975,9.975,9.975,9.975,9.975,9.975,9.975,9.9596,9.9288,9.9288,9.9096,0.0,8.8415,8.9573,9.0193,8.9225,8.829,8.9027,8.8061,0.0,8.8978,8.937,8.9627,9.043,9.0583,9.0621,9.0669,9.2942,9.3771,9.1161,9.3064,9.5109,9.6261,9.6376,9.8029,10.2318,10.2712,10.3097,10.3905,10.3982,10.4289,10.5097,10.5223,10.5597,10.6405,10.5597,10.5223,10.5223,10.602,10.6395,10.6395,10.6395,10.6395,10.6395,10.6395,10.6395,10.6395,10.6395,10.6395,10.6395,10.6395,10.6395,10.651,10.651,10.701,10.779,10.779,10.829,10.8983,10.8983,10.8983,10.9098,10.9098,10.9598,11.0406,11.1291,11.0406,10.9098,10.9098,10.9098,10.9098,10.9098,10.9098,10.9098,10.9098,10.9713,10.9406,10.6097,10.602,10.5587,10.2087,10.151,10.1394,10.1279,10.1279,10.1279,10.1279,10.1279,10.1279,10.1279,10.1279,10.1279,10.1279,10.1279,10.1279,10.1279,10.1279,10.1279,10.1279,10.1279,10.1279,10.1279,10.1279,10.1279,10.1279,10.1279,10.1279,10.1279,10.1279,10.0904,10.0183,10.0183,9.976,8.573,0.0,8.7127,8.7881,8.8009,8.8006,0.0,8.8568,8.8835,8.9218,8.9818,9.0353,9.0544,9.0583,9.0843,9.1549,9.3376,9.4031,9.2113,9.3026,9.5176,9.875,9.9144,10.0308,10.3289,10.3597,10.3905,10.48,10.4789,10.5213,10.602,10.6097,10.6213,10.6395,10.6213,10.6097,10.6097,10.628,10.6395,10.6395,10.6395,10.6395,10.6395,10.6395,10.6395,10.6395,10.6395,10.6395,10.6395,10.6395,10.679,10.7405,10.7405,10.7905,10.8598,10.8598,10.9213,10.9906,10.9906,11.0291,11.0906,11.0906,11.1021,11.1203,11.1395,11.1203,11.0906,11.0906,11.0906,11.0906,11.0906,11.0906,11.0906,11.0906,11.1011,11.0598,10.8482,10.8213,10.729,10.3905,10.3289,10.2904,10.151,10.1279,10.1279,10.1279,10.1279,10.1279,10.1279,10.1279,10.1279,10.1279,10.1279,10.1279,10.1279,10.1279,10.1279,10.1279,10.1279,10.1279,10.1279,10.1279,10.1279,10.1279,10.1279,10.1279,10.1279,10.1279,10.1202,10.1019,10.1019,10.0904,8.5551,8.6056,8.6513,8.7322,8.7396,8.7432,8.8194,8.8717,8.918,8.9798,9.0277,9.0583,9.0583,9.0277,9.0298,9.1201,9.259,9.3687,9.4043,9.41,9.5646,9.9635,10.0404,10.1712,10.4212,10.4492,10.4789,10.5597,10.5713,10.5905,10.6405,10.6395,10.6395,10.6395,10.6395,10.6395,10.6395,10.6395,10.6395,10.6395,10.6395,10.6395,10.6395,10.6395,10.6395,10.6395,10.6395,10.6587,10.7021,10.7021,10.7521,10.829,10.829,10.879,10.9483,10.9483,10.9983,11.0791,11.0791,11.1098,11.1511,11.1511,11.1511,11.1511,11.1511,11.1511,11.1511,11.1511,11.1511,11.1511,11.1511,11.1511,11.1511,11.1511,11.1511,11.1011,10.929,10.8906,10.7905,10.4597,10.3905,10.3289,10.1587,10.1279,10.1279,10.1279,10.1279,10.1279,10.1279,10.1279,10.1279,10.1279,10.1279,10.1279,10.1279,10.1279,10.1279,10.1279,10.1279,10.1279,10.1279,10.1279,10.1279,10.1279,10.1279,10.1279,10.1279,10.1279,10.1279,10.1279,10.1279,10.1279,8.5785,8.6352,8.6873,8.7679,8.7426,8.7297,8.8549,8.8904,8.9318,9.0377,9.0583,9.0583,9.0583,9.0009,8.9829,9.0843,9.2005,9.3784,9.6644,9.6222,9.6857,10.0289,10.1404,10.2789,10.5097,10.529,10.5597,10.628,10.6395,10.6395,10.6395,10.6395,10.6395,10.6395,10.6395,10.6395,10.6395,10.6395,10.6395,10.6395,10.6395,10.6395,10.6395,10.6395,10.651,10.6587,10.6587,10.7098,10.7905,10.7905,10.8406,10.9098,10.9098,10.9598,11.0406,11.0406,11.0906,11.1511,11.1511,11.1511,11.1511,11.1511,11.1511,11.1511,11.1588,11.1703,11.1703,11.178,11.1703,11.1511,11.1511,11.1511,11.1511,11.1703,11.1703,11.128,10.9983,10.9713,10.8713,10.529,10.4713,10.3982,10.201,10.1712,10.1712,10.1712,10.1712,10.1712,10.1712,10.1712,10.1712,10.1712,10.1712,10.1712,10.1712,10.1712,10.1712,10.1712,10.1394,10.1279,10.1279,10.1279,10.1279,10.1279,10.1279,10.1279,10.1279,10.1279,10.1279,10.1279,10.1279,10.1279,8.5597,8.64,8.7147,8.7934,8.8582,8.9125,8.9462,8.9954,9.0366,9.0572,9.0583,9.0583,9.0583,9.0468,9.0968,9.2602,9.4376,9.6693,10.0115,9.9817,10.0317,10.2981,10.3982,10.4982,10.6097,10.6213,10.629,10.6395,10.6395,10.6395,10.6395,10.6395,10.6395,10.6395,10.6395,10.6395,10.6395,10.6395,10.6395,10.6395,10.6395,10.6395,10.6395,10.6395,10.679,10.7521,10.7521,10.7982,10.8713,10.8713,10.9213,10.9983,10.9983,11.0483,11.1291,11.1291,11.1406,11.1511,11.1511,11.1511,11.1511,11.1511,11.1511,11.1588,11.2291,11.2511,11.2714,11.3407,11.2599,11.1511,11.1511,11.1511,11.1703,11.2406,11.2511,11.2588,11.3099,11.3214,11.2214,10.879,10.8098,10.7098,10.3982,10.3482,10.3482,10.3482,10.3482,10.3482,10.3482,10.3482,10.3482,10.3482,10.3482,10.3482,10.3482,10.3482,10.3482,10.3482,10.2097,10.1279,10.1279,10.1279,10.1279,10.1279,10.1279,10.1279,10.1279,10.1279,10.1279,10.1279,10.1279,10.1279,8.6224,8.6407,8.6722,8.8334,8.8785,8.9076,8.9833,9.023,9.0491,9.0607,9.0638,9.0656,9.0593,9.1028,9.1972,9.3791,9.5193,9.7115,10.0192,10.0711,10.1691,10.4212,10.529,10.602,10.6405,10.6395,10.6395,10.6395,10.6395,10.6395,10.6395,10.6395,10.6395,10.6395,10.6395,10.6395,10.6395,10.6395,10.6395,10.6395,10.6395,10.6395,10.6395,10.6895,10.729,10.7713,10.8213,10.879,10.9598,10.9598,11.0098,11.0906,11.0906,11.1098,11.1511,11.1511,11.1511,11.1511,11.1511,11.1511,11.1588,11.2022,11.2088,11.2291,11.3099,11.3407,11.3483,11.3907,11.3407,11.2906,11.2906,11.2906,11.2906,11.3291,11.3407,11.3483,11.3907,11.3984,11.2983,10.9598,10.8906,10.779,10.4482,10.3905,10.3905,10.3905,10.3905,10.3905,10.3905,10.3905,10.3905,10.3905,10.3905,10.3905,10.3905,10.3905,10.3905,10.3905,10.3097,10.2712,10.2712,10.2712,10.2712,10.2712,10.2712,10.2712,10.2712,10.2712,10.2712,10.2712,10.2712,10.2712,8.6554,8.6407,8.6538,8.8451,8.8576,8.863,9.0362,9.0741,9.0879,9.1232,9.1151,9.1026,9.0951,9.2008,9.3356,9.4781,9.6431,9.8237,10.0307,10.1517,10.2901,10.4905,10.5905,10.6395,10.6395,10.6395,10.6395,10.6395,10.6395,10.6395,10.6395,10.6395,10.6395,10.6395,10.6395,10.6395,10.6395,10.6395,10.6395,10.6395,10.6587,10.6703,10.6703,10.7598,10.8098,10.829,10.8906,10.9713,11.0483,11.0483,11.0906,11.1511,11.1511,11.1511,11.1511,11.1511,11.1511,11.1511,11.1703,11.178,11.1895,11.2714,11.3022,11.3214,11.3984,11.4291,11.4291,11.4484,11.4599,11.4484,11.4099,11.3984,11.4099,11.4291,11.4291,11.4407,11.4484,11.4599,11.3714,11.0714,10.979,10.8598,10.5597,10.4713,10.4482,10.4482,10.4482,10.4482,10.4482,10.4482,10.4482,10.4482,10.4482,10.4482,10.4482,10.4482,10.4482,10.4482,10.4097,10.3905,10.3905,10.3905,10.3905,10.3905,10.3905,10.3905,10.3905,10.3905,10.3905,10.3905,10.3905,10.3905,8.5857,8.6407,8.7127,8.7951,8.8059,8.8653,9.1419,9.2099,9.234,9.296,9.2561,9.2065,9.1916,9.3907,9.5564,9.57,9.9229,10.2002,10.2215,10.368,10.4905,10.5107,10.5905,10.6395,10.6395,10.6395,10.6395,10.6395,10.6395,10.6395,10.6395,10.6395,10.6395,10.6395,10.6395,10.6395,10.6395,10.6395,10.6395,10.6395,10.7213,10.7598,10.7598,10.8406,10.929,10.9983,11.0109,11.0598,11.1395,11.1395,11.1395,11.1511,11.1511,11.1511,11.1511,11.1511,11.1511,11.1588,11.2406,11.2588,11.2791,11.3599,11.3907,11.4099,11.4907,11.5215,11.5418,11.6099,11.6303,11.5995,11.4407,11.3984,11.4214,11.4984,11.5215,11.5407,11.6187,11.6303,11.5803,11.3984,11.2406,11.0714,10.8906,10.729,10.6203,10.6203,10.6203,10.6203,10.6203,10.6203,10.6203,10.6203,10.6203,10.6203,10.6203,10.6203,10.6203,10.6203,10.4789,10.3905,10.3905,10.3905,10.3905,10.3905,10.3905,10.3905,10.3905,10.3905,10.3905,10.3905,10.3905,10.3905,8.593,8.6004,8.6648,8.8355,8.8424,8.8859,9.1799,9.243,9.2611,9.3207,9.357,9.3896,9.4403,9.5325,9.6334,9.737,10.0294,10.2691,10.3306,10.4385,10.529,10.579,10.6213,10.6395,10.6395,10.6395,10.6395,10.6395,10.6395,10.6395,10.6395,10.6395,10.6395,10.6395,10.6395,10.6395,10.6395,10.6895,10.7213,10.7213,10.7521,10.7982,10.8482,10.929,10.9906,11.0214,11.0791,11.1214,11.1511,11.1511,11.1511,11.1511,11.1511,11.1511,11.1511,11.1511,11.178,11.2291,11.2599,11.3099,11.3714,11.4484,11.4791,11.4984,11.5803,11.5995,11.611,11.6418,11.6495,11.6418,11.5715,11.561,11.5599,11.5995,11.5995,11.6099,11.6418,11.6495,11.5995,11.4291,11.2599,11.0895,10.9213,10.7521,10.6395,10.6395,10.6395,10.6395,10.6395,10.6395,10.6395,10.6395,10.6395,10.6395,10.6395,10.6395,10.6395,10.6395,10.579,10.5482,10.5482,10.5482,10.5482,10.5482,10.5482,10.5482,10.5482,10.5482,10.5482,10.5482,10.5482,10.5482,8.593,8.58,8.625,8.8055,8.8897,8.9945,9.2455,9.3212,9.3662,9.4728,9.5256,9.5604,9.5951,9.6489,9.7325,9.8708,10.1218,10.3316,10.4085,10.5,10.5713,10.628,10.6395,10.6395,10.6395,10.6395,10.6395,10.6395,10.6395,10.6395,10.6395,10.6395,10.6395,10.6395,10.6395,10.651,10.679,10.7405,10.7982,10.8482,10.8482,10.879,10.929,11.0214,11.0598,11.0598,11.1203,11.1511,11.1511,11.1511,11.1511,11.1511,11.1511,11.1703,11.1906,11.1906,11.2406,11.3099,11.3407,11.3907,11.4599,11.5407,11.5687,11.5803,11.6303,11.6495,11.6495,11.6495,11.6495,11.6495,11.6495,11.6495,11.6495,11.6495,11.6495,11.6495,11.6495,11.6495,11.6187,11.4984,11.3407,11.1703,11.0021,10.829,10.701,10.651,10.6395,10.6395,10.6395,10.6395,10.6395,10.6395,10.6395,10.6395,10.6395,10.6395,10.6395,10.6395,10.6395,10.6395,10.6395,10.6395,10.6395,10.6395,10.6395,10.6395,10.6395,10.6395,10.6395,10.6395,10.6395,10.6395,8.58,8.58,8.6021,8.6811,8.9357,9.2029,9.3599,9.4636,9.5887,9.7902,9.7733,9.6966,9.627,9.7439,9.8786,9.9553,10.1988,10.402,10.4904,10.5795,10.6395,10.6395,10.6395,10.6395,10.6395,10.6395,10.6395,10.6395,10.6395,10.6395,10.6395,10.6395,10.6395,10.6395,10.6395,10.678,10.7713,10.7713,10.8598,11.0224,11.0224,11.0224,11.0214,11.1098,11.1511,11.1511,11.1511,11.1511,11.1511,11.1511,11.1511,11.1511,11.1511,11.2022,11.2714,11.2714,11.3291,11.4099,11.4984,11.5291,11.5407,11.6176,11.6495,11.6495,11.6495,11.6495,11.6495,11.6495,11.6495,11.6495,11.6495,11.6495,11.6495,11.6495,11.6495,11.6495,11.6495,11.6495,11.6495,11.6495,11.5099,11.3483,11.178,11.0098,10.829,10.6713,10.6395,10.6395,10.6395,10.6395,10.6395,10.6395,10.6395,10.6395,10.6395,10.6395,10.6395,10.6395,10.6395,10.6395,10.6395,10.6395,10.6395,10.6395,10.6395,10.6395,10.6395,10.6395,10.6395,10.6395,10.6395,10.6395,8.58,8.6628,8.7794,8.9087,9.1367,9.3972,9.6498,9.6489,9.6437,9.8198,9.7828,9.7311,9.7778,9.8326,9.8951,9.9726,10.2102,10.4095,10.5018,10.5808,10.6395,10.6395,10.6395,10.6395,10.6395,10.6395,10.6395,10.6395,10.6395,10.6395,10.6395,10.6395,10.6395,10.6395,10.7021,10.7405,10.7713,10.8906,10.9713,11.0224,11.0791,11.1098,11.1098,11.1406,11.1511,11.1511,11.1511,11.1511,11.1511,11.1511,11.1511,11.1588,11.2088,11.2522,11.2791,11.3407,11.4214,11.4984,11.5215,11.5687,11.6187,11.6418,11.6495,11.6495,11.6495,11.6495,11.6495,11.6495,11.6495,11.6495,11.6495,11.6495,11.6495,11.6495,11.6495,11.6495,11.6495,11.6495,11.6495,11.6495,11.5099,11.3483,11.178,11.0098,10.829,10.6713,10.6395,10.6395,10.6395,10.6395,10.6395,10.6395,10.6395,10.6395,10.6395,10.6395,10.6395,10.6395,10.6395,10.6395,10.6395,10.6395,10.6395,10.6395,10.6395,10.6395,10.6395,10.6395,10.6395,10.6395,10.6395,10.6395,8.6664,8.7692,8.9096,9.0905,9.3152,9.5604,9.8293,9.8389,9.8256,9.9384,9.9074,9.8821,9.9445,9.993,10.0518,10.1303,10.3114,10.4713,10.5482,10.6097,10.6395,10.6395,10.6395,10.6395,10.6395,10.6395,10.6395,10.6395,10.6395,10.6395,10.6395,10.6395,10.6597,10.6895,10.7405,10.7982,10.8713,10.9713,11.0406,11.0714,11.1203,11.1511,11.1511,11.1511,11.1511,11.1511,11.1511,11.1511,11.1511,11.178,11.2022,11.2099,11.2906,11.3407,11.3791,11.4291,11.511,11.5803,11.5803,11.611,11.6495,11.6495,11.6495,11.6495,11.6495,11.6495,11.6495,11.6495,11.6495,11.6495,11.6495,11.6495,11.6495,11.6495,11.6495,11.6495,11.6495,11.6495,11.6495,11.6495,11.5676,11.4484,11.2791,11.1598,11.0098,10.7713,10.678,10.6395,10.6395,10.6395,10.6395,10.6395,10.6395,10.6395,10.6395,10.6395,10.6395,10.6395,10.6395,10.6395,10.6395,10.6395,10.6395,10.6395,10.6395,10.6395,10.6395,10.6395,10.6395,10.6395,10.6395,10.6395,8.8096,8.8996,9.0256,9.2501,9.4822,9.7099,9.9222,10.0202,10.07,10.0891,10.0793,10.0782,10.0989,10.1814,10.2683,10.35,10.4516,10.5395,10.6308,10.6395,10.6395,10.6395,10.6395,10.6395,10.6395,10.6395,10.6395,10.6395,10.6395,10.6395,10.6395,10.6395,10.679,10.7713,10.779,10.8598,11.0224,11.0291,11.0714,11.1511,11.1511,11.1511,11.1511,11.1511,11.1511,11.1511,11.1511,11.1511,11.1703,11.2406,11.2703,11.2906,11.3791,11.4599,11.5291,11.5418,11.5918,11.6495,11.6495,11.6495,11.6495,11.6495,11.6495,11.6495,11.6495,11.6495,11.6495,11.6495,11.6495,11.6495,11.6495,11.6495,11.6495,11.6495,11.6495,11.6495,11.6495,11.6495,11.6495,11.6495,11.6495,11.5995,11.4291,11.3984,11.2791,10.9406,10.7521,10.6395,10.6395,10.6395,10.6395,10.6395,10.6395,10.6395,10.6395,10.6395,10.6395,10.6395,10.6395,10.6395,10.6395,10.6395,10.6395,10.6395,10.6395,10.6395,10.6395,10.6395,10.6395,10.6395,10.6395,10.6395,8.8923,9.0684,9.2719,9.447,9.7035,9.9255,9.9754,10.0189,10.0495,10.0088,10.0495,10.0782,10.0989,10.1712,10.249,10.3421,10.4313,10.5194,10.6116,10.6305,10.6395,10.6395,10.6395,10.6395,10.6395,10.6395,10.6395,10.6395,10.6395,10.6395,10.6395,10.6395,10.679,10.7713,10.829,10.9098,11.0224,11.0906,11.128,11.1511,11.1511,11.1511,11.1511,11.1511,11.1511,11.1511,11.1511,11.1906,11.2522,11.2588,11.3099,11.3791,11.4714,11.5099,11.5418,11.5995,11.6418,11.6495,11.6495,11.6495,11.6495,11.6495,11.6495,11.6495,11.6495,11.6495,11.6495,11.6495,11.6495,11.6495,11.6495,11.6495,11.6495,11.6495,11.6495,11.6495,11.6495,11.6495,11.6495,11.6495,11.6495,11.5995,11.4291,11.3984,11.2791,10.9406,10.7521,10.6395,10.6395,10.6395,10.6395,10.6395,10.6395,10.6395,10.6395,10.6395,10.6395,10.6395,10.6395,10.6395,10.6395,10.6395,10.6395,10.6395,10.6395,10.6395,10.6395,10.6395,10.6395,10.6395,10.6395,10.6395,8.9762,9.1582,9.3694,9.6102,9.8132,9.9642,9.9843,10.0101,10.0201,10.0189,10.0521,10.0681,10.0787,10.1914,10.2906,10.3289,10.45,10.5597,10.6111,10.6291,10.6305,10.6395,10.6315,10.6284,10.6284,10.6193,10.6182,10.6322,10.6284,10.6305,10.6395,10.679,10.7405,10.8213,10.9098,10.9906,11.0791,11.1291,11.1511,11.1511,11.1511,11.1511,11.1511,11.1511,11.1703,11.2088,11.2088,11.2511,11.3407,11.3791,11.4214,11.4714,11.5484,11.5918,11.5918,11.6303,11.6495,11.6495,11.6495,11.6495,11.6495,11.6495,11.6495,11.6495,11.6495,11.6495,11.6495,11.6495,11.6495,11.6495,11.6495,11.6495,11.6495,11.6495,11.6495,11.6495,11.6495,11.6495,11.6495,11.6495,11.6495,11.6176,11.5291,11.4484,11.3099,11.0521,10.8713,10.729,10.651,10.6395,10.6395,10.6395,10.6395,10.6395,10.6395,10.6395,10.6395,10.6395,10.6395,10.6395,10.6395,10.6395,10.6395,10.6395,10.6395,10.6395,10.6395,10.6395,10.6395,10.6395,10.6395,10.6395,9.0401,9.2205,9.4319,9.7206,9.8519,9.9196,9.9683,9.9843,10.0012,10.0483,10.0604,10.0604,10.0604,10.21,10.329,10.329,10.481,10.5985,10.6085,10.6194,10.6199,10.6294,10.6182,10.6205,10.6205,10.6079,10.5991,10.6205,10.6205,10.622,10.6402,10.7182,10.8,10.8906,10.9713,11.0598,11.1511,11.1511,11.1511,11.1511,11.1511,11.1511,11.1511,11.1588,11.2088,11.2714,11.2906,11.3407,11.4291,11.4984,11.5418,11.561,11.6176,11.6495,11.6495,11.6495,11.6495,11.6495,11.6495,11.6495,11.6495,11.6495,11.6495,11.6495,11.6495,11.6495,11.6495,11.6495,11.6495,11.6495,11.6495,11.6495,11.6495,11.6495,11.6495,11.6495,11.6495,11.6495,11.6495,11.6495,11.6495,11.6495,11.6495,11.5099,11.3407,11.1791,11.0021,10.829,10.6587,10.6395,10.6395,10.6395,10.6395,10.6395,10.6395,10.6395,10.6395,10.6395,10.6395,10.6395,10.6395,10.6395,10.6395,10.6395,10.6395,10.6395,10.6395,10.6395,10.6395,10.6395,10.6395,10.6395,9.039,9.3104,9.6029,9.7332,9.8117,9.8723,9.9181,9.9628,10.0012,10.0483,10.0604,10.0604,10.0604,10.1991,10.32,10.32,10.4721,10.5913,10.5898,10.5989,10.6018,10.6106,10.6018,10.6007,10.6007,10.5996,10.5996,10.6007,10.6007,10.6101,10.621,10.7104,10.7888,10.8906,10.9713,11.0598,11.1511,11.1511,11.1511,11.1511,11.1511,11.1511,11.1511,11.2203,11.2599,11.2703,11.3483,11.4291,11.5099,11.5303,11.5676,11.6418,11.6495,11.6495,11.6495,11.6495,11.6495,11.6495,11.6495,11.6495,11.6495,11.6495,11.6495,11.6495,11.6495,11.6495,11.6495,11.6495,11.6495,11.6495,11.6495,11.6495,11.6495,11.6495,11.6495,11.6495,11.6495,11.6495,11.6495,11.6495,11.6495,11.6495,11.6495,11.5099,11.3407,11.1791,11.0021,10.829,10.6587,10.6395,10.6395,10.6395,10.6395,10.6395,10.6395,10.6395,10.6395,10.6395,10.6395,10.6395,10.6395,10.6395,10.6395,10.6395,10.6395,10.6395,10.6395,10.6395,10.6395,10.6395,10.6395,10.6395,9.0828,9.38,9.6485,9.7388,9.7869,9.8271,9.8723,9.9167,9.9655,10.0114,10.0411,10.0604,10.0604,10.1979,10.3214,10.3214,10.4702,10.5795,10.5916,10.5898,10.5993,10.6012,10.6005,10.5882,10.5882,10.5901,10.5889,10.5882,10.5882,10.6208,10.6819,10.7702,10.8613,10.9502,11.0412,11.1098,11.1511,11.1511,11.1511,11.1511,11.2022,11.1895,11.1588,11.3291,11.3907,11.3483,11.4291,11.5215,11.5995,11.5995,11.6187,11.6495,11.6495,11.6495,11.6495,11.6495,11.6495,11.6495,11.6495,11.6495,11.6495,11.6495,11.6495,11.6495,11.6495,11.6495,11.6495,11.6495,11.6495,11.6495,11.6495,11.6495,11.6495,11.6495,11.6495,11.6495,11.6495,11.6495,11.6495,11.6495,11.6495,11.6495,11.6495,11.5918,11.4484,11.1906,11.078,10.9406,10.6703,10.6395,10.6395,10.6395,10.6395,10.6395,10.6395,10.6395,10.6395,10.6395,10.6395,10.6395,10.6395,10.6395,10.6395,10.6395,10.6395,10.6395,10.6395,10.6395,10.6395,10.6395,10.6395,10.6395,9.0713,9.3206,9.5209,9.6076,9.6735,9.7309,9.7729,9.8469,9.919,9.9642,10.0101,10.0411,10.0411,10.192,10.3214,10.3214,10.4616,10.571,10.578,10.5792,10.5904,10.5921,10.5889,10.5792,10.5792,10.5809,10.5809,10.5916,10.5913,10.6289,10.7284,10.8191,10.9102,11.0007,11.1006,11.1511,11.1511,11.1511,11.1511,11.1511,11.2088,11.2214,11.1906,11.3791,11.4484,11.4407,11.5215,11.5907,11.6495,11.6495,11.6495,11.6495,11.6495,11.6495,11.6495,11.6495,11.6495,11.6495,11.6495,11.6495,11.6495,11.6495,11.6495,11.6495,11.6495,11.6495,11.6495,11.6495,11.6495,11.6495,11.6495,11.6495,11.6495,11.6495,11.6495,11.6495,11.6495,11.6495,11.6495,11.6495,11.6495,11.6495,11.6495,11.6495,11.5484,11.2599,11.1895,11.0703,10.7713,10.7021,10.6703,10.6703,10.651,10.6395,10.6395,10.6395,10.651,10.6703,10.6703,10.678,10.701,10.701,10.701,10.701,10.701,10.678,10.6395,10.6395,10.6395,10.6395,10.6395,10.6395,8.9516,9.0469,9.1424,9.2409,9.3951,9.5375,9.5849,9.7338,9.8767,9.9138,9.9628,9.9922,9.9922,10.1699,10.3214,10.3214,10.4616,10.5686,10.5686,10.5686,10.5686,10.5698,10.5698,10.5686,10.5686,10.5807,10.5916,10.5889,10.5993,10.6413,10.7417,10.8311,10.9222,11.0203,11.1011,11.1511,11.1511,11.1511,11.1511,11.1511,11.1511,11.1895,11.2588,11.2791,11.3714,11.5291,11.611,11.6495,11.6495,11.6495,11.6495,11.6495,11.6495,11.6495,11.6495,11.6495,11.6495,11.6495,11.6495,11.6495,11.6495,11.6495,11.6495,11.6495,11.6495,11.6495,11.6495,11.6495,11.6495,11.6495,11.6495,11.6495,11.6495,11.6495,11.6495,11.6495,11.6495,11.6495,11.6495,11.6495,11.6495,11.6495,11.6495,11.6495,11.5918,11.4099,11.3214,11.1983,11.0214,10.8598,10.7598,10.7598,10.6895,10.6395,10.6395,10.6395,10.679,10.7598,10.7598,10.7982,10.8713,10.879,10.879,10.879,10.879,10.7982,10.6395,10.6395,10.6395,10.6395,10.6395,10.6395,8.9442,9.0391,9.1324,9.2325,9.3094,9.3917,9.5239,9.6206,9.7204,9.8536,9.9161,9.9438,9.9438,10.1001,10.2514,10.3087,10.4119,10.5099,10.568,10.5807,10.5804,10.5886,10.5886,10.5886,10.5886,10.5894,10.6005,10.6005,10.6001,10.6621,10.8085,10.8509,10.942,11.0913,11.1286,11.1511,11.1511,11.1511,11.1791,11.2291,11.2291,11.2406,11.2703,11.3907,11.4099,11.3714,11.5676,11.6495,11.6495,11.6495,11.6495,11.6495,11.6495,11.6495,11.6495,11.6495,11.6495,11.6495,11.6495,11.6495,11.6495,11.6495,11.6495,11.6495,11.6495,11.6495,11.6495,11.6495,11.6495,11.6495,11.6495,11.6495,11.6495,11.6495,11.6495,11.6495,11.6495,11.6495,11.6495,11.6495,11.6495,11.6495,11.6495,11.6495,11.5715,11.3483,11.2906,11.1906,10.9713,10.879,10.8482,10.8482,10.8213,10.8021,10.8021,10.8021,10.8098,10.8482,10.8482,10.8598,10.8906,10.8906,10.8906,10.8906,10.8906,10.8598,10.8021,10.8021,10.8021,10.8021,10.8021,10.8021,8.862,8.9293,8.9983,9.0688,9.1344,9.2279,9.4096,9.5107,9.6173,9.8005,9.8683,9.896,9.896,10.012,10.1395,10.2803,10.3803,10.4788,10.5801,10.5886,10.602,10.6012,10.5985,10.5985,10.5985,10.598,10.6079,10.6079,10.6123,10.6913,10.8602,10.8717,10.9606,11.1286,11.1517,11.1511,11.1511,11.1511,11.1791,11.2291,11.2291,11.2395,11.2714,11.3599,11.3907,11.3714,11.5099,11.5792,11.6099,11.6418,11.6495,11.6495,11.6495,11.6495,11.6495,11.6495,11.6495,11.6495,11.6495,11.6495,11.6495,11.6495,11.6495,11.6495,11.6495,11.6495,11.6495,11.6495,11.6495,11.6495,11.6495,11.6495,11.6495,11.6495,11.6495,11.6495,11.6495,11.6495,11.6495,11.6495,11.6495,11.6495,11.6495,11.6495,11.5907,11.4214,11.3483,11.2483,11.0791,10.9906,10.929,10.929,10.9098,10.8906,10.8906,10.8906,10.8983,10.929,10.929,10.9483,10.979,10.979,10.979,10.979,10.979,10.979,10.979,10.9213,10.8906,10.8906,10.8906,10.8906,0.0,0.0,0.0,8.7271,8.8652,9.0426,9.2222,9.4005,9.5811,9.7483,9.8167,9.8472,9.8472,9.8855,9.9892,10.2094,10.3604,10.4809,10.5801,10.5894,10.6012,10.5996,10.5996,10.5996,10.5996,10.6096,10.6199,10.6199,10.6305,10.7087,10.879,10.8906,10.979,11.1395,11.1511,11.1511,11.1511,11.1511,11.1511,11.1588,11.1511,11.2022,11.2791,11.2022,11.2906,11.5215,11.4407,11.4484,11.5418,11.6187,11.6495,11.6495,11.6495,11.6495,11.6495,11.6495,11.6495,11.6495,11.6495,11.6495,11.6495,11.6495,11.6495,11.6495,11.6495,11.6495,11.6495,11.6495,11.6495,11.6495,11.6495,11.6495,11.6495,11.6495,11.6495,11.6495,11.6495,11.6495,11.6495,11.6495,11.6495,11.6495,11.6495,11.6495,11.6495,11.6495,11.5099,11.3984,11.3984,11.1791,11.0214,11.0214,10.9483,10.8983,10.8983,10.8983,10.929,11.0224,11.0214,11.0598,11.1522,11.1511,11.1511,11.1511,11.1511,11.1511,11.1511,10.979,10.8983,10.8983,10.8983,10.8983,8.7237,0.0,0.0,0.0,0.0,0.0,9.0683,9.2336,9.3951,9.572,9.7157,9.8078,9.8078,9.8397,9.9092,10.0299,10.1577,10.3197,10.5193,10.5484,10.5716,10.6182,10.6312,10.6312,10.6312,10.6294,10.6315,10.6315,10.6385,10.7087,10.879,11.0098,11.1021,11.1511,11.1511,11.1511,11.1511,11.1511,11.2088,11.3291,11.2714,11.3099,11.4599,11.4407,11.4291,11.4407,11.5407,11.5599,11.5418,11.6187,11.6495,11.6495,11.6495,11.6495,11.6495,11.6495,11.6495,11.6495,11.6495,11.6495,11.6495,11.6495,11.6495,11.6495,11.6495,11.6495,11.6495,11.6495,11.6495,11.6495,11.6495,11.6495,11.6495,11.6495,11.6495,11.6495,11.6495,11.6495,11.6495,11.6495,11.6495,11.6495,11.6495,11.6495,11.6303,11.5676,11.4714,11.3791,11.3099,11.1906,11.1098,11.1098,11.0906,11.0791,11.0791,11.0791,11.0906,11.1098,11.1098,11.1203,11.1511,11.1511,11.1511,11.1511,11.1511,11.1511,11.1511,11.1011,11.0791,11.0791,11.0791,11.0791,8.7305,8.7468,8.7697,8.7778,0.0,0.0,9.0036,9.1668,9.33,9.495,9.6043,9.6988,9.7763,9.7465,9.7612,9.9225,10.0124,10.1489,10.4084,10.4817,10.5218,10.5905,10.6007,10.6096,10.6322,10.6413,10.6395,10.6395,10.6395,10.7087,10.879,11.0598,11.1511,11.1511,11.1511,11.1511,11.1511,11.1511,11.2214,11.3483,11.2896,11.3407,11.4791,11.4791,11.4714,11.4599,11.561,11.5918,11.5792,11.6303,11.6495,11.6495,11.6495,11.6495,11.6495,11.6495,11.6495,11.6495,11.6495,11.6495,11.6495,11.6495,11.6495,11.6495,11.6495,11.6495,11.6495,11.6495,11.6495,11.6495,11.6495,11.6495,11.6495,11.6495,11.6495,11.6495,11.6495,11.6495,11.6495,11.6495,11.6495,11.6495,11.6495,11.6495,11.6303,11.5918,11.5099,11.4407,11.3907,11.3099,11.2406,11.2011,11.2022,11.1906,11.1511,11.1511,11.1511,11.1511,11.1511,11.1511,11.1511,11.1511,11.1511,11.1511,11.1511,11.1511,11.1511,11.1511,11.1511,11.1511,11.1511,11.1511,0.0,0.0,0.0,8.7778,8.781,0.0,8.9716,9.1425,9.3103,9.4345,9.4756,9.5363,9.7057,9.5989,9.566,9.806,9.8635,9.9826,10.2697,10.3779,10.4605,10.5179,10.5295,10.5606,10.609,10.621,10.6284,10.6402,10.649,10.7192,10.879,11.0521,11.1395,11.1511,11.1511,11.1511,11.15,11.15,11.1885,11.2808,11.2808,11.3319,11.4291,11.4291,11.4714,11.5407,11.5407,11.5792,11.6495,11.6495,11.6495,11.6495,11.6495,11.6495,11.6495,11.6495,11.6495,11.6495,11.6495,11.6495,11.6495,11.6495,11.6495,11.6495,11.6495,11.6495,11.6495,11.6495,11.6495,11.6484,11.6599,11.6599,11.6688,11.6803,11.6803,11.6803,11.6803,11.6803,11.6803,11.6803,11.6599,11.6495,11.6495,11.6611,11.6599,11.6599,11.5984,11.5599,11.5599,11.4714,11.3791,11.2896,11.2791,11.2406,11.1588,11.1511,11.1511,11.1511,11.1511,11.1511,11.1511,11.1511,11.1511,11.1511,11.1511,11.1511,11.1511,11.1511,11.1511,11.1511,11.1511,11.1511,8.7448,8.773,8.8006,8.8037,8.8037,0.0,8.8445,8.9814,9.1077,9.1342,9.2456,9.3512,9.3879,9.3677,9.3586,9.4102,9.5811,9.8386,10.1994,10.2699,10.3286,10.4605,10.4802,10.4994,10.5421,10.5482,10.5704,10.5991,10.6792,10.7811,10.878,10.9906,11.0791,11.1522,11.1511,11.1391,11.1302,11.1302,11.2109,11.3608,11.3608,11.4394,11.5995,11.5995,11.6099,11.6303,11.6303,11.6418,11.6495,11.6495,11.6495,11.6495,11.6495,11.6495,11.6495,11.6495,11.6495,11.6495,11.6495,11.6495,11.6495,11.6495,11.6495,11.6495,11.6495,11.6495,11.6495,11.6495,11.6495,11.6688,11.7407,11.7484,11.7715,11.8407,11.86,11.86,11.86,11.86,11.86,11.86,11.7495,11.6495,11.6495,11.71,11.7484,11.7484,11.7407,11.7292,11.7292,11.5984,11.4714,11.3791,11.3099,11.2406,11.1588,11.1511,11.1511,11.1511,11.1511,11.1511,11.1511,11.1511,11.1511,11.1511,11.1511,11.1511,11.1511,11.1511,11.1511,11.1511,11.1511,11.1511,8.7514,8.7794,8.8084,8.8084,8.8084,0.0,0.0,8.9284,9.0483,9.0423,9.1074,9.1924,9.2823,9.2253,9.1961,9.286,9.4697,9.6839,9.9183,10.0914,10.2291,10.3313,10.3904,10.4296,10.4792,10.5102,10.5508,10.6001,10.6896,10.7796,10.8696,10.9502,11.0385,11.1307,11.1307,11.1312,11.1216,11.1216,11.1984,11.3711,11.3808,11.4683,11.6393,11.65,11.6495,11.6495,11.6495,11.6495,11.6495,11.6495,11.6495,11.6495,11.6495,11.6495,11.6495,11.6495,11.6495,11.6495,11.6495,11.6495,11.6495,11.6495,11.6495,11.6495,11.6495,11.6792,11.7215,11.7677,11.7792,11.7907,11.8292,11.8407,11.86,11.8985,11.91,11.91,11.91,11.91,11.91,11.91,11.8407,11.7792,11.7792,11.8215,11.8407,11.8407,11.8407,11.8407,11.8407,11.7715,11.6907,11.5984,11.4791,11.3714,11.2791,11.2022,11.1511,11.1511,11.1511,11.1511,11.1511,11.1511,11.1511,11.1511,11.1511,11.1511,11.1511,11.1511,11.1511,11.1511,11.1511,11.1511,8.7514,8.7794,8.8084,8.8084,8.8084,8.8053,0.0,0.0,0.0,8.9913,8.988,9.0337,9.1783,9.0868,9.0337,9.182,9.3397,9.4697,9.5328,9.8115,10.0594,10.2011,10.3019,10.369,10.4176,10.4806,10.5409,10.5786,10.6607,10.7507,10.8516,10.9206,11.0011,11.1085,11.1085,11.1111,11.1088,11.1088,11.1892,11.3617,11.3711,11.4702,11.63,11.6389,11.6495,11.6495,11.6495,11.6495,11.6495,11.6495,11.6495,11.6495,11.6495,11.6495,11.6495,11.6495,11.6495,11.6495,11.6495,11.6495,11.6495,11.6495,11.6599,11.6803,11.6803,11.7407,11.8215,11.8908,11.91,11.91,11.9292,11.9292,11.9408,11.9485,11.96,11.96,11.96,11.96,11.96,11.96,11.96,11.9485,11.9215,11.9215,11.9292,11.9292,11.9485,11.96,11.96,11.9408,11.8985,11.81,11.6407,11.4907,11.4099,11.2483,11.1511,11.1511,11.1511,11.1511,11.1511,11.1511,11.1511,11.1511,11.1511,11.1511,11.1511,11.1511,11.1511,11.1511,11.1511,11.1511,8.7514,8.7794,8.8084,8.8084,8.8084,8.8084,8.8068,0.0,8.8381,8.8366,0.0,8.8403,8.8604,0.0,0.0,8.8604,9.0016,9.1093,9.1167,9.3397,9.6646,10.1101,10.2309,10.2987,10.3589,10.4401,10.4994,10.5204,10.571,10.6802,10.8516,10.8707,10.9513,11.1008,11.1085,11.0987,11.0904,11.0904,11.1797,11.3393,11.3579,11.4581,11.63,11.6389,11.6495,11.6495,11.6495,11.6495,11.6495,11.6495,11.6495,11.6495,11.6495,11.6495,11.6495,11.6495,11.6495,11.6495,11.6495,11.6495,11.6495,11.6495,11.6984,11.7715,11.7715,11.8292,11.8985,11.91,11.91,11.9292,11.9985,12.0216,12.0408,12.11,12.1304,12.1304,12.1304,12.1304,12.1304,12.1304,12.1304,12.0793,11.9408,11.9715,12.0216,12.0216,12.0793,12.1304,12.1304,12.06,11.9908,11.8985,11.6792,11.4907,11.4099,11.2483,11.1511,11.1511,11.1511,11.1511,11.1511,11.1511,11.1511,11.1511,11.1511,11.1511,11.1511,11.1511,11.1511,11.1511,11.1511,11.1511,8.7514,8.7713,8.7958,8.8068,8.8021,8.7958,8.8068,8.8084,8.8084,8.8084,0.0,0.0,0.0,0.0,0.0,0.0,8.9459,9.0499,9.0499,9.2653,9.5143,9.7669,9.8672,9.9515,10.0383,10.2018,10.308,10.3401,10.4901,10.6521,10.8291,10.8418,10.9095,11.0791,11.0906,11.0792,11.0818,11.0818,11.1608,11.3291,11.3492,11.4495,11.6193,11.6405,11.6495,11.6484,11.6416,11.642,11.6409,11.63,11.6303,11.6303,11.6303,11.6397,11.6495,11.6495,11.6495,11.6495,11.6495,11.6495,11.6495,11.6495,11.71,11.7907,11.8407,11.91,11.9908,12.0408,12.0612,12.06,12.0997,12.11,12.11,12.1485,12.1612,12.1612,12.1612,12.1612,12.1612,12.1612,12.1612,12.142,12.0677,12.0793,12.11,12.11,12.142,12.1612,12.1612,12.1304,12.0908,12.06,11.8715,11.6907,11.561,11.3907,11.2511,11.1588,11.1511,11.1511,11.1511,11.1511,11.1511,11.1511,11.1511,11.1511,11.1511,11.1511,11.1511,11.1511,11.1511,11.1511,8.8893,8.8745,8.8594,8.8721,8.8324,8.7927,8.8068,8.8084,8.8084,8.8084,8.8084,0.0,0.0,0.0,8.8084,8.8084,0.0,8.983,8.983,9.139,9.3248,9.518,9.6331,9.7269,9.8113,9.9717,10.1091,10.201,10.3818,10.5689,10.7711,10.8093,10.8895,11.0309,11.0576,11.0691,11.0691,11.0691,11.1493,11.3213,11.3418,11.4384,11.6108,11.63,11.6405,11.6389,11.63,11.6203,11.6191,11.6106,11.6108,11.6108,11.6108,11.6179,11.6393,11.6393,11.6405,11.64,11.64,11.65,11.6484,11.6803,11.7407,11.8292,11.9215,11.9985,12.0793,12.142,12.1612,12.1612,12.1612,12.1612,12.1612,12.1612,12.1612,12.1612,12.1612,12.1612,12.1612,12.1612,12.1612,12.1612,12.1612,12.1612,12.1612,12.1612,12.1612,12.1612,12.1612,12.1612,12.1612,12.1612,12.01,11.8407,11.6599,11.4984,11.3291,11.1588,11.1511,11.1511,11.1511,11.1511,11.1511,11.1511,11.1511,11.1511,11.1511,11.1511,11.1511,11.1511,11.1511,11.1511,9.2485,9.1503,9.0424,9.0424,8.9236,8.8084,8.8084,8.8084,8.8084,8.8084,8.8084,8.8084,8.8084,8.8084,8.8084,0.0,8.8137,0.0,0.0,8.8233,9.0053,9.4845,9.6852,9.7872,9.7909,9.8378,9.9558,10.1716,10.2288,10.3895,10.6819,10.7711,10.8589,10.9379,11.0309,11.0691,11.0691,11.0691,11.1493,11.3213,11.3317,11.4413,11.6108,11.6108,11.6181,11.6289,11.6207,11.6108,11.6108,11.6108,11.6108,11.6108,11.6108,11.6108,11.612,11.612,11.6193,11.63,11.63,11.6382,11.6599,11.7484,11.8292,11.9215,11.9985,12.0908,12.1612,12.1612,12.1612,12.1612,12.1612,12.1612,12.1612,12.1612,12.1612,12.1612,12.1612,12.1612,12.1612,12.1612,12.1612,12.1612,12.1612,12.1612,12.1612,12.1612,12.1612,12.1612,12.1612,12.1612,12.1612,12.1612,12.01,11.8407,11.6599,11.4984,11.3291,11.1588,11.1511,11.1511,11.1511,11.1511,11.1511,11.1511,11.1511,11.1511,11.1511,11.1511,11.1511,11.1511,11.1511,11.1511,9.2633,9.1465,9.0222,9.0451,8.9076,8.7778,8.8037,8.8084,8.8381,8.9459,8.8827,8.8418,8.9496,8.8827,0.0,0.0,0.0,8.8084,0.0,8.8567,8.9719,9.191,9.3037,9.386,9.4416,9.5765,9.7096,9.8314,9.9886,10.2081,10.5197,10.6189,10.7491,10.9303,11.0194,11.0691,11.0691,11.0691,11.1493,11.3213,11.3304,11.4311,11.6009,11.6097,11.6082,11.6195,11.5995,11.6009,11.6009,11.5919,11.5803,11.5803,11.5803,11.5803,11.5893,11.5995,11.6094,11.6219,11.6303,11.6382,11.6599,11.7484,11.8407,11.9292,12.01,12.0908,12.1612,12.1612,12.1612,12.1612,12.1612,12.1612,12.1612,12.1612,12.1612,12.1612,12.1612,12.1612,12.1612,12.1612,12.1612,12.1612,12.1612,12.1612,12.1612,12.1612,12.1612,12.1612,12.1612,12.1612,12.1612,12.1612,12.11,11.96,11.6688,11.3907,11.2088,11.1511,11.1511,11.1511,11.1511,11.1511,11.1511,11.1511,11.1511,11.1511,11.1511,11.1511,11.1511,11.1511,11.1511,11.1511,9.4476,9.3273,9.198,9.2196,9.0819,8.9535,8.9782,8.983,9.0127,9.1167,9.009,8.9273,9.0313,8.9161,0.0,0.0,0.0,0.0,0.0,8.853,8.9273,9.0387,9.1144,9.1861,9.2626,9.3913,9.5166,9.6335,9.7925,10.0113,10.2899,10.48,10.6519,10.8117,10.9799,11.0691,11.0691,11.0691,11.1493,11.3213,11.3304,11.4209,11.5906,11.5907,11.5983,11.5982,11.5894,11.579,11.5777,11.5698,11.5696,11.5696,11.5696,11.5696,11.571,11.5894,11.5982,11.6082,11.6291,11.6382,11.6688,11.7907,11.86,11.9292,12.0408,12.1189,12.1612,12.1612,12.1612,12.1612,12.1612,12.1612,12.1612,12.1612,12.1612,12.1612,12.1612,12.1612,12.1612,12.1612,12.1612,12.1612,12.1612,12.1612,12.1612,12.1612,12.1612,12.1612,12.1612,12.1612,12.1612,12.1612,12.1612,12.0189,11.6803,11.3407,11.1511,11.1511,11.1511,11.1511,11.1511,11.1511,11.1588,11.1895,11.1588,11.1588,11.1895,11.1588,11.1511,11.1511,11.1511,11.1511]}]]